     2              OBSERVATION DATA    GPS                 RINEX VERSION / TYPE
ASRINEXO V2.4.4 UX USGS 18-JAN-95 12:50                     PGM / RUN BY / DATE
                                                            COMMENT
Original Marker Name: gapp Gap_Unstamped                    COMMENT
Campaign Name: usgs.monit.coach                             COMMENT
4-Character Station Name: GAPP                              COMMENT
6-Character Antenna Code: ASHL12                            COMMENT
Vertical Measurement Point: BBE                             COMMENT
Vertical Offset to Rinex Ref. Point: 0.0595                 COMMENT
Radial Measurement Point: EGP                               COMMENT
Radial Offset to Rinex Ref. Point: 0.1424                   COMMENT
Antenna Height from Field Measurement: 1.2800 m             COMMENT
Additional Antenna Identification Info.:                    COMMENT
Original Ashtech L1/L2                                      COMMENT
Original XYZ: -2414583.9500 -4563410.2700 3734495.5300      COMMENT
New XYZ position is based on association with SCEC monument COMMENT
E1D0T7Q9+0011. Position of that monument is believed to be  COMMENT
valid to within 1 m horizontally; vertical accuracy         COMMENT
should be no worse than 3-times this value.                 COMMENT
                                                            COMMENT
Revised Rinex header created by UCSD GPS archive for        COMMENT
GSAC on 10-Nov-1999 (1999:314) 22:57:59 GMT                 COMMENT
For assistance contact dagnew@ucsd.edu or hjohnson@ucsd.edu COMMENT
                                                            COMMENT
GAPP GAP_UNSTAMPED                                          MARKER NAME
CHS US GEOLOGICAL SURVEY                                    OBSERVER / AGENCY
597 ASHTECH Z-XII3 1E00                                     REC # / TYPE / VERS
598 ASHTECH GEODETIC L                                      ANT # / TYPE
 -2341470.0000 -4764548.0000  3523349.0000                  APPROX POSITION XYZ
        1.2126        0.0000        0.0000                  ANTENNA: DELTA H/E/N
     1     1     0                                          WAVELENGTH FACT L1/2
     5    C1    L1    L2    P1    P2                        # / TYPES OF OBSERV
    30                                                      INTERVAL
  1995     1     5    18    13   30.000000                  TIME OF FIRST OBS
  1995     1     6     0    58   60.000000                  TIME OF LAST OBS
                                                            END OF HEADER
 95  1  5 18 13 30.0000000  0  3  1 25 15
  19537675.618       20788.73519
  17058914.247       -3157.06419
  17329799.334       -9631.96019
 95  1  5 18 14  0.0000000  0  5  1 21 25 14 15
  19545460.269       61722.05059     40454.40459  19545463.3864   19545469.3704
  20163191.039       35304.74019
  17056828.470      -14139.50559     -9200.43359  17056822.5034   17056827.6414
  19162627.716     -117088.05859    -78608.71659  19162622.0534   19162627.9504
  17326595.317      -26467.76859    -16453.52359  17326593.1164   17326598.3124
 95  1  5 18 14 30.0000000  0  3  1 25 15
  23150450.002      100983.48849     71047.70249  23150443.2354   23150449.9974
  20652031.852      -26264.86049    -18648.80149  20652024.8014   20652029.1264
  20920711.185      -44328.78349    -30371.17949  20920704.5354   20920709.9404
 95  1  5 18 15  0.0000000  0  5  1 21 25 14 15
  23157610.902      138611.79249    100368.41349  23157603.6494   23157609.7844
  23782860.568      151738.89859    103632.56959  23782849.8454   23782858.9574
  20649500.417      -39554.11149    -29004.04249  20649495.8484   20649500.2654
  22715492.212     -351656.63149   -261389.38349  22715494.7874   22715500.2244
  20917109.252      -63227.29649    -45097.30849  20917107.9824   20917113.4734
 95  1  5 18 15 30.0000000  0  5  1 21 25 14 15
  23164467.827      174673.26749    128468.19349  23164465.5054   23164472.5994
  23793536.068      207923.39149    147412.62249  23793541.8834   23793550.8014
  20646765.082      -53923.29249    -40200.81749  20646761.4284   20646765.9884
  22692740.380     -471247.95349   -354577.40849  22692737.3594   22692742.8394
  20913334.033      -83071.01049    -60559.96549  20913331.9724   20913337.2974
 95  1  5 18 16  0.0000000  0  5  1 21 25 14 15
  23171050.209      209278.87049    155433.53349  23171050.7644   23171057.8054
  23803985.067      262853.60449    190215.31449  23803994.7404   23804004.1034
  20643849.603      -69254.37149    -52147.13049  20643843.8454   20643848.4344
  22669718.808     -592225.30949   -448845.45249  22669716.6364   22669721.8994
  20909407.526     -103754.43449    -76676.93649  20909396.0684   20909401.5654
 95  1  5 18 16 30.0000000  0  5  1 21 25 14 15
  23177377.417      242524.75049    181339.36649  23177377.5364   23177383.4304
  23814224.538      316605.35649    232099.67949  23814224.5114   23814231.6294
  20640762.210      -85457.22149    -64772.73049  20640760.8094   20640765.3294
  22646447.169     -714516.34849   -544137.16349  22646445.2404   22646450.4534
  20905312.051     -125195.49049    -93384.26049  20905315.9024   20905321.6234
 95  1  5 18 17  0.0000000  0  6  1 21 25 20 14 15
  23183472.304      274510.71149    206263.43449  23183464.8094   23183470.7914
  23824252.245      369280.54749    273145.22949  23824247.8614   23824256.3204
  20637535.480     -102427.74449    -77996.51749  20637531.4994   20637535.9964
  24500726.986      -62196.88559    -44330.24659  24500721.5834   24500730.3194
  22622944.037     -838015.05649   -640369.90349  22622944.1774   22622949.5754
  20901117.088     -147293.44549   -110603.45749  20901110.9814   20901116.4234
 95  1  5 18 17 29.9990000  0  6  1 21 25 20 14 15
  23189322.191      305265.31149    230228.00549  23189316.8614   23189324.7494
  23834079.089      420901.45149    313369.19449  23834072.6124   23834079.7614
  20634166.416     -120127.94649    -91788.88549  20634163.2784   20634167.8344
  24496678.897      -83455.89449    -60895.71149  24496675.3404   24496683.6804
  22599220.621     -962681.54749   -737512.61049  22599221.2744   22599226.2494
  20896783.508     -170021.40549   -128313.57249  20896786.0624   20896791.5994
 95  1  5 18 17 59.9990000  0  6  1 21 25 20 14 15
  23194935.204      334788.69049    253233.17149  23194935.3114   23194942.0814
  23843694.866      471464.56349    352768.92749  23843693.4704   23843701.3164
  20630654.165     -138569.10849   -106158.63349  20630653.9284   20630658.5844
  24492495.768     -105447.74449    -78032.20149  24492489.1124   24492499.0684
  22575275.391    -1088535.99849   -835581.00549  22575271.5034   22575277.0154
  20892343.810     -193388.87849   -146522.00549  20892339.3504   20892345.0724
 95  1  5 18 18 29.9990000  0  6  1 21 25 20 14 15
  23200330.067      363137.19749    275322.86749  23200329.2074   23200336.0964
  23853134.586      521043.33849    391401.64549  23853127.9544   23853137.1834
  20627018.489     -157699.12949   -121065.14749  20627013.6464   20627018.4064
  24488178.411     -128114.61349    -95694.78049  24488175.6484   24488185.5204
  22551110.654    -1215514.28349   -934525.10849  22551108.3834   22551113.6514
  20887783.414     -217342.79149   -165187.40949  20887781.2404   20887786.7694
 95  1  5 18 18 59.9990000  0  6  1 21 25 20 14 15
  23205514.216      390383.83949    296553.96149  23205514.2504   23205521.0264
  23862383.378      569713.37749    429326.23949  23862388.1094   23862397.7434
  20623258.957     -177446.67149   -136452.85149  20623255.8084   20623260.5834
  24483755.305     -151396.73349   -113836.70049  24483749.9764   24483753.6774
  22526754.128    -1343537.54949  -1034283.48549  22526746.2504   22526752.0354
  20883133.678     -241816.51649   -184257.86149  20883124.1224   20883129.6994
 95  1  5 18 19 29.9990000  0  6  1 21 25 20 14 15
  23210497.863      416566.28849    316955.82349  23210496.4214   23210504.0394
  23871492.682      617496.32749    466559.63349  23871482.5334   23871491.4194
  20619388.069     -197792.43749   -152306.71049  20619384.5654   20619388.9604
  24479211.708     -175265.39249   -132435.60649  24479205.0944   24479212.7774
  22502193.437    -1472575.82149  -1134832.78049  22502191.2264   22502196.6914
  20878375.644     -266786.07649   -203714.67749  20878372.6724   20878378.2184
 95  1  5 18 19 59.9990000  0  6  1 21 25 20 14 15
  23215293.255      441758.80249    336586.30249  23215290.6604   23215298.3454
  23880434.076      664472.79149    503164.55649  23880422.1134   23880430.5424
  20615416.283     -218661.31549   -168568.17149  20615413.2344   20615417.5404
  24474568.207     -199652.24849   -151438.36749  24474564.1954   24474573.3284
  22477452.687    -1602554.48549  -1236114.83949  22477457.2744   22477462.7254
  20873537.450     -292176.97849   -223499.80949  20873540.6624   20873546.4454
 95  1  5 18 20 29.9990000  0  6  1 21 25 20 14 15
  23219912.740      466003.02549    355477.85149  23219904.9144   23219912.1344
  23889219.967      710699.03449    539184.91949  23889217.5594   23889226.2494
  20611355.242     -240001.02549   -185196.50049  20611352.5504   20611356.9454
  24469833.593     -224521.97649   -170817.38949  24469830.4204   24469841.1544
  22452561.355    -1733420.63249  -1338088.43549  22452553.7344   22452559.6244
  20868639.563     -317943.50549   -243577.63449  20868637.2124   20868643.2434
 95  1  5 18 20 59.9990000  0  6  1 21 25 20 14 15
  23224365.461      489377.16149    373691.40149  23224353.3034   23224359.0794
  23897886.813      756249.25549    574678.52649  23897885.8594   23897896.2364
  20607220.755     -261724.23949   -202123.68249  20607218.7694   20607223.0954
  24465021.984     -249784.78049   -190502.72349  24465019.7394   24465032.8204
  22427504.193    -1865083.34649  -1440682.75449  22427499.5704   22427505.0154
  20863689.141     -343999.04149   -263880.66849  20863679.2654   20863685.1254
 95  1  5 18 21 29.9990000  0  6  1 21 25 20 14 15
  23228644.183      511917.17849    391255.00249  23228642.1484   23228648.7954
  23906434.627      801167.06349    609679.29149  23906434.4194   23906442.4684
  20603025.769     -283777.68949   -219308.18549  20603022.1254   20603026.3834
  24460156.556     -275361.96649   -210433.08149  24460157.3964   24460167.1434
  22402305.037    -1997480.70049  -1543849.51449  22402304.9564   22402310.6684
  20858675.268     -370289.00849   -284366.37449  20858676.4894   20858682.3004
 95  1  5 18 21 59.9990000  0  6  1 21 25 20 14 15
  23232776.944      533649.43449    408189.18849  23232777.0904   23232785.4864
  23914869.995      845496.92249    644221.93649  23914870.0224   23914878.0204
  20598773.620     -306120.57149   -236718.21849  20598770.4544   20598775.0074
  24455238.282     -301209.00449   -230573.58049  24455238.0764   24455248.6014
  22376978.444    -2130576.87049  -1647560.79049  22376977.6434   22376983.5024
  20853639.651     -396775.08649   -305004.89649  20853636.6594   20853642.1084
 95  1  5 18 22 29.9990000  0  6  1 21 25 20 14 15
  23236765.626      554605.60149    424518.62549  23236765.6754   23236772.1664
  23923203.854      889271.19349    678331.65149  23923199.5604   23923208.8034
  20594469.437     -328727.64249   -254334.10949  20594468.2614   20594473.0454
  24450281.228     -327282.01849   -250890.30149  24450277.3164   24450288.3434
  22351534.690    -2264323.24749  -1751778.72549  22351526.6054   22351532.3424
  20848565.972     -423417.36549   -325765.13349  20848566.7084   20848572.4284
 95  1  5 18 22 59.9990000  0  5  1 21 25 14 15
  23240619.563      574813.08249    440264.66649  23240611.0784   23240618.3064
  23931419.617      932504.25749    712019.63749  23931427.2464   23931434.9564
  20590121.594     -351565.96349   -272130.20949  20590122.1724   20590127.0534
  22325963.688    -2398681.59649  -1856473.53649  22325959.0614   22325964.9474
  20843472.939     -450183.45149   -346621.84149  20843473.6384   20843479.0164
 95  1  5 18 23 29.9990000  0  5  1 21 25 14 15
  23244323.856      594305.26249    455453.32749  23244320.1264   23244326.8834
  23939558.901      975230.91449    745313.03949  23939557.9874   23939565.7154
  20585737.484     -374623.19849   -290096.89549  20585734.9474   20585739.3594
  22300282.183    -2533638.07749  -1961634.42049  22300277.8204   22300283.5374
  20838364.812     -477050.39249   -367557.13749  20838360.2754   20838366.6454
 95  1  5 18 23 59.9990000  0  6  1 21 25 14 15 22
  23247905.357      613125.94049    470118.74649  23247901.3974   23247909.6174
  23947612.423     1017474.14349    778229.75749  23947597.0924   23947604.1964
  20581310.883     -397887.65349   -308225.04749  20581307.9614   20581312.2014
  22274485.813    -2669179.97349  -2067251.47149  22274485.1344   22274490.7994
  20833235.401     -503996.62849   -388554.21549  20833232.9874   20833239.0444
  23782570.266     -384182.05359   -276734.22259  23782567.6134   23782575.9874
 95  1  5 18 24 29.9990000  0  6  1 21 25 14 15 22
  23251366.279      631297.16549    484278.09549  23251359.0844   23251367.0444
  23955552.504     1059239.26649    810773.86649  23955545.4254   23955552.6894
  20576847.027     -421347.96349   -326505.81749  20576843.5764   20576847.8014
  22248588.556    -2805282.92149  -2173305.70449  22248585.6264   22248591.2094
  20828100.157     -531007.72349   -409601.83049  20828093.1844   20828098.9084
  23755052.650     -528772.66849   -389402.21549  23755052.8294   23755061.8394
 95  1  5 18 24 59.9990000  0  6  1 21 25 14 15 22
  23254700.723      648846.12449    497952.56249  23254699.1274   23254706.1494
  23963405.369     1100549.04649    842963.23549  23963404.7944   23963412.3404
  20572348.780     -444985.41149   -344924.61949  20572345.4724   20572349.7194
  22222578.162    -2941948.98149  -2279798.72149  22222579.2084   22222584.6374
  20822947.982     -558070.73349   -430689.90949  20822943.2124   20822948.7964
  23727421.583     -674018.20349   -502580.55049  23727414.8354   23727422.7414
 95  1  5 18 25 29.9990000  0  6  1 21 25 14 15 22
  23257923.474      665798.37749    511162.06349  23257925.4564   23257933.1794
  23971188.360     1141435.63749    874822.77049  23971186.4494   23971193.7084
  20567818.054     -468795.03049   -363477.57949  20567814.4144   20567819.1014
  22196469.918    -3079161.77449  -2386717.77449  22196468.1934   22196473.7584
  20817791.500     -585172.64949   -451808.29749  20817786.0714   20817791.4614
  23699656.806     -819890.56949   -616247.31949  23699655.0864   23699663.9554
 95  1  5 18 25 59.9990000  0  6  1 21 25 14 15 22
  23261042.544      682167.00949    523916.79549  23261040.5644   23261046.6704
  23978893.450     1181909.06949    906360.41549  23978888.5334   23978895.9834
  20563256.663     -492751.87149   -382145.27249  20563255.6894   20563260.3414
  22170262.184    -3216870.98049  -2494023.64449  22170263.2384   22170268.6794
  20812619.388     -612295.23749   -472942.80049  20812624.8344   20812630.3244
  23671787.702     -966353.84849   -730374.54749  23671784.2664   23671792.1614
 95  1  5 18 26 29.9990000  0  6  1 21 25 14 15 22
  23264053.511      697942.62949    536209.42049  23264042.8454   23264049.0574
  23986526.307     1221986.94049    937589.82149  23986514.4244   23986523.5014
  20558675.410     -516841.28849   -400916.26849  20558671.9064   20558676.3144
  22143969.934    -3355057.57649  -2601701.50049  22143966.9914   22143972.7564
  20807466.796     -639429.57949   -494086.45749  20807461.3434   20807466.9084
  23643807.224    -1113400.85449   -844956.60349  23643802.6274   23643810.4384
 95  1  5 18 26 59.9990000  0  6  1 21 25 14 15 22
  23266940.021      713137.87349    548049.82649  23266934.6944   23266942.4144
  23994073.526     1261686.15149    968524.17049  23994068.6734   23994077.2044
  20554070.438     -541043.33549   -419775.02249  20554066.6294   20554070.6104
  22117584.894    -3493703.55849  -2709737.32849  22117583.4944   22117589.2834
  20802302.308     -666562.07349   -515228.67449  20802298.0824   20802303.7314
  23615718.279    -1261018.59449   -959983.38049  23615712.3794   23615720.8694
 95  1  5 18 27 29.9990000  0  7  1 29 21 25 14 15 22
  23269715.308      727748.63249    559434.78249  23269714.2924   23269721.4034
  23423433.162     -344196.20559   -252312.72659  23423428.7874   23423434.5874
  24001545.314     1301005.30149    999162.35049  24001551.1854   24001558.1594
  20549442.164     -565345.81849   -438712.03449  20549442.1174   20549446.0004
  22091125.277    -3632777.18049  -2818106.38549  22091118.8244   22091124.6154
  20797139.822     -693681.51349   -536360.71549  20797137.7194   20797143.2524
  23587521.872    -1409187.46149  -1075439.57249  23587516.0884   23587523.6854
 95  1  5 18 27 59.9990000  0  7  1 29 21 25 14 15 22
  23272382.516      741773.71149    570363.35849  23272383.1194   23272390.8154
  23400248.517     -466023.72749   -347243.27149  23400246.4834   23400252.0964
  24008959.740     1339931.77049   1029494.58649  24008957.5784   24008964.8224
  20544801.259     -589734.20649   -457715.98749  20544801.0894   20544805.1134
  22064574.827    -3772292.32949  -2926819.48949  22064569.6044   22064575.6534
  20791977.317     -720783.40749   -557479.09149  20791980.4764   20791985.9554
  23559223.014    -1557897.59549  -1191317.55149  23559217.6924   23559225.8804
 95  1  5 18 28 29.9990000  0  7  1 29 21 25 14 15 22
  23274942.810      755235.07549    580852.67949  23274944.6044   23274952.6104
  23376977.672     -588288.16049   -442514.24649  23376980.1644   23376986.9464
  24016294.567     1378467.04849   1059521.98549  24016290.8594   24016299.1644
  20540149.832     -614183.02049   -476767.02449  20540148.3394   20540152.5904
  22037939.303    -3912267.29949  -3035890.89349  22037933.7824   22037939.2794
  20786829.017     -747853.18449   -578572.43349  20786829.2094   20786834.9174
  23530829.720    -1707130.07949  -1307602.53149  23530820.4054   23530827.1824
 95  1  5 18 28 59.9990000  0  7  1 29 21 25 14 15 22
  23277415.055      768159.97049    590923.97049  23277405.2824   23277411.5444
  23353631.016     -710978.21349   -538116.89049  23353633.5284   23353639.2444
  24023562.544     1416620.02049   1089251.45849  24023551.1634   24023559.9784
  20535490.750     -638678.45549   -495854.38949  20535486.8154   20535491.3734
  22011213.474    -4052699.83649  -3145318.83749  22011209.9294   22011215.7434
  20781694.684     -774883.13549   -599634.74549  20781685.6574   20781691.3434
  23502311.875    -1856865.45249  -1424279.37049  23502325.3094   23502333.6214
 95  1  5 18 29 29.9990000  0  7  1 29 21 25 14 15 22
  23279767.663      780567.85649    600592.38049  23279766.4634   23279774.8434
  23330206.786     -834095.67149   -634052.56449  23330203.8024   23330210.3034
  24030744.447     1454401.05449   1118691.16349  24030742.1014   24030747.8984
  20530821.642     -663202.11749   -514963.74849  20530820.3544   20530825.0614
  21984405.281    -4193575.50949  -3255092.08549  21984402.5504   21984407.8114
  20776557.420     -801860.02949   -620655.72049  20776551.8244   20776557.7724
  23473753.354    -2007070.39249  -1541322.09249  23473744.0154   23473750.4894
 95  1  5 18 29 59.9990000  0  7  1 29 21 25 14 15 22
  23282032.606      792484.02549    609877.66649  23282033.4764   23282041.2784
  23306701.635     -957646.59549   -730326.00049  23306693.7834   23306700.3874
  24037875.105     1491825.98549   1147853.35449  24037862.7414   24037870.8504
  20526153.245     -687747.96949   -534090.39849  20526149.5184   20526154.0334
  21957512.929    -4334880.55349  -3365199.91049  21957512.9434   21957518.5904
  20771435.971     -828770.09349   -641624.61649  20771431.2884   20771437.0614
  23445076.107    -2157726.28449  -1658716.21149  23445075.7884   23445081.3324
 95  1  5 18 30 29.9990000  0  7  1 29 21 25 14 15 22
  23284211.912      803910.37149    618781.25849  23284207.6544   23284215.2294
  23283104.474    -1081622.99649   -826931.00249  23283103.8674   23283108.6244
  24044921.008     1528916.03449   1176754.58449  24044921.2894   24044930.4104
  20521472.118     -712322.40049   -553239.31449  20521473.2574   20521477.6864
  21930553.261    -4476570.75449  -3475607.85549  21930550.3614   21930556.2014
  20766332.121     -855607.64649   -662537.01249  20766324.3624   20766330.0614
  23416322.338    -2308835.94849  -1776463.96949  23416319.3484   23416325.6474
 95  1  5 18 30 59.9990000  0  7  1 29 21 25 14 15 22
  23286287.647      814848.35549    627304.31649  23286288.7514   23286296.6334
  23259430.203    -1206013.85049   -923858.95449  23259432.8104   23259437.7474
  24051926.976     1565704.16349   1205420.60649  24051922.2614   24051932.2444
  20516792.039     -736933.86149   -572417.08149  20516790.1614   20516794.3164
  21903525.925    -4618600.64649  -3586280.49049  21903522.4524   21903528.7194
  20761238.475     -882360.58949   -683383.48049  20761233.6214   20761239.3464
  23387478.091    -2460387.03149  -1894555.65949  23387480.5154   23387488.3774
 95  1  5 18 31 29.9990000  0  7  1 29 21 25 14 15 22
  23288280.640      825292.41649    635442.48649  23288276.1804   23288283.0464
  23235687.687    -1330814.53149  -1021106.24049  23235684.4394   23235688.3684
  24058863.600     1602196.99849   1233856.45249  24058867.9254   24058875.7554
  20512100.361     -761590.85049   -591630.31949  20512098.1334   20512102.0974
  21876434.799    -4760945.39049  -3697198.46249  21876435.8544   21876441.2444
  20756161.784     -909019.64249   -704156.78749  20756160.3564   20756166.0874
  23358558.850    -2612374.40149  -2012987.32649  23358558.9654   23358564.7294
 95  1  5 18 31 59.9990000  0  7  1 29 21 25 14 15 22
  23290172.840      835254.59649    643205.17449  23290173.3404   23290179.2144
  23211860.922    -1455992.76049  -1118647.74849  23211864.6364   23211867.5624
  24065772.082     1638431.09259   1262090.73159  24065761.6694   24065770.1224
  20507400.556     -786282.22149   -610870.35049  20507399.5634   20507403.4604
  21849294.976    -4903591.13849  -3808350.98249  21849291.0244   21849296.4034
  20751098.469     -935569.16449   -724844.75549  20751108.1974   20751113.7164
  23329558.979    -2764804.34549  -2131763.88249  23329553.4594   23329558.9764
 95  1  5 18 32 29.9980000  0  7  1 29 21 25 14 15 22
  23291974.888      844746.19949    650601.15949  23291979.3624   23291986.0104
  23187977.362    -1581513.89249  -1216456.43549  23187977.5924   23187982.3694
  24072617.707     1674430.98849   1290142.51849  24072611.5364   24072621.1764
  20502700.908     -810985.80949   -630119.90249  20502698.5844   20502702.8154
  21822095.961    -5046516.84049  -3919721.64349  21822093.2514   21822098.9744
  20746076.510     -961995.81149   -745436.96849  20746079.4584   20746084.9834
  23300461.132    -2917663.62249  -2250875.01049  23300464.3574   23300469.5974
 95  1  5 18 32 59.9980000  0  7  1 29 21 25 14 15 22
  23293704.287      853800.85049    657656.69749  23293701.5114   23293710.1574
  23164028.302    -1707372.88049  -1314528.36749  23164026.2644   23164031.6514
  24079423.613     1710204.44749   1318017.83049  24079421.8034   24079428.8204
  20498002.429     -835672.50249   -649356.29449  20498000.6994   20498004.9444
  21794838.294    -5189734.94349  -4031320.13849  21794839.7214   21794845.5864
  20741082.749     -988281.64649   -765919.45649  20741077.1814   20741083.1594
  23271297.937    -3070926.94549  -2370300.96249  23271297.8454   23271304.8674
 95  1  5 18 33 29.9980000  0  6  1 29 25 14 15 22
  23295352.329      862439.64049    664388.17249  23295345.3084   23295353.3264
  23140015.053    -1833547.78049  -1412846.46049  23140014.1074   23140022.0734
  20493312.947     -860314.45349   -668557.83049  20493311.4854   20493315.9314
  21767531.900    -5333246.41349  -4143147.24549  21767530.1624   21767535.8834
  20736114.606    -1014413.91949   -786282.28849  20736104.4624   20736110.5644
  23242067.939    -3224575.46049  -2490027.03549  23242060.1564   23242066.5964
 95  1  5 18 33 59.9980000  0  6  1 29 25 14 15 22
  23296913.417      870676.29949    670806.30249  23296912.5884   23296919.6994
  23115944.019    -1960019.32849  -1511395.69549  23115950.1034   23115955.5064
  20488633.719     -884894.02949   -687710.76249  20488634.1764   20488638.5474
  21740172.132    -5477040.24549  -4255194.36749  21740167.6364   21740172.9404
  20731165.756    -1040382.11349   -806517.26449  20731163.0484   20731169.0614
  23212761.676    -3378583.82049  -2610033.53349  23212752.5814   23212760.2254
 95  1  5 18 34 29.9980000  0  6  1 29 25 14 15 22
  23298401.885      878517.95449    676916.62349  23298405.3774   23298413.0884
  23091827.262    -2086792.22149  -1610179.78649  23091825.2534   23091831.2894
  20483969.933     -909414.94149   -706817.98549  20483968.0824   20483972.5704
  21712753.742    -5621108.56849  -4367455.38449  21712752.2454   21712757.6494
  20726251.357    -1066184.64649   -826623.15449  20726252.7434   20726258.9414
  23183393.845    -3532918.12249  -2730293.96749  23183383.8344   23183390.9494
 95  1  5 18 34 59.9980000  0  6  1 29 25 14 15 22
  23299828.714      885979.40049    682730.70649  23299825.0324   23299832.2634
  23067644.736    -2213863.76549  -1709196.57849  23067644.3544   23067649.6614
  20479314.006     -933875.37349   -725878.07949  20479313.6124   20479317.8254
  21685289.266    -5765441.50649  -4479922.59449  21685286.4924   21685292.1634
  20721373.055    -1091815.35649   -846595.15749  20721375.7694   20721381.5434
  23153949.508    -3687561.63049  -2850795.36649  23153956.3064   23153963.5154
 95  1  5 18 35 29.9980000  0  6  1 29 25 14 15 22
  23301182.768      893072.05049    688257.40049  23301174.6704   23301181.7284
  23043405.654    -2341205.67449  -1808424.03149  23043410.3514   23043417.3214
  20474672.058     -958273.29849   -744889.45849  20474670.8024   20474675.0484
  21657779.615    -5910005.89149  -4592570.13749  21657776.5714   21657782.3274
  20716542.573    -1117260.63449   -866422.66949  20716533.8684   20716539.5834
  23124481.700    -3842504.79549  -2971530.23849  23124471.7764   23124478.2334
 95  1  5 18 35 59.9980000  0  6  1 29 25 14 15 22
  23302470.408      899826.74149    693520.73849  23302460.0854   23302468.5884
  23019127.870    -2468799.66649  -1907847.91349  23019131.4424   23019137.2884
  20470046.142     -982590.51349   -763837.94849  20470043.5984   20470047.7114
  21630236.095    -6054761.79449  -4705366.92849  21630230.6534   21630236.2104
  20711732.701    -1142494.36349   -886085.33649  20711731.8164   20711737.6634
  23094939.401    -3997716.35949  -3092474.26249  23094935.5104   23094943.5224
 95  1  5 18 36 29.9980000  0  6  1 29 25 14 15 22
  23303695.905      906277.66449    698547.39049  23303687.6534   23303695.0284
  22994807.831    -2596631.18649  -2007456.89449  22994804.7444   22994811.4384
  20465438.638    -1006797.26449   -782700.36149  20465436.9514   20465441.1424
  21602651.384    -6199695.48249  -4818302.26249  21602650.6654   21602656.1084
  20706977.890    -1167492.63949   -905564.53249  20706974.7684   20706980.8464
  23065348.842    -4153177.39849  -3213612.67049  23065352.1044   23065359.8294
 95  1  5 18 36 59.9980000  0  6  1 29 25 14 15 22
  23304864.175      912421.41749    703334.67249  23304857.8024   23304863.6774
  22970438.966    -2724680.71749  -2107235.76049  22970439.2564   22970444.9864
  20460857.004    -1030881.25649   -801467.11949  20460853.8444   20460858.2774
  21575041.753    -6344804.16049  -4931373.95249  21575037.4334   21575042.9674
  20702267.196    -1192248.81249   -924855.08149  20702264.1704   20702269.8254
  23035716.514    -4308893.79749  -3334950.04349  23035719.5944   23035726.7724
 95  1  5 18 37 29.9980000  0  6  1 29 25 14 15 22
  23305969.221      918252.14749    707878.02949  23305967.1164   23305973.8754
  22946033.488    -2852942.17249  -2207179.74549  22946032.3364   22946037.0924
  20456295.502    -1054839.68449   -820136.04249  20456294.7204   20456299.3204
  21547393.720    -6490083.57649  -5044578.68649  21547391.7754   21547397.2604
  20697600.346    -1216760.49049   -943955.11649  20697599.5744   20697605.4674
  23006050.024    -4464843.13249  -3456468.93349  23006043.4954   23006050.9604
 95  1  5 18 37 59.9980000  0  6  1 29 25 14 15 22
  23307012.482      923759.67449    712169.57449  23307013.1714   23307023.0834
  22921588.260    -2981419.26249  -2307291.75449  22921583.2734   22921588.6304
  20451766.607    -1078649.79949   -838689.39249  20451763.6864   20451768.4064
  21519718.553    -6635529.35749  -5157913.05349  21519714.2064   21519719.6244
  20692989.592    -1241022.28149   -962860.42949  20692982.5264   20692988.7564
  22976332.946    -4620996.55349  -3578146.79749  22976330.0384   22976336.2324
 95  1  5 18 38 29.9980000  0  6  1 29 25 14 15 22
  23308009.324      928946.77149    716211.40949  23308002.4914   23308010.6414
  22897101.955    -3110091.95149  -2407556.17949  22897098.4154   22897103.1624
  20447267.103    -1102288.28549   -857109.00749  20447265.4744   20447270.2004
  21492011.330    -6781116.43049  -5271357.52849  21492009.9414   21492015.2834
  20688425.125    -1265015.78849   -981556.68949  20688416.9624   20688422.9294
  22946586.862    -4777321.53149  -3699958.33249  22946580.8864   22946588.0674
 95  1  5 18 38 59.9980000  0  6  1 29 25 14 15 22
  23308941.633      933817.55749    720006.77749  23308930.9544   23308935.7674
  22872575.251    -3238951.74549  -2507966.40649  22872576.3334   22872581.0194
  20442800.995    -1125750.17349   -875391.01449  20442800.8534   20442805.6224
  21464284.631    -6926808.45049  -5384883.77749  21464285.7464   21464291.2264
  20683905.642    -1288734.58149  -1000038.89249  20683903.4754   20683909.4514
  22916807.896    -4933800.24049  -3821889.67549  22916805.0834   22916811.7044
 95  1  5 18 39 29.9980000  0  6  1 29 25 14 15 22
  23309799.723      938377.26349    723559.71349  23309797.2564   23309802.8414
  22848017.974    -3368009.36249  -2608530.76549  22848018.1334   22848022.7984
  20438372.758    -1149034.78649   -893534.88849  20438370.0004   20438374.7004
  21436547.594    -7072589.52349  -5498479.41849  21436544.5984   21436550.0944
  20679452.649    -1312177.98049  -1018306.50149  20679442.3354   20679448.2484
  22887005.528    -5090431.58949  -3943939.94049  22886998.5214   22887005.3904
 95  1  5 18 39 59.9980000  0  6  1 29 25 14 15 22
  23310604.572      942641.16149    726882.19149  23310606.4854   23310616.5604
  22823425.720    -3497254.36649  -2709241.15549  22823423.3354   22823428.8354
  20433974.077    -1172141.21449   -911539.91449  20433973.2004   20433977.5784
  21408789.808    -7218451.85449  -5612138.38149  21408787.7334   21408793.1384
  20675039.015    -1335341.09349  -1036355.69949  20675034.6744   20675040.6454
  22857162.679    -5247231.65449  -4066121.67449  22857160.7594   22857166.9214
 95  1  5 18 40 29.9980000  0  6  1 29 25 14 15 22
  23311363.741      946632.83349    729992.50749  23311367.8664   23311375.3304
  22798801.460    -3626670.56749  -2810084.94649  22798795.8944   22798801.2284
  20429606.951    -1195092.06349   -929423.73049  20429605.8824   20429610.2124
  21381014.781    -7364401.60049  -5725865.46549  21381014.7874   21381020.0974
  20670684.886    -1358229.04549  -1054190.50249  20670679.4404   20670685.3774
  22827297.195    -5404216.57749  -4188447.47049  22827287.2144   22827294.0664
 95  1  5 18 40 59.9980000  0  6  1 29 25 14 15 22
  23312085.660      950378.10749    732910.82049  23312080.3804   23312086.4244
  22774144.017    -3756231.63849  -2911041.61549  22774141.3664   22774147.2164
  20425269.940    -1217888.23049   -947187.00249  20425268.1494   20425272.3694
  21353231.224    -7510436.98149  -5839659.27049  21353225.3544   21353230.5114
  20666381.339    -1380840.39049  -1071809.75849  20666376.5844   20666382.6974
  22797385.817    -5561387.84249  -4310918.44549  22797378.7604   22797385.3064
 95  1  5 18 41 29.9980000  0  6  1 29 25 14 15 22
  23312746.973      953894.54149    735650.87749  23312749.7454   23312758.3434
  22749469.526    -3885907.68449  -3012087.86649  22749464.6034   22749470.0224
  20420962.125    -1240524.78549   -964825.89449  20420960.0664   20420964.4394
  21325418.562    -7656560.73949  -5953521.92849  21325418.4824   21325423.6984
  20662134.971    -1403165.64449  -1089206.08349  20662128.0634   20662134.3114
  22767439.697    -5718721.11849  -4433515.65749  22767438.8344   22767446.3054
 95  1  5 18 41 59.9980000  0  6  1 29 25 14 15 22
  23313382.917      957212.25749    738236.02949  23313381.8104   23313386.4104
  22724767.706    -4015676.60249  -3113206.50849  22724771.2414   22724775.9874
  20416687.054    -1262980.40149   -982323.79449  20416686.8434   20416691.7374
  21297603.220    -7802751.28649  -6067436.63749  21297599.4384   21297604.8234
  20657938.274    -1425188.02249  -1106366.40749  20657937.5314   20657943.5224
  22737473.179    -5876179.58549  -4556210.44449  22737475.3154   22737482.3184
 95  1  5 18 42 29.9980000  0  6  1 29 25 14 15 22
  23313984.236      960350.72649    740681.54149  23313979.6524   23313986.2804
  22700056.672    -4145537.29449  -3214396.62649  22700058.7904   22700064.7744
  20412456.852    -1285223.10949   -999655.80049  20412454.3774   20412458.9614
  21269772.448    -7948983.05649  -6181383.46949  21269772.5984   21269777.9524
  20653813.983    -1446889.75149  -1123276.87349  20653807.6164   20653813.8724
  22707495.144    -6033732.33549  -4678978.71249  22707493.8234   22707501.3484
 95  1  5 18 42 59.9980000  0  6  1 29 25 14 15 22
  23314545.154      963315.41749    742991.63549  23314542.8274   23314551.4594
  22675331.119    -4275504.33649  -3315669.63849  22675327.8904   22675333.0614
  20408263.792    -1307229.01649  -1016803.28349  20408266.8514   20408271.4474
  21241944.105    -8095229.52549  -6295341.75449  21241942.7304   21241948.1674
  20649751.017    -1468255.37149  -1139925.43549  20649741.9974   20649748.1714
  22677505.755    -6191352.08949  -4801799.21849  22677499.7654   22677506.6044
 95  1  5 18 43 29.9980000  0  6  1 29 25 14 15 22
  23315074.174      966095.84149    745158.12349  23315072.3944   23315078.6724
  22650579.367    -4405600.40349  -3417043.18749  22650570.4494   22650576.3604
  20404125.723    -1328984.09049  -1033755.30149  20404126.9164   20404131.5084
  21214114.380    -8241484.04949  -6409306.31149  21214111.2784   21214116.9014
  20645748.615    -1489275.99849  -1156305.16649  20645741.6914   20645747.9084
  22647500.921    -6349014.94549  -4924653.29949  22647497.1474   22647505.1694
 95  1  5 18 43 59.9980000  0  6  1 29 25 14 15 22
  23315559.991      968682.07749    747173.30649  23315563.9904   23315572.8754
  22625785.193    -4535845.32649  -3518532.70349  22625784.7664   22625790.8234
  20400038.775    -1350484.14849  -1050508.61749  20400035.6734   20400040.5404
  21186282.595    -8387745.11649  -6523275.96949  21186278.8384   21186284.4184
  20641813.418    -1509949.85949  -1172414.69949  20641808.0534   20641813.9224
  22617501.665    -6506725.05749  -5047544.22849  22617485.4984   22617493.2934
 95  1  5 18 44 29.9970000  0  6  1 29 25 14 15 22
  23316018.283      971059.62549    749025.88349  23316016.7294   23316023.7984
  22600971.692    -4666235.07949  -3620135.09049  22600973.0274   22600979.5184
  20395991.329    -1371743.18049  -1067074.11749  20395990.4754   20395995.2224
  21158450.114    -8534008.72149  -6637247.60149  21158445.7524   21158451.5124
  20637939.065    -1530276.80649  -1188253.90749  20637940.1304   20637945.8464
  22587468.030    -6664473.50249  -5170465.02549  22587466.8674   22587474.5654
 95  1  5 18 44 59.9970000  0  6  1 29 25 14 15 22
  23316431.146      973216.34949    750706.37249  23316427.2604   23316435.2684
  22576138.070    -4796758.51649  -3721841.63749  22576135.0354   22576140.9914
  20391993.702    -1392774.11249  -1083461.87549  20391988.4334   20391993.1114
  21130608.768    -8680283.72349  -6751228.11649  21130610.5294   21130616.1234
  20634143.754    -1550256.72649  -1203822.70449  20634137.9634   20634143.8214
  22557444.622    -6822256.32949  -5293412.61249  22557442.3064   22557449.0624
 95  1  5 18 45 29.9970000  0  6  1 29 25 14 15 22
  23316794.289      975166.59149    752226.02449  23316798.2114   23316806.0514
  22551275.852    -4927373.38949  -3823619.44749  22551280.1674   22551285.5984
  20388033.584    -1413568.37349  -1099665.22149  20388031.4214   20388036.0594
  21102774.522    -8826562.47149  -6865211.53949  21102774.5614   21102780.3234
  20630409.648    -1569879.75149  -1219113.41449  20630403.9554   20630409.9364
  22527410.764    -6980071.34949  -5416385.29349  22527410.8754   22527418.3654
 95  1  5 18 45 59.9970000  0  6  1 29 25 14 15 22
  23317141.450      976934.87749    753603.81949  23317135.1334   23317143.3694
  22526410.505    -5058055.71749  -3925449.80349  22526410.8384   22526417.6984
  20384121.477    -1434132.19949  -1115688.99949  20384118.3234   20384122.8784
  21074939.215    -8972828.17449  -6979184.80549  21074941.3744   21074946.7714
  20626741.560    -1589146.56749  -1234126.54549  20626737.7054   20626743.9434
  22497378.989    -7137930.56049  -5539392.40749  22497371.4414   22497378.4704
 95  1  5 18 46 29.9970000  0  6  1 29 25 14 15 22
  23317448.518      978530.02949    754846.75749  23317438.4544   23317446.2924
  22501533.211    -5188790.19149  -4027320.79949  22501533.8954   22501540.2554
  20380250.446    -1454462.22449  -1131530.59649  20380249.5814   20380254.0914
  21047116.201    -9119069.11049  -7093138.77749  21047112.7164   21047118.1654
  20623140.136    -1608061.59649  -1248865.55849  20623138.0554   20623144.4784
  22467321.386    -7295832.53049  -5662432.85149  22467324.3704   22467330.4514
 95  1  5 18 46 59.9970000  0  6  1 29 25 14 15 22
  23317717.576      979974.24649    755972.03249  23317713.9434   23317719.6424
  22476646.868    -5319573.82749  -4129230.09249  22476646.5374   22476652.8624
  20376429.038    -1474543.19349  -1147178.12249  20376428.3224   20376432.7244
  21019293.766    -9265272.99049  -7207063.87849  21019290.8584   21019296.3694
  20619606.865    -1626621.50949  -1263327.85349  20619606.3564   20619612.4704
  22437270.156    -7453776.34749  -5785505.91749  22437268.4594   22437274.5684
 95  1  5 18 47 29.9970000  0  6  1 29 25 14 15 22
  23317969.480      981292.65949    756999.30249  23317963.4144   23317973.1054
  22451756.477    -5450391.52649  -4231165.94749  22451753.0704   22451758.6884
  20372658.080    -1494363.25449  -1162622.34049  20372656.7084   20372661.1214
  20991480.862    -9411416.86049  -7320942.21349  20991480.6464   20991486.1634
  20616141.784    -1644819.31549  -1277507.98549  20616143.1904   20616149.2794
  22407203.289    -7611754.16349  -5908605.47149  22407206.2224   22407213.0084
 95  1  5 18 47 59.9970000  0  6  1 29 25 14 15 22
  23318192.178      982487.86549    757930.57649  23318191.3694   23318199.5764
  22426855.556    -5581250.92249  -4333134.28949  22426849.8834   22426857.1104
  20368935.231    -1513917.88449  -1177859.73549  20368935.7794   20368940.0604
  20963689.008    -9557471.29749  -7434750.86249  20963687.3864   20963692.9514
  20612750.788    -1662646.96549  -1291399.69049  20612750.8194   20612757.1394
  22377148.445    -7769733.70349  -6031706.37449  22377143.5564   22377150.1624
 95  1  5 18 48 29.9970000  0  6  1 29 25 14 15 22
  23318391.062      983538.53549    758749.20149  23318391.6124   23318399.1594
  22401940.405    -5712157.84749  -4435139.67049  22401940.4594   22401946.4294
  20365265.931    -1533207.73949  -1192890.80649  20365264.9864   20365269.3674
  20935909.746    -9703437.99049  -7548491.13549  20935910.7254   20935916.3714
  20609434.608    -1680103.78349  -1305002.42749  20609429.0564   20609435.0724
  22347087.337    -7927702.35749  -6154798.78349  22347082.9844   22347089.7854
 95  1  5 18 48 59.9970000  0  6  1 29 25 14 15 22
  23318568.588      984440.24649    759451.78549  23318563.6574   23318571.8164
  22377024.637    -5843112.25749  -4537182.05649  22377021.5514   22377026.2474
  20361642.221    -1552247.36249  -1207726.89649  20361642.0924   20361646.3284
  20908152.452    -9849320.98349  -7662166.19049  20908150.0984   20908155.9044
  20606177.114    -1697188.34549  -1318315.10649  20606178.1434   20606183.7994
  22317022.407    -8085653.78049  -6277877.76449  22317025.8374   22317032.5114
 95  1  5 18 49 29.9970000  0  6  1 29 25 14 15 22
  23318712.596      985184.24049    760031.43149  23318705.0354   23318713.3924
  22352098.207    -5974098.21149  -4639249.03549  22352094.9684   22352101.2204
  20358064.401    -1571035.05449  -1222366.68149  20358066.7504   20358071.3504
  20880409.597    -9995112.47549  -7775769.94649  20880407.1954   20880412.8034
  20603000.498    -1713894.99949  -1331333.30649  20602998.8674   20603004.9274
  22286976.037    -8243566.10849  -6400926.28149  22286976.3584   22286982.9264
 95  1  5 18 49 59.9970000  0  6  1 29 25 14 15 22
  23318818.942      985779.64549    760495.33749  23318817.9424   23318827.5594
  22327167.362    -6105125.83949  -4741348.47649  22327160.9544   22327166.9704
  20354542.557    -1589561.78549  -1236803.12049  20354541.3464   20354545.6814
  20852683.321   -10140809.67949  -7889300.22549  20852681.6574   20852687.3734
  20599884.887    -1730219.55449  -1344053.76449  20599892.4534   20599898.4504
  22256933.775    -8401413.97249  -6523924.57149  22256938.5474   22256945.3894
 95  1  5 18 50 29.9970000  0  6  1 29 25 14 15 22
  23318904.756      986238.66249    760852.94349  23318905.7554   23318915.2974
  22302229.342    -6236178.51949  -4843467.45249  22302222.4044   22302228.3134
  20351065.547    -1607823.82549  -1251033.30049  20351066.1144   20351070.6504
  20824976.596   -10286420.71949  -8002763.35849  20824973.0054   20824978.5064
  20596855.412    -1746159.69849  -1356474.68449  20596859.1214   20596865.2214
  22226924.594    -8559177.97049  -6646857.49149  22226917.0914   22226923.7454
 95  1  5 18 50 59.9970000  0  6  1 29 25 14 15 22
  23318972.196      986577.06949    761116.56949  23318970.5854   23318978.6894
  22277284.230    -6367262.14049  -4945610.53849  22277278.4724   22277283.9824
  20347643.172    -1625811.44549  -1265049.65849  20347643.1874   20347647.6224
  20797280.459   -10431945.49949  -8116159.28449  20797280.5514   20797285.9674
  20593896.361    -1761715.43849  -1368596.06649  20593898.8744   20593905.0424
  22196914.309    -8716842.47449  -6769712.90049  22196914.4224   22196920.9174
 95  1  5 18 51 29.9970000  0  6  1 29 25 14 15 22
  23319017.903      986810.91849    761298.72049  23319013.7834   23319022.7734
  22252328.656    -6498374.17749  -5047775.76849  22252328.6284   22252334.3184
  20344277.664    -1643501.30049  -1278833.98649  20344277.1334   20344281.5294
  20769605.305   -10577371.59849  -8229478.30649  20769606.6524   20769612.3604
  20591015.368    -1776880.18049  -1380412.77349  20591013.1774   20591019.4764
  22166936.021    -8874392.11549  -6892478.79349  22166933.9544   22166940.2074
 95  1  5 18 51 59.9970000  0  6  1 29 25 14 15 22
  23319046.931      986959.69749    761414.58649  23319043.0704   23319051.2354
  22227370.520    -6629502.93249  -5149954.01449  22227375.2754   22227380.9644
  20340969.511    -1660890.53349  -1292384.06249  20340967.9344   20340972.4014
  20741951.718   -10722694.69249  -8342717.07949  20741952.7744   20741958.4724
  20588207.257    -1791645.56249  -1391918.29549  20588203.5814   20588209.8134
  22136974.457    -9031831.87049  -7015159.06749  22136974.4254   22136980.7864
 95  1  5 18 52 29.9970000  0  6  1 29 25 14 15 22
  23319060.978      987021.85549    761462.97149  23319055.3354   23319063.1964
  22202417.875    -6760624.97449  -5252127.03949  22202423.4894   22202429.3224
  20337714.528    -1677986.52049  -1305705.63949  20337714.6634   20337719.1584
  20714317.746   -10867913.06549  -8455874.24849  20714318.6514   20714324.2104
  20585464.701    -1806004.45649  -1403107.07349  20585471.2494   20585477.4044
  22107032.167    -9189176.64749  -7137765.33149  22107032.4424   22107038.8364
 95  1  5 18 52 59.9970000  0  6  1 29 25 14 15 22
  23319063.339      987004.08549    761449.06649  23319051.8764   23319061.0754
  22177470.580    -6891730.65149  -5354287.29149  22177474.9474   22177481.3784
  20334518.599    -1694782.06949  -1318793.10649  20334518.4534   20334523.0204
  20686709.149   -11013012.19549  -8568938.49949  20686707.1774   20686713.0194
  20582826.432    -1819954.05649  -1413976.91549  20582817.0324   20582822.9234
  22077105.271    -9346444.56549  -7260311.70549  22077105.3784   22077111.6704
 95  1  5 18 53 29.9970000  0  6  1 29 25 14 15 22
  23319030.229      986913.43449    761378.38049  23319033.9084   23319042.5434
  22152536.999    -7022797.89449  -5456417.59949  22152534.2034   22152539.7224
  20331380.774    -1711288.18249  -1331655.03849  20331377.6964   20331382.0844
  20659120.657   -11157974.93449  -8681896.46949  20659121.4664   20659127.1474
  20580243.111    -1833496.98549  -1424529.87749  20580239.8364   20580245.6824
  22047185.352    -9503646.42949  -7382806.60449  22047190.6104   22047197.1714
 95  1  5 18 53 59.9970000  0  6  1 29 25 14 15 22
  23318996.915      986747.32049    761248.84549  23319003.1304   23319010.2344
  22127599.360    -7153836.18649  -5558525.34549  22127599.1014   22127604.0124
  20328296.104    -1727518.58449  -1344302.13049  20328289.1664   20328293.5544
  20631565.293   -11302794.10649  -8794742.57749  20631563.4674   20631569.1694
  20577738.055    -1846639.64649  -1434770.94449  20577738.8584   20577744.6414
  22017293.218    -9660781.87349  -7505249.73649  22017288.6564   22017295.1794
 95  1  5 18 54 29.9970000  0  6  1 29 25 14 15 22
  23318965.627      986515.96149    761068.56849  23318958.0324   23318968.1784
  22102666.178    -7284848.17749  -5660612.59949  22102668.5244   22102673.4694
  20325257.345    -1743458.08549  -1356722.54349  20325255.9474   20325260.3014
  20604040.180   -11447449.57349  -8907461.11749  20604036.4364   20604042.1914
  20575319.540    -1859375.34049  -1444694.88749  20575314.9394   20575321.1254
  21987409.688    -9817827.77649  -7627623.10749  21987404.3054   21987410.1034
 95  1  5 18 54 59.9970000  0  6  1 29 25 14 15 22
  23318904.060      986227.74849    760843.89749  23318904.4534   23318910.6434
  22077738.642    -7415858.59649  -5762698.63249  22077738.4064   22077742.7104
  20322286.791    -1759078.32549  -1368894.18149  20322283.6014   20322287.9994
  20576545.303   -11591926.61449  -9020040.62749  20576543.3944   20576548.8794
  20572969.655    -1871707.25949  -1454304.20849  20572968.3864   20572974.4294
  21957534.927    -9974765.09449  -7749911.87049  21957539.3764   21957545.8194
 95  1  5 18 55 29.9960000  0  6  1 29 25 14 15 22
  23318846.269      985881.33849    760573.90449  23318838.1374   23318847.9354
  22052808.026    -7546864.77649  -5864781.36249  22052809.1344   22052813.3704
  20319375.831    -1774370.29349  -1380810.02649  20319373.6574   20319378.2684
  20549089.375   -11736198.78949  -9132460.50549  20549089.3324   20549094.7304
  20570702.455    -1883626.02749  -1463591.59349  20570700.5704   20570706.3004
  21927697.360   -10131555.15649  -7872085.87649  21927703.3024   21927709.7694
 95  1  5 18 55 59.9960000  0  6  1 29 25 14 15 22
  23318747.732      985463.66249    760248.40249  23318757.2404   23318767.0354
  22027877.120    -7677897.67249  -5966884.90249  22027874.3434   22027878.8124
  20316530.543    -1789332.28249  -1392468.74349  20316526.4824   20316531.0004
  20521672.639   -11880291.38949  -9244740.45649  20521669.2464   20521674.7744
  20568505.874    -1895137.28749  -1472561.44049  20568509.9564   20568515.8294
  21897891.178   -10288199.06249  -7994146.00649  21897894.7894   21897900.9924
 95  1  5 18 56 29.9960000  0  6  1 29 25 14 15 22
  23318677.819      984985.91249    759876.06949  23318669.0964   23318675.7614
  22002936.073    -7808933.63649  -6068990.81949  22002938.0884   22002943.3394
  20313747.043    -1803941.18149  -1403852.32349  20313746.4884   20313751.2014
  20494289.671   -12024189.90649  -9356869.17049  20494286.2584   20494291.6914
  20566400.060    -1906230.28049  -1481205.36249  20566399.2534   20566405.2484
  21868122.042   -10444677.00349  -8116076.81949  21868117.4214   21868124.1504
 95  1  5 18 56 59.9960000  0  6  1 29 25 14 15 22
  23318557.034      984444.95949    759454.45449  23318564.9624   23318573.6754
  21978016.119    -7939955.36749  -6171085.65849  21978005.9144   21978010.8394
  20311033.676    -1818207.11649  -1414968.66149  20311031.7584   20311036.4464
  20466941.372   -12167895.41349  -9468847.48649  20466940.2424   20466945.7454
  20564361.729    -1916905.97749  -1489524.11349  20564367.6194   20564373.9244
  21838373.717   -10600977.77549  -8237869.57249  21838375.0174   21838381.5304
 95  1  5 18 57 29.9960000  0  6  1 29 25 14 15 22
  23318449.324      983840.48349    758983.37549  23318451.0844   23318456.8114
  21953080.442    -8070939.27249  -6273151.03249  21953080.1344   21953085.6074
  20308378.777    -1832167.71249  -1425847.07349  20308375.0014   20308379.8704
  20439631.092   -12311414.21149  -9580680.31549  20439629.4414   20439634.9614
  20562413.488    -1927165.96249  -1497518.93249  20562415.2264   20562421.3414
  21808670.152   -10757096.12449  -8359520.17949  21808666.2804   21808672.9824
 95  1  5 18 57 59.9960000  0  6  1 29 25 14 15 22
  23318329.691      983175.37849    758465.04149  23318322.9944   23318330.2184
  21928165.975    -8201876.65249  -6375180.12349  21928163.2424   21928168.9024
  20305775.536    -1845829.76249  -1436492.85049  20305775.2584   20305779.9644
  20412351.693   -12454759.69249  -9692378.08449  20412351.9044   20412357.4974
  20560546.038    -1937013.62649  -1505192.46249  20560541.4434   20560547.3544
  21778993.307   -10913038.39349  -8481033.58049  21778991.6594   21778997.9594
 95  1  5 18 58 29.9960000  0  6  1 29 25 14 15 22
  23318186.371      982444.49949    757895.47549  23318185.2414   23318192.6174
  21903259.390    -8332749.37749  -6477158.84649  21903259.4064   21903264.5354
  20303230.431    -1859209.18449  -1446918.39949  20303229.1934   20303234.0324
  20385107.618   -12597925.55749  -9803935.89849  20385107.9824   20385113.6914
  20558749.268    -1946452.21649  -1512547.23249  20558745.2494   20558751.3034
  21749348.391   -11068802.63349  -8602408.24949  21749350.7794   21749357.0754
 95  1  5 18 58 59.9960000  0  6  1 29 25 14 15 22
  23318036.657      981638.53449    757267.33149  23318033.2544   23318038.7534
  21878368.602    -8463554.24649  -6579084.70949  21878367.4994   21878373.1404
  20300735.398    -1872332.64749  -1457144.49949  20300732.1034   20300736.9234
  20357901.787   -12740907.23449  -9915350.18549  20357899.6354   20357905.3464
  20557026.745    -1955491.70049  -1519591.01649  20557024.9684   20557031.2494
  21719750.653   -11224397.19049  -8723650.70049  21719742.9094   21719748.5774
 95  1  5 18 59 29.9960000  0  6  1 29 25 14 15 22
  23317878.080      980792.15749    756607.77549  23317870.7634   23317877.8634
  21853492.629    -8594264.53249  -6680936.84949  21853493.9574   21853500.2724
  20298294.191    -1885167.20749  -1467145.48149  20298289.7944   20298294.5654
  20330739.026   -12883653.83249 -10026581.29449  20330735.9804   20330741.5604
  20555386.876    -1964104.45049  -1526302.28349  20555386.0674   20555392.1794
  21690172.984   -11379801.83749  -8844745.16949  21690169.8944   21690175.9374
 95  1  5 18 59 59.9960000  0  6  1 29 25 14 15 22
  23317698.876      979866.53649    755886.45849  23317694.8584   23317703.0014
  21828627.704    -8724937.58049  -6782760.01349  21828627.9284   21828633.6184
  20295897.488    -1897733.04949  -1476937.07349  20295898.7484   20295903.2464
  20303612.568   -13026194.28049 -10137651.76649  20303611.3904   20303616.7054
  20553823.548    -1972333.31649  -1532714.41449  20553820.1944   20553826.2744
  21660620.383   -11535068.53349  -8965732.15449  21660624.0324   21660629.8764
 95  1  5 19  0 29.9960000  0  6  1 29 25 14 15 22
  23317507.665      978911.75949    755142.39549  23317511.9844   23317520.5734
  21803767.985    -8855551.68649  -6884537.20349  21803772.9074   21803778.1174
  20293568.015    -1909984.81749  -1486483.92649  20293567.3184   20293571.8164
  20276536.527   -13168491.16149 -10248532.44849  20276533.4674   20276538.6754
  20552333.277    -1980149.30649  -1538804.83849  20552333.1034   20552339.0054
  21631111.566   -11690155.28549  -9086578.92749  21631111.4604   21631117.5044
 95  1  5 19  0 59.9960000  0  6  1 29 25 14 15 22
  23317325.329      977911.94749    754363.28349  23317322.3294   23317329.0724
  21778922.679    -8986145.07849  -6986298.27449  21778922.0584   21778926.7024
  20291296.284    -1921933.02249  -1495794.23849  20291293.5994   20291298.1844
  20249499.505   -13310560.57249 -10359235.87749  20249498.3564   20249503.5534
  20550922.756    -1987579.47849  -1544594.61849  20550919.1144   20550925.1354
  21601635.600   -11845076.99649  -9207297.10649  21601630.7804   21601637.0594
 95  1  5 19  1 29.9960000  0  6  1 29 25 14 15 22
  23317130.622      976890.03649    753566.97049  23317127.0984   23317136.2944
  21754079.869    -9116714.08649  -7088040.33549  21754076.1164   21754080.4134
  20289088.293    -1933537.13349  -1504836.41849  20289085.5534   20289090.0754
  20222511.330   -13452387.52849 -10469750.38049  20222509.5544   20222514.9404
  20549583.468    -1994602.86549  -1550067.42349  20549582.4104   20549589.0574
  21572191.511   -11999795.37549  -9327856.85349  21572188.9654   21572195.1554
 95  1  5 19  1 59.9960000  0  6  1 29 25 14 15 22
  23316927.994      975836.55749    752745.97549  23316927.2324   23316935.0174
  21729229.087    -9247267.15449  -7189769.97649  21729231.7314   21729236.9874
  20286946.454    -1944797.88749  -1513611.04749  20286942.4064   20286947.1934
  20195562.277   -13593993.31349 -10580092.53649  20195562.9164   20195568.2964
  20548323.194    -2001223.12949  -1555226.10949  20548322.8264   20548328.9994
  21542792.282   -12154290.56049  -9448242.67949  21542788.9694   21542795.5534
 95  1  5 19  2 29.9960000  0  6  1 29 25 14 15 22
  23316724.635      974734.88349    751887.51649  23316717.2184   23316727.1204
  21704398.733    -9377787.94949  -7291474.47949  21704394.4934   21704400.2564
  20284861.832    -1955734.05849  -1522132.76849  20284861.2194   20284866.2834
  20168660.031   -13735385.41949 -10690268.19149  20168656.8934   20168662.3274
  20547142.101    -2007449.35349  -1560077.75449  20547138.1854   20547144.2614
  21513431.987   -12308544.99149  -9568440.90949  21513434.9944   21513441.8404
 95  1  5 19  2 59.9960000  0  6  1 29 25 14 15 22
  23316499.275      973565.20149    750975.96549  23316496.4894   23316502.6694
  21679558.510    -9508275.48549  -7393153.07349  21679563.9434   21679569.1844
  20282839.758    -1966365.12049  -1530416.74049  20282838.2274   20282843.2424
  20141790.600   -13876559.18149 -10800273.70949  20141792.3854   20141797.8804
  20546032.110    -2013287.26349  -1564626.81649  20546027.2914   20546033.5444
  21484136.097   -12462568.23649  -9688458.99249  21484125.6304   21484132.0584
 95  1  5 19  3 29.9960000  0  6  1 29 25 14 15 22
  23316262.950      972339.36049    750020.77449  23316262.2384   23316270.5294
  21654741.478    -9638710.02249  -7494790.36849  21654742.9104   21654748.0484
  20280874.514    -1976695.27849  -1538466.24249  20280872.7994   20280877.4424
  20114968.512   -14017513.12849 -10910107.94149  20114969.6104   20114975.2414
  20544996.494    -2018725.78149  -1568864.67249  20544992.3454   20544998.6584
  21454861.502   -12616358.33649  -9808295.40649  21454859.7964   21454866.8244
 95  1  5 19  3 59.9960000  0  6  1 29 25 14 15 22
  23316032.126      971119.39249    749070.04149  23316030.6344   23316038.0824
  21629946.050    -9769020.72549  -7596331.15849  21629945.6694   21629951.2574
  20278969.389    -1986682.59849  -1546248.59049  20278972.0724   20278977.0584
  20088200.913   -14158191.90049 -11019727.74149  20088199.5024   20088205.1154
  20544053.589    -2023708.55949  -1572747.40149  20544044.2164   20544050.1424
  21425646.123   -12769862.16849  -9927908.76349  21425648.9654   21425656.1274
 95  1  5 19  4 29.9960000  0  6  1 29 25 14 15 22
  23315784.316      969854.27049    748084.19149  23315788.8254   23315795.3284
  21605162.842    -9899269.99149  -7697824.06949  21605160.0794   21605165.4524
  20277123.885    -1996387.39649  -1553810.79549  20277125.5664   20277130.3334
  20061470.400   -14298651.19049 -11129176.51349  20061470.5904   20061476.3994
  20543168.875    -2028302.83649  -1576327.40649  20543169.6794   20543176.1504
  21396477.416   -12923153.84349 -10047356.80349  21396478.5474   21396485.7794
 95  1  5 19  4 59.9960000  0  6  1 29 25 14 15 22
  23315540.413      968549.29049    747067.24649  23315541.6164   23315550.2164
  21580376.187   -10029488.38449  -7799292.93249  21580380.5174   21580385.7034
  20275328.854    -2005822.40749  -1561162.78049  20275330.3954   20275334.9764
  20034781.524   -14438902.61749 -11238463.32649  20034781.5764   20034787.3694
  20542368.622    -2032519.72549  -1579613.33949  20542367.2414   20542373.7524
  21367349.569   -13076253.11249 -10166654.92049  21367344.8874   21367351.4634
 95  1  5 19  5 29.9960000  0  6  1 29 25 14 15 22
  23315289.496      967217.69549    746029.58849  23315287.4904   23315295.0764
  21555612.666   -10159661.79149  -7900726.74149  21555609.5974   21555614.8094
  20273588.155    -2014980.58649  -1568299.05349  20273587.5544   20273592.1184
  20008136.682   -14578926.89049 -11347573.14149  20008136.0604   20008141.7264
  20541644.024    -2036351.24449  -1582598.98849  20541638.4184   20541644.7364
  21338253.381   -13229140.95949 -10285788.29249  21338251.6194   21338257.9394
 95  1  5 19  5 59.9960000  0  6  1 29 25 14 15 22
  23315031.483      965848.75549    744962.84349  23315028.1124   23315036.4004
  21530843.832   -10289801.21549  -8002134.08449  21530844.6114   21530849.9484
  20271900.095    -2023850.71549  -1575210.87049  20271899.6264   20271904.3444
  19981538.260   -14718707.24749 -11456492.89949  19981536.9174   19981542.4054
  20540987.421    -2039806.28049  -1585291.28149  20540981.1244   20540987.2544
  21309198.814   -13381808.86849 -10404750.27849  21309199.8984   21309206.2114
 95  1  5 19  6 29.9950000  0  6  1 29 25 14 15 22
  23314761.949      964459.28049    743880.02349  23314762.6394   23314771.0764
  21506093.828   -10419883.79849  -8103497.11749  21506090.9024   21506095.7714
  20270269.902    -2032410.64949  -1581880.97849  20270270.6834   20270275.2974
  19954992.399   -14858199.55749 -11565188.19649  19954992.1804   19954997.8024
  20540401.162    -2042864.23549  -1587674.15349  20540399.3594   20540405.4814
  21280198.072   -13534225.21349 -10523516.25249  21280196.0134   21280202.0554
 95  1  5 19  6 59.9950000  0  6  1 29 25 14 15 22
  23314489.427      963012.04549    742752.29249  23314486.0184   23314496.7774
  21481345.947   -10549929.97749  -8204831.79449  21481342.9984   21481348.7664
  20268695.435    -2040686.68449  -1588329.85749  20268695.6844   20268700.4134
  19928502.794   -14997415.35049 -11673668.01249  19928500.4724   19928506.1564
  20539886.677    -2045542.70449  -1589761.31949  20539889.5284   20539895.9194
  21251238.578   -13686410.02349 -10642101.80549  21251236.4744   21251242.1964
 95  1  5 19  7 29.9950000  0  6  1 29 25 14 15 22
  23314198.524      961495.80349    741570.70549  23314198.5214   23314209.3244
  21456607.132   -10679932.73749  -8306132.64049  21456604.6624   21456609.9784
  20267176.802    -2048672.90949  -1594552.91749  20267176.0064   20267180.7504
  19902066.453   -15136337.73149 -11781919.22449  19902064.2874   19902070.0314
  20539445.132    -2047845.03049  -1591555.39049  20539451.5534   20539457.8494
  21222329.096   -13838346.11149 -10760493.54149  21222323.8484   21222329.3904
 95  1  5 19  7 59.9950000  0  6  1 29 25 14 15 22
  23313900.044      959926.02649    740347.49549  23313899.3154   23313908.5774
  21431884.515   -10809883.92349  -8407393.29449  21431875.7904   21431880.8804
  20265715.643    -2056360.64549  -1600543.38649  20265713.2624   20265717.6534
  19875685.337   -15274966.26149 -11889941.45349  19875684.2914   19875689.8444
  20539083.800    -2049761.66649  -1593048.92149  20539086.8224   20539093.3114
  21193469.844   -13990009.97649 -10878673.15549  21193463.1494   21193469.0444
 95  1  5 19  8 29.9950000  0  6  1 29 25 14 15 22
  23313593.894      958318.59049    739094.89949  23313593.4194   23313602.3814
  21407152.561   -10939772.70549  -8508605.31449  21407158.6174   21407163.7824
  20264304.028    -2063764.94049  -1606312.99149  20264304.2304   20264308.8874
  19849361.256   -15413307.16349 -11997739.56049  19849358.8124   19849364.3664
  20538789.203    -2051291.60849  -1594241.14049  20538795.7544   20538801.9674
  21164661.180   -14141394.66849 -10996635.23149  21164655.4694   21164661.6794
 95  1  5 19  8 59.9950000  0  6  1 29 25 14 15 22
  23313293.603      956683.15149    737820.47549  23313281.8494   23313293.1634
  21382457.883   -11069589.69349  -8609761.40149  21382455.1404   21382460.7434
  20262951.737    -2070886.88949  -1611862.58349  20262949.0304   20262953.7474
  19823085.816   -15551368.83149 -12105320.09649  19823086.8984   19823092.2154
  20538572.488    -2052440.71749  -1595136.61549  20538577.3214   20538583.3714
  21135901.523   -14292496.34349 -11114376.78149  21135901.7874   21135908.2584
 95  1  5 19  9 29.9950000  0  6  1 29 25 14 15 22
  23312967.740      955041.59449    736541.30949  23312971.9894   23312979.8184
  21357769.769   -11199324.93249  -8710853.76249  21357767.8534   21357773.0124
  20261644.823    -2077722.54649  -1617189.09149  20261648.2484   20261652.9974
  19796865.655   -15689160.42549 -12212690.16449  19796865.9554   19796871.2784
  20538429.340    -2053207.53549  -1595734.18349  20538431.3064   20538437.7774
  21107202.159   -14443309.87549 -11231893.80349  21107202.6714   21107209.6004
 95  1  5 19  9 59.9950000  0  6  1 29 25 14 15 22
  23312648.109      953376.35249    735243.68649  23312651.9314   23312663.8004
  21333089.015   -11329001.49949  -8811900.41349  21333091.6244   21333096.8024
  20260399.174    -2084297.29749  -1622312.29449  20260396.9644   20260401.7274
  19770690.490   -15826719.52949 -12319879.07549  19770689.2464   19770694.7694
  20538354.221    -2053621.76449  -1596057.00249  20538352.2704   20538359.0514
  21078553.526   -14593872.17049 -11349215.05849  21078551.8384   21078558.4904
 95  1  5 19 10 29.9950000  0  6  1 29 25 14 15 22
  23312347.177      951736.82549    733966.07449  23312342.8464   23312350.1984
  21308437.362   -11458561.56849  -8912856.29549  21308436.7244   21308441.7214
  20259207.279    -2090553.42049  -1627187.21649  20259206.6854   20259211.3884
  19744567.196   -15963995.82249 -12426847.61549  19744566.3094   19744571.7964
  20538351.705    -2053641.65649  -1596072.54649  20538348.6584   20538355.2334
  21049960.827   -14744150.16449 -11466314.76549  21049954.8944   21049961.7724
 95  1  5 19 10 59.9950000  0  6  1 29 25 14 15 22
  23312016.467      950059.00749    732658.62849  23312023.0224   23312032.5634
  21283789.968   -11588062.49649  -9013766.09049  21283793.5594   21283798.6734
  20258068.950    -2096535.58449  -1631848.66749  20258068.2664   20258072.9584
  19718491.496   -16101026.76449 -12533624.97849  19718490.3004   19718495.8404
  20538407.197    -2053318.72149  -1595820.96049  20538410.3584   20538416.7064
  21021403.574   -14894195.91449 -11583233.50849  21021402.5594   21021409.2464
 95  1  5 19 11 29.9950000  0  6  1 29 25 14 15 22
  23311701.829      948357.82349    731332.92949  23311699.2884   23311706.7974
  21259163.439   -11717493.66649  -9114621.52549  21259163.6774   21259168.7644
  20256987.093    -2102221.87049  -1636279.56249  20256986.3824   20256990.8754
  19692467.542   -16237785.81349 -12640190.47749  19692465.8214   19692471.3994
  20538544.557    -2052629.06549  -1595283.61949  20538541.5304   20538547.8614
  20992899.268   -15043979.39149 -11699947.88149  20992899.4584   20992906.2524
 95  1  5 19 11 59.9950000  0  6  1 29 25 14 15 22
  23311380.618      946646.50159    729999.46859  23311372.5064   23311384.0554
  21234544.626   -11846851.49249  -9215419.81449  21234546.9854   21234552.6694
  20255961.387    -2107599.22749  -1640469.73249  20255963.1034   20255967.6354
  19666498.479   -16374250.55249 -12746526.64149  19666497.4244   19666503.0774
  20538749.718    -2051563.96849  -1594453.72949  20538744.2364   20538750.7264
  20964457.462   -15193472.43149 -11816435.93549  20964452.2024   20964458.4954
 95  1  5 19 12 29.9950000  0  6  1 29 25 14 15 22
  23311038.867      944886.77149    728628.10849  23311039.3904   23311047.8824
  21209940.005   -11976167.83249  -9316185.77749  21209938.7864   21209944.4214
  20254991.752    -2112714.72149  -1644455.85049  20254989.8414   20254994.2284
  19640583.502   -16510432.76749 -12852642.65449  19640582.8334   19640588.3494
  20539015.120    -2050159.92949  -1593359.72749  20539011.5304   20539017.8384
  20936059.886   -15342690.73749 -11932709.91749  20936056.5164   20936062.9004
 95  1  5 19 12 59.9950000  0  6  1 29 25 14 15 22
  23310698.680      943094.10649    727231.19449  23310697.1704   23310704.5684
  21185340.146   -12105445.44949  -9416921.55449  21185337.9854   21185344.1494
  20254071.519    -2117559.94449  -1648231.36749  20254067.8204   20254072.4674
  19614725.716   -16646306.68249 -12958518.42749  19614726.6964   19614732.2294
  20539348.589    -2048396.24049  -1591985.47849  20539346.9804   20539353.3974
  20907720.437   -15491596.06449 -12048740.00549  20907721.2564   20907726.8744
 95  1  5 19 13 29.9950000  0  6  1 29 25 14 15 22
  23310364.115      941346.59749    725869.43449  23310365.4034   23310375.9354
  21160755.312   -12234623.54149  -9517579.78449  21160756.6544   21160762.0404
  20253208.108    -2122078.05049  -1651751.99149  20253207.7804   20253212.3894
  19588941.855   -16781816.43249 -13064110.43549  19588940.1774   19588945.8374
  20539762.302    -2046214.23949  -1590285.28449  20539762.5074   20539768.8104
  20879457.399   -15640121.83249 -12164474.34449  20879457.0024   20879463.1544
 95  1  5 19 13 59.9950000  0  6  1 29 25 14 15 22
  23310031.781      939599.99749    724508.38049  23310032.3474   23310040.5984
  21136183.851   -12363747.39049  -9618195.74649  21136185.3734   21136190.9774
  20252401.772    -2126327.74649  -1655063.46549  20252399.1834   20252403.8934
  19563216.021   -16917006.83249 -13169453.59549  19563214.4554   19563220.0504
  20540243.505    -2043673.98049  -1588305.92349  20540246.1634   20540252.1294
  20851253.963   -15788325.60449 -12279957.77649  20851255.0584   20851260.7264
 95  1  5 19 14 29.9950000  0  6  1 29 25 14 15 22
  23309701.717      937865.83349    723157.03749  23309703.2984   23309711.4484
  21111625.405   -12492802.05049  -9718757.80049  21111627.4724   21111632.4094
  20251642.299    -2130302.02349  -1658160.32949  20251642.7964   20251647.7994
  19537548.702   -17051868.44949 -13274540.56149  19537551.1084   19537556.8824
  20540807.071    -2040766.41449  -1586040.34649  20540799.1064   20540805.5114
  20823113.257   -15936208.90649 -12395191.48549  20823113.4224   20823119.3004
 95  1  5 19 14 59.9950000  0  6  1 29 25 14 15 22
  23309367.848      936111.96649    721790.27949  23309369.2814   23309379.4194
  21087079.204   -12621822.70749  -9819293.35749  21087075.3704   21087080.3304
  20250932.894    -2134031.57849  -1661066.50149  20250933.0324   20250938.0594
  19511942.093   -17186451.00149 -13379410.07349  19511940.6964   19511946.3664
  20541414.804    -2037528.08249  -1583517.03749  20541415.5684   20541421.6834
  20795027.810   -16083804.85649 -12510201.29549  20795026.7334   20795032.8384
 95  1  5 19 15 29.9950000  0  5 29 25 14 15 22
  21062537.286   -12750774.52149  -9919775.28149  21062536.6284   21062541.5524
  20250269.528    -2137506.62049  -1663774.34649  20250271.6724   20250276.6924
  19486386.636   -17320746.35249 -13484055.79349  19486385.1394   19486390.8444
  20542096.548    -2033955.64649  -1580733.38049  20542095.4284   20542101.5444
  20766994.675   -16231105.68049 -12624981.13349  20766995.8744   20767002.5854
 95  1  5 19 15 59.9950000  0  5 29 25 14 15 22
  21038010.252   -12879644.66049 -10020193.56349  21038012.6034   21038018.1464
  20249662.049    -2140719.76649  -1666278.12149  20249660.1704   20249665.3364
  19460890.297   -17454727.77149 -13588456.90149  19460889.4524   19460895.0164
  20542838.215    -2030043.24649  -1577684.82049  20542839.5224   20542846.4034
  20739031.389   -16378098.88549 -12739521.27549  20739024.1754   20739031.1554
 95  1  5 19 16 29.9950000  0  5 29 25 14 15 22
  21013513.057   -13008408.93849 -10120529.35649  21013510.0484   21013515.2614
  20249103.353    -2143637.41049  -1668551.63849  20249105.2004   20249110.2314
  19435464.097   -17588360.06349 -13692585.95749  19435459.9464   19435465.5734
  20543653.955    -2025764.00949  -1574350.41749  20543654.1594   20543660.7824
  20711118.746   -16524743.07349 -12853789.46149  20711118.3154   20711125.7564
 95  1  5 19 16 59.9940000  0  5 29 25 14 15 22
  20989027.745   -13137060.69149 -10220777.46749  20989028.4214   20989033.8104
  20248606.526    -2146251.94549  -1670588.96249  20248607.6974   20248612.6414
  19410101.502   -17721618.71849 -13796423.87049  19410101.4844   19410107.2034
  20544536.022    -2021120.34849  -1570732.04249  20544537.7864   20544544.5514
  20683292.908   -16671008.93649 -12967762.84849  20683285.4694   20683292.8734
 95  1  5 19 17 29.9940000  0  5 29 25 14 15 22
  20964562.428   -13265637.69049 -10320967.32649  20964561.2874   20964566.5744
  20248160.387    -2148599.21749  -1672418.03149  20248160.9034   20248166.0314
  19384810.838   -17854523.74749 -13899986.22849  19384810.6144   19384816.4534
  20545487.480    -2016147.32349  -1566857.01949  20545483.9384   20545491.1534
  20655515.011   -16816939.57849 -13081475.01949  20655515.7444   20655522.8004
 95  1  5 19 17 59.9940000  0  5 29 25 14 15 22
  20940104.592   -13394152.49049 -10421108.72649  20940106.1524   20940111.1514
  20247767.706    -2150674.33949  -1674035.03949  20247766.2344   20247771.0434
  19359590.429   -17987060.70749 -14003261.78549  19359589.6824   19359595.5454
  20546501.631    -2010847.69049  -1562727.50249  20546492.6014   20546499.5544
  20627812.134   -16962530.12649 -13194922.18849  20627811.1454   20627818.1714
 95  1  5 19 18 29.9940000  0  5 29 25 14 15 22
  20915670.891   -13522569.00449 -10521173.53949  20915668.6464   20915673.8724
  20247430.388    -2152448.43449  -1675417.47949  20247428.8554   20247433.6614
  19334440.906   -18119219.44249 -14106242.62149  19334440.7214   19334446.6344
  20547562.209    -2005190.74349  -1558319.56049  20547569.4814   20547575.9214
  20600177.607   -17107746.37949 -13308077.69649  20600177.5454   20600183.8934
 95  1  5 19 18 59.9940000  0  5 29 25 14 15 22
  20891230.368   -13650993.66749 -10621244.69349  20891230.0904   20891235.5264
  20247122.855    -2154042.99249  -1676660.01949  20247125.3364   20247130.2204
  19309339.634   -18251122.26249 -14209024.04249  19309340.4864   19309346.3884
  20548695.596    -1999282.83349  -1553716.06549  20548693.5854   20548700.1834
  20572593.625   -17252706.11249 -13421033.31849  20572592.9144   20572598.9084
 95  1  5 19 19 29.9940000  0  5 29 25 14 15 22
  20866805.673   -13779348.90149 -10721261.74249  20866804.9094   20866810.1044
  20246872.948    -2155389.63349  -1677709.37449  20246869.0684   20246873.8904
  19284301.552   -18382701.49049 -14311553.32049  19284302.0154   19284307.6624
  20549882.984    -1993043.51349  -1548854.32649  20549881.1294   20549887.6984
  20545075.126   -17397346.42449 -13533740.04149  20545068.2764   20545074.1674
 95  1  5 19 19 59.9940000  0  5 29 25 14 15 22
  20842396.026   -13907636.62249 -10821226.19149  20842393.1134   20842397.9844
  20246663.931    -2156485.06049  -1678562.97749  20246660.8534   20246665.6874
  19259322.220   -18513976.83049 -14413845.79849  19259321.1354   19259326.8474
  20551131.226    -1986475.58849  -1543736.52949  20551131.0424   20551137.7914
  20517607.721   -17541659.17949 -13646191.52549  20517606.7534   20517612.4644
 95  1  5 19 20 29.9940000  0  5 29 25 14 15 22
  20817998.689   -14035837.56949 -10921123.01849  20817997.2824   20818001.9724
  20246500.208    -2157324.95649  -1679217.46649  20246500.8304   20246505.9014
  19234399.186   -18644947.53649 -14515900.89949  19234398.1234   19234403.7514
  20552448.982    -1979571.29149  -1538356.62449  20552444.6464   20552451.6124
  20490208.015   -17685621.83049 -13758370.20249  20490211.0684   20490216.7994
 95  1  5 19 20 59.9940000  0  5 29 25 14 15 22
  20793615.047   -14163949.83649 -11020950.74349  20793618.3054   20793623.0574
  20246393.364    -2157897.71649  -1679663.79049  20246391.8624   20246396.7584
  19209537.665   -18775581.70449 -14617693.75949  19209539.2994   19209544.9664
  20553827.926    -1972324.22149  -1532709.62849  20553823.8644   20553830.8184
  20462886.146   -17829214.33949 -13870260.46049  20462886.0854   20462892.1084
 95  1  5 19 21 29.9940000  0  5 29 25 14 15 22
  20769255.288   -14291968.50949 -11120705.52949  20769256.9804   20769262.2924
  20246334.786    -2158193.02549  -1679893.92349  20246335.8664   20246340.6284
  19184750.331   -18905853.02749 -14719203.88349  19184749.5254   19184755.2354
  20555269.327    -1964737.65549  -1526798.08949  20555267.2574   20555274.1774
  20435635.456   -17972423.20649 -13981851.78749  20435633.9804   20435640.4194
 95  1  5 19 21 59.9940000  0  5 29 25 14 15 22
  20744915.410   -14419905.32249 -11220396.52049  20744911.4174   20744916.5494
  20246332.001    -2158224.53149  -1679918.49349  20246329.5674   20246334.6454
  19160026.684   -19035770.24049 -14820438.06949  19160027.1204   19160032.9934
  20556773.748    -1956827.43149  -1520634.34949  20556772.6724   20556779.4164
  20408458.374   -18115242.83049 -14093139.80349  20408456.4954   20408462.8124
 95  1  5 19 22 29.9940000  0  5 29 25 14 15 22
  20720583.448   -14547763.78949 -11320026.46749  20720580.5304   20720585.6824
  20246374.539    -2158004.43949  -1679747.01349  20246371.9354   20246376.8914
  19135374.555   -19165321.15349 -14921386.82649  19135374.3764   19135380.2384
  20558343.053    -1948596.30249  -1514220.55549  20558339.0974   20558346.0024
  20381352.912   -18257670.28049 -14204122.23249  20381353.5554   20381360.0514
 95  1  5 19 22 59.9940000  0  5 29 25 14 15 22
  20696265.022   -14675545.14949 -11419596.33349  20696265.1364   20696270.0214
  20246459.008    -2157539.81449  -1679384.99149  20246459.8904   20246465.2064
  19110797.959   -19294478.68349 -15022029.05249  19110796.6414   19110802.4714
  20559976.111    -1940042.95849  -1507555.69049  20559966.9834   20559973.8004
  20354328.741   -18399704.69049 -14314798.39549  20354325.6814   20354331.8284
 95  1  5 19 23 29.9940000  0  5 29 25 14 15 22
  20671960.585   -14803275.25949 -11519126.26649  20671958.6784   20671963.4034
  20246590.831    -2156861.53949  -1678856.48849  20246589.3264   20246594.2644
  19086286.354   -19423281.18749 -15122394.63649  19086286.2594   19086292.0484
  20561655.030    -1931205.43049  -1500669.37449  20561648.6124   20561655.8674
  20327368.609   -18541367.83049 -14425185.25249  20327368.4914   20327374.4324
 95  1  5 19 23 59.9940000  0  5 29 25 14 15 22
  20647671.658   -14930922.76649 -11618591.83849  20647668.1684   20647673.0394
  20246764.462    -2155940.03249  -1678138.44849  20246764.5574   20246769.6734
  19061846.597   -19551712.61049 -15222471.06249  19061846.7084   19061852.3454
  20563388.155    -1922058.34149  -1493541.85049  20563389.0444   20563396.6104
  20300486.769   -18682623.90849 -14535254.92149  20300488.5784   20300494.0294
 95  1  5 19 24 29.9940000  0  5 29 25 14 15 22
  20623386.294   -15058511.08549 -11718011.28349  20623388.9274   20623393.4294
  20246980.925    -2154795.55649  -1677246.66149  20246982.2884   20246987.4134
  19037476.042   -19679785.07449 -15322267.77949  19037475.1434   19037480.8144
  20565184.441    -1912632.96649  -1486197.47449  20565182.8654   20565190.4984
  20273678.603   -18823512.82049 -14645038.47549  20273678.4224   20273684.0194
 95  1  5 19 24 59.9940000  0  5 29 25 14 15 22
  20599130.035   -15186003.19349 -11817355.75549  20599127.7094   20599132.9954
  20247254.949    -2153381.61949  -1676144.90749  20247251.5414   20247256.7744
  19013182.023   -19807451.60149 -15421748.18249  19013180.9234   19013186.6604
  20567043.157    -1902892.49749  -1478607.56749  20567036.4124   20567044.1594
  20246946.764   -18963998.56749 -14754507.87549  20246944.7894   20246950.1514
 95  1  5 19 25 29.9940000  0  5 29 25 14 15 22
  20574873.619   -15313431.08449 -11916650.18649  20574879.2524   20574883.9774
  20247564.786    -2151727.60749  -1674856.08349  20247566.1254   20247571.3104
  18988953.347   -19934765.15049 -15520953.53349  18988953.9914   18988959.6464
  20568947.914    -1892874.18049  -1470801.16749  20568942.9564   20568950.3874
  20220283.180   -19104120.77549 -14863693.99549  20220280.1134   20220285.6814
 95  1  5 19 25 59.9940000  0  5 29 25 14 15 22
  20550657.782   -15440752.55749 -12015861.70549  20550650.9644   20550655.8014
  20247930.063    -2149813.36749  -1673364.48549  20247930.2104   20247935.3854
  18964805.937   -20061672.54649 -15619842.40549  18964804.5064   18964810.3374
  20570911.257    -1882539.00849  -1462747.86449  20570909.8264   20570916.9324
  20193690.703   -19243866.38549 -14972586.66049  20193687.2854   20193693.0404
 95  1  5 19 26 29.9940000  0  5 29 25 14 15 22
  20526439.224   -15567986.99549 -12115005.39849  20526438.5194   20526443.6324
  20248343.019    -2147665.57249  -1671690.89249  20248339.2374   20248344.2664
  18940730.689   -20188182.50649 -15718421.58449  18940730.2354   18940736.0624
  20572934.650    -1871906.10949  -1454462.57349  20572933.3054   20572940.3424
  20167162.701   -19383243.65749 -15081192.30749  20167164.3474   20167170.6414
 95  1  5 19 26 59.9940000  0  5 29 25 14 15 22
  20502240.624   -15695152.95349 -12214095.73549  20502239.8264   20502245.1914
  20248782.298    -2145314.05849  -1669858.56249  20248786.7054   20248791.8024
  18916731.070   -20314321.93449 -15816712.04249  18916726.9224   18916732.6054
  20575003.077    -1860998.50549  -1445963.22749  20575009.3034   20575016.2224
  20140712.660   -19522256.20549 -15189513.75849  20140711.3604   20140717.9184
 95  1  5 19 27 29.9930000  0  5 29 25 14 15 22
  20478059.067   -15822227.27749 -12313114.67649  20478058.6704   20478063.3134
  20249267.668    -2142765.94149  -1667873.02649  20249271.4754   20249276.4354
  18892795.213   -20440085.04549 -15914709.27149  18892794.8814   18892800.4644
  20577142.952    -1849818.26349  -1437251.43349  20577136.8784   20577143.8854
  20114333.637   -19660891.45149 -15297541.20649  20114329.6984   20114336.6644
 95  1  5 19 27 59.9930000  0  5 29 25 14 15 22
  20453893.434   -15949218.41349 -12412068.79049  20453892.5064   20453897.7614
  20249794.984    -2140013.74549  -1665728.46849  20249795.4154   20249800.2904
  18868937.075   -20565463.25449 -16012406.57649  18868936.2484   18868941.8414
  20579314.295    -1838362.26249  -1428324.76849  20579316.8654   20579323.9564
  20088018.970   -19799130.76649 -15405260.13049  20088023.6004   20088030.5564
 95  1  5 19 28 29.9930000  0  5 29 25 14 15 22
  20429742.334   -16076132.11849 -12510962.57349  20429742.1054   20429746.9264
  20250367.037    -2137038.05849  -1663409.76249  20250361.6564   20250366.6094
  18845148.918   -20690463.34649 -16109809.24149  18845149.2674   18845155.1474
  20581547.091    -1826638.22749  -1419189.24049  20581548.2724   20581554.8534
  20061800.726   -19936948.22149 -15512650.34149  20061797.7914   20061804.8574
 95  1  5 19 28 59.9930000  0  5 29 25 14 15 22
  20405600.342   -16202998.49149 -12609819.47949  20405600.2184   20405605.0134
  20250965.824    -2133860.33049  -1660933.62249  20250966.4124   20250971.1304
  18821429.834   -20815113.55849 -16206939.27249  18821429.2784   18821435.1194
  20583817.178    -1814674.95949  -1409867.29649  20583824.7504   20583831.4624
  20035648.162   -20074379.56549 -15619739.67749  20035645.7044   20035652.7704
 95  1  5 19 29 29.9930000  0  5 29 25 14 15 22
  20381472.269   -16329799.89749 -12708625.75149  20381470.3974   20381475.6564
  20251608.978    -2130463.90349  -1658287.06349  20251612.6334   20251617.2624
  18797781.638   -20939394.34849 -16303781.44449  18797779.4524   18797785.3664
  20586144.217    -1802451.93849  -1400342.95749  20586150.4274   20586157.6424
  20009574.896   -20211393.60249 -15726503.84249  20009572.5424   20009579.7714
 95  1  5 19 29 59.9930000  0  5 29 25 14 15 22
  20357361.662   -16456498.38649 -12807351.83649  20357360.2234   20357365.5784
  20252309.510    -2126799.36249  -1655431.58749  20252309.9804   20252314.9354
  18774210.463   -21063254.32349 -16400295.71249  18774209.8724   18774215.4604
  20588537.862    -1789926.79649  -1390583.18449  20588533.7344   20588541.4264
  19983588.103   -20347944.66349 -15832907.24549  19983587.9344   19983594.6254
 95  1  5 19 30 29.9930000  0  5 29 25 14 15 22
  20333266.342   -16583114.10249 -12906013.41849  20333266.1214   20333271.3094
  20253050.687    -2122900.17549  -1652393.26849  20253051.8694   20253056.9474
  18750714.576   -21186721.58749 -16496503.97649  18750714.8374   18750720.4084
  20590977.525    -1777127.19249  -1380609.54549  20590969.7134   20590977.4154
  19957688.770   -20484066.99749 -15938976.56649  19957685.0304   19957690.9704
 95  1  5 19 30 59.9930000  0  5 29 25 14 15 22
  20309184.021   -16709679.47649 -13004635.77649  20309181.6574   20309186.6804
  20253828.081    -2118830.92449  -1649222.43749  20253826.2324   20253831.1834
  18727289.190   -21309832.72049 -16592434.73149  18727287.3084   18727292.9814
  20593453.189    -1764090.08549  -1370450.85349  20593450.6804   20593458.2714
  19931858.804   -20619795.02549 -16044738.63449  19931856.8154   19931862.4394
 95  1  5 19 31 29.9930000  0  5 29 25 14 15 22
  20285110.156   -16836168.79349 -13103198.87549  20285111.5434   20285116.6134
  20254637.796    -2114573.51449  -1645904.98549  20254636.7274   20254641.5584
  18703936.893   -21432549.40449 -16688058.12149  18703935.1484   18703940.8144
  20595977.794    -1750797.58249  -1360093.13549  20595980.1644   20595987.7484
  19906111.683   -20755099.54249 -16150170.68649  19906109.2864   19906114.5604
 95  1  5 19 31 59.9930000  0  5 29 25 14 15 22
  20261054.600   -16962592.15949 -13201710.57549  20261053.9534   20261059.0374
  20255482.095    -2110129.49549  -1642442.12949  20255481.6944   20255486.9784
  18680659.452   -21554872.55549 -16783374.86149  18680657.7514   18680663.6204
  20598560.380    -1737261.06949  -1349545.28249  20598556.5874   20598563.8454
  19880441.545   -20889987.06149 -16255277.80449  19880440.9764   19880446.3964
 95  1  5 19 32 29.9930000  0  5 29 25 14 15 22
  20237013.158   -17088927.27049 -13300153.50349  20237013.3074   20237018.1604
  20256367.548    -2105477.43149  -1638817.17049  20256367.5124   20256372.5274
  18657460.235   -21676778.47349 -16878366.48149  18657459.7024   18657465.6584
  20601176.542    -1723456.02349  -1338788.19049  20601183.3034   20601190.9034
  19854859.736   -21024423.49249 -16360033.42449  19854858.2374   19854863.8894
 95  1  5 19 32 59.9930000  0  5 29 25 14 15 22
  20212988.445   -17215168.82049 -13398523.53049  20212990.2714   20212995.3004
  20257296.856    -2100604.10949  -1635019.77949  20257294.9164   20257299.9624
  18634348.622   -21798237.86749 -16973010.15849  18634347.0274   18634352.7084
  20603864.993    -1709379.88349  -1327819.84649  20603862.3614   20603869.4954
  19829362.280   -21158405.30249 -16464434.79549  19829362.4164   19829368.5744
 95  1  5 19 33 29.9930000  0  5 29 25 14 15 22
  20188977.338   -17341337.73649 -13496836.95549  20188981.0294   20188986.0954
  20258258.305    -2095512.88949  -1631052.61649  20258263.4084   20258268.8104
  18611317.031   -21919269.72949 -17067320.69849  18611315.4464   18611321.1514
  20606589.913    -1695060.41749  -1316661.90649  20606587.2094   20606594.4464
  19803946.895   -21291960.38749 -16568503.65649  19803947.2334   19803954.0944
 95  1  5 19 33 59.9930000  0  5 29 25 14 15 22
  20164985.036   -17467453.70949 -13595109.11849  20164981.8664   20164987.0474
  20259269.544    -2090224.09649  -1626931.49949  20259270.2824   20259275.2894
  18588356.822   -22039907.19449 -17161323.90649  18588358.6154   18588364.3944
  20609354.597    -1680522.57649  -1305333.79749  20609353.3584   20609361.0204
  19778610.407   -21425110.87649 -16672257.24949  19778609.3074   19778616.8074
 95  1  5 19 34 29.9930000  0  5 29 25 14 15 22
  20141006.299   -17593462.89149 -13693298.07049  20141003.2184   20141008.1304
  20260327.145    -2084691.93949  -1622620.73849  20260322.8914   20260327.6714
  18565485.231   -22160106.61849 -17254985.78649  18565485.5574   18565491.3234
  20612170.069    -1665727.25049  -1293805.06249  20612169.5664   20612176.0794
  19753356.711   -21557822.13049 -16775668.58749  19753355.0284   19753362.8184
 95  1  5 19 34 59.9930000  0  5 29 25 14 15 22
  20117043.730   -17719383.35449 -13791417.89149  20117041.5094   20117046.0954
  20261414.874    -2078943.25249  -1618141.26049  20261416.8764   20261421.7914
  18542688.355   -22279900.68049 -17348331.80049  18542689.4824   18542695.2024
  20615033.339    -1650708.60949  -1282102.29849  20615027.4874   20615034.0264
  19728183.859   -21690115.49249 -16878754.29949  19728180.4844   19728187.9664
 95  1  5 19 35 29.9930000  0  5 29 25 14 15 22
  20093105.970   -17845180.16749 -13889441.36349  20093102.8114   20093107.8074
  20262554.159    -2072957.94349  -1613477.40149  20262555.8174   20262561.1134
  18519972.657   -22399282.55349 -17441356.62949  18519971.9304   18519977.6614
  20617930.388    -1635440.81449  -1270205.39549  20617931.9154   20617939.5544
  19703095.394   -21821947.33549 -16981480.38349  19703093.8474   19703101.1204
 95  1  5 19 35 59.9930000  0  5 29 25 14 15 22
  20069185.049   -17970868.79049 -13987380.52749  20069185.1364   20069190.2284
  20263735.081    -2066767.52749  -1608653.72349  20263733.9414   20263738.7624
  18497331.973   -22518255.43849 -17534062.76649  18497332.0134   18497337.8884
  20620882.381    -1619943.37349  -1258129.55549  20620881.1564   20620888.8384
  19678094.406   -21953329.06149 -17083855.72549  19678093.2264   19678099.6174
 95  1  5 19 36 29.9930000  0  5 29 25 14 15 22
  20045285.070   -18096460.89749 -14085244.48849  20045285.8364   20045290.8904
  20264949.190    -2060392.32849  -1603686.04949  20264946.9384   20264952.1554
  18474770.568   -22636821.39049 -17626451.80849  18474769.5674   18474775.4924
  20623867.692    -1604230.09649  -1245885.53249  20623871.8114   20623879.1314
  19653181.632   -22084262.49049 -17185881.73849  19653177.4664   19653183.4254
 95  1  5 19 36 59.9930000  0  5 29 25 14 15 22
  20021400.744   -18221968.98049 -14183042.97749  20021402.3734   20021407.1184
  20266193.887    -2053860.24249  -1598596.13149  20266190.3674   20266195.3934
  18452283.833   -22754979.18749 -17718522.80449  18452284.9594   18452290.8104
  20626900.444    -1588305.69449  -1233476.98549  20626902.1754   20626909.6604
  19628347.256   -22214742.98749 -17287554.82149  19628348.0874   19628353.3844
 95  1  5 19 37 29.9930000  0  5 29 25 14 15 22
  19997538.872   -18347385.78949 -14280770.34849  19997536.3754   19997541.1164
  20267468.495    -2047158.25149  -1593373.81949  20267465.1254   20267470.5254
  18429885.529   -22872684.65949 -17810241.34449  18429886.4014   18429892.3184
  20629976.061    -1572144.76649  -1220884.14249  20629977.3544   20629985.0064
  19603610.968   -22344747.66049 -17388857.13749  19603608.9144   19603614.3984
 95  1  5 19 37 59.9920000  0  5 29 25 14 15 22
  19973685.794   -18472714.42849 -14378429.00649  19973687.0954   19973691.9324
  20268776.649    -2040289.12749  -1588021.27749  20268772.6174   20268777.8384
  18407579.513   -22989917.79449 -17901591.82349  18407577.7144   18407583.3794
  20633100.456    -1555753.22249  -1208111.60449  20633096.8384   20633104.5284
  19578961.144   -22474270.72649 -17489784.17149  19578961.2724   19578967.1124
 95  1  5 19 38 29.9920000  0  5 29 25 14 15 22
  19949848.922   -18597977.63549 -14476036.68449  19949850.1984   19949855.0104
  20270114.760    -2033246.15949  -1582533.26949  20270113.0034   20270118.2224
  18385355.723   -23106698.18949 -17992589.52149  18385355.1704   18385361.0554
  20636261.152    -1539132.01149  -1195160.10349  20636260.1794   20636267.5994
  19554407.939   -22603318.51049 -17590340.85949  19554404.2924   19554410.2774
 95  1  5 19 38 59.9920000  0  5 29 25 14 15 22
  19926029.414   -18723158.16949 -14573579.94149  19926029.2674   19926034.0654
  20271492.679    -2026009.95449  -1576894.69449  20271489.8264   20271495.2414
  18363221.721   -23223006.62549 -18083219.45749  18363222.2574   18363228.1554
  20639468.469    -1522270.31449  -1182021.20849  20639468.8284   20639476.2004
  19529939.899   -22731880.21049 -17690518.78649  19529939.4494   19529946.0634
 95  1  5 19 39 29.9920000  0  5 29 25 14 15 22
  19902227.531   -18848261.85449 -14671063.31249  19902222.9734   19902227.8044
  20272905.039    -2018569.42849  -1571096.90849  20272905.8194   20272911.1904
  18341179.721   -23338846.97749 -18173484.65349  18341178.4954   18341184.3854
  20642724.044    -1505185.67349  -1168708.58549  20642719.9784   20642727.5244
  19505569.514   -22859963.32249 -17790323.79049  19505565.9194   19505572.8664
 95  1  5 19 39 59.9920000  0  5 29 25 14 15 22
  19878435.060   -18973294.89749 -14768491.64649  19878429.4794   19878434.5484
  20274363.047    -2010935.75549  -1565148.60949  20274358.4194   20274363.9224
  18319216.013   -23454248.85849 -18263408.18149  18319218.4404   18319224.2924
  20646007.719    -1487902.61249  -1155241.36049  20646008.7684   20646016.5764
  19481280.366   -22987579.00449 -17889764.56249  19481281.7634   19481288.1454
 95  1  5 19 40 29.9920000  0  6 29 18 25 14 15 22
  19854650.589   -19098260.78549 -14865867.63949  19854649.3234   19854654.3954
  22401386.247    -7861751.38959  -6110872.70559  22401382.5844   22401391.6024
  20275845.463    -2003131.04149  -1559067.03949  20275843.5034   20275849.0424
  18297339.452   -23569231.29349 -18353004.86849  18297338.0114   18297343.9124
  20649330.594    -1470439.23449  -1141633.62949  20649332.4054   20649339.7474
  19457083.579   -23114743.46449 -17988853.73049  19457083.2034   19457089.5704
 95  1  5 19 40 59.9920000  0  6 29 18 25 14 15 22
  19830892.185   -19223110.52749 -14963153.13949  19830891.3484   19830896.3914
  22372170.373    -8015262.38749  -6230491.57349  22372171.2774   22372178.4944
  20277365.861    -1995134.30449  -1552835.84349  20277365.6154   20277370.7274
  18275543.790   -23683758.97049 -18442247.20149  18275543.9384   18275549.8724
  20652691.679    -1452772.07349  -1127867.09749  20652693.4724   20652701.6804
  19432980.855   -23241405.93549 -18087551.73349  19432980.1374   19432986.2184
 95  1  5 19 41 29.9920000  0  6 29 18 25 14 15 22
  19807154.291   -19347863.63449 -15060363.33349  19807151.5854   19807156.5354
  22342952.040    -8168807.92349  -6350137.35449  22342951.1794   22342958.8024
  20278916.353    -1986975.46549  -1546478.33049  20278918.1284   20278923.3574
  18253831.536   -23797864.49049 -18531160.57849  18253830.3434   18253836.2574
  20656085.548    -1434927.47349  -1113962.30049  20656089.4914   20656097.5224
  19408972.902   -23367571.68049 -18185862.67249  19408971.8584   19408977.6324
 95  1  5 19 41 59.9920000  0  6 29 18 25 14 15 22
  19783435.364   -19472498.16149 -15157481.13049  19783434.4464   19783439.3234
  22313727.675    -8322362.11349  -6469789.84849  22313729.3384   22313737.6444
  20280503.318    -1978653.86549  -1539993.98649  20280501.4544   20280507.1994
  18232200.874   -23911542.68349 -18619740.97749  18232198.3904   18232204.4174
  20659528.168    -1416889.40049  -1099906.75949  20659522.3754   20659529.1284
  19385058.871   -23493230.61449 -18283778.69349  19385059.3744   19385065.0234
 95  1  5 19 42 29.9920000  0  6 29 18 25 14 15 22
  19759741.508   -19597023.49149 -15254513.83149  19759737.9644   19759743.1144
  22284508.077    -8475924.76449  -6589448.96249  22284508.6824   22284516.7014
  20282114.977    -1970172.88449  -1533385.45549  20282115.7144   20282120.8744
  18210646.186   -24024798.93449 -18707992.58949  18210646.1044   18210652.1854
  20662994.245    -1398667.41849  -1085707.90849  20662990.3964   20662997.4374
  19361244.148   -23618399.15849 -18381312.58749  19361240.6104   19361246.1194
 95  1  5 19 42 59.9920000  0  6 29 18 25 14 15 22
  19736055.184   -19721463.63049 -15351480.14549  19736057.9024   19736062.7904
  22255283.090    -8629504.55049  -6709121.37949  22255282.8144   22255291.7474
  20283758.410    -1961537.92549  -1526656.94149  20283758.6594   20283764.0514
  18189173.957   -24137643.02849 -18795923.04249  18189172.9034   18189178.7404
  20666489.618    -1380271.82849  -1071373.76949  20666490.8464   20666498.0374
  19337511.762   -23743089.58549 -18478473.91849  19337512.1864   19337518.2094
 95  1  5 19 43 29.9920000  0  6 29 18 25 14 15 22
  19712393.849   -19845799.19049 -15448364.96749  19712397.3594   19712402.4394
  22226062.593    -8783044.89049  -6828763.12549  22226066.6304   22226073.9854
  20285436.091    -1952713.67049  -1519780.92449  20285437.6844   20285442.9374
  18167786.548   -24250031.19549 -18883498.22949  18167786.1194   18167791.9494
  20670028.379    -1361671.50849  -1056880.10649  20670030.0974   20670037.6234
  19313874.854   -23867299.70149 -18575260.98549  19313875.7914   19313882.1314
 95  1  5 19 43 59.9920000  0  6 29 18 25 14 15 22
  19688758.521   -19970045.58549 -15545180.31549  19688754.3484   19688759.2944
  22196857.060    -8936531.92549  -6948363.35149  22196858.2704   22196865.7674
  20287153.863    -1943710.92549  -1512765.81649  20287150.9594   20287156.2254
  18146486.848   -24361953.02649 -18970710.03649  18146487.9484   18146493.8394
  20673608.003    -1342881.35449  -1042238.53049  20673606.0384   20673613.1634
  19290328.003   -23991061.83749 -18671698.97549  19290324.7694   19290331.2604
 95  1  5 19 44 29.9920000  0  6 29 18 25 14 15 22
  19665124.759   -20094218.40949 -15641938.33249  19665124.8404   19665129.8344
  22167659.898    -9089979.76649  -7067932.96849  22167659.8154   22167666.6974
  20288904.996    -1934528.94249  -1505611.05349  20288898.4904   20288904.0604
  18125282.510   -24473392.23449 -19057545.76949  18125281.7234   18125287.7424
  20677216.507    -1323907.42049  -1027453.73849  20677216.5964   20677224.5774
  19266859.262   -24114368.83549 -18767782.32149  19266860.5194   19266867.0384
 95  1  5 19 44 59.9920000  0  6 29 18 25 14 15 22
  19641510.681   -20218313.08649 -15738635.45049  19641510.4704   19641515.4844
  22138468.100    -9243395.40249  -7187477.56449  22138464.1524   22138472.3114
  20290677.359    -1925172.13049  -1498320.06349  20290678.6294   20290684.3234
  18104170.779   -24584332.60649 -19143992.79949  18104170.9094   18104176.6724
  20680859.120    -1304751.15149  -1012526.86249  20680862.6164   20680870.2364
  19243491.828   -24237196.40349 -18863492.08649  19243487.5214   19243493.6264
 95  1  5 19 45 29.9920000  0  6 29 18 25 14 15 22
  19617907.661   -20342343.84849 -15835282.76749  19617908.1524   19617913.2654
  22109272.506    -9396805.94749  -7307018.19149  22109270.8124   22109279.3194
  20292490.379    -1915665.04449  -1490911.96749  20292488.3194   20292493.1274
  18083152.101   -24694786.51049 -19230060.76449  18083152.0134   18083158.0034
  20684531.955    -1285438.66649   -997478.27249  20684536.9374   20684545.6624
  19220207.388   -24359546.51549 -18958829.80249  19220205.1234   19220211.4264
 95  1  5 19 45 59.9920000  0  6 29 18 25 14 15 22
  19594309.251   -20466326.88149 -15931892.89549  19594314.8274   19594319.7064
  22080068.499    -9550245.15849  -7426581.12349  22080071.3704   22080079.7484
  20294324.118    -1906032.16449  -1483405.85049  20294321.0404   20294326.5314
  18062221.236   -24804784.11149 -19315773.16949  18062220.2234   18062226.0114
  20688239.021    -1265992.47149   -982325.50549  20688238.1334   20688245.9624
  19197019.051   -24481414.73449 -19053792.02749  19197014.0044   19197020.3114
 95  1  5 19 46 29.9920000  0  6 29 18 25 14 15 22
  19570738.135   -20590214.30549 -16028428.51449  19570740.0914   19570744.8904
  22050876.687    -9703685.72349  -7546145.11049  22050874.0104   22050880.8574
  20296186.288    -1896222.95049  -1475762.33149  20296187.9584   20296193.2894
  18041380.693   -24914301.90949 -19401111.70349  18041379.3894   18041385.3694
  20691969.323    -1246372.57449   -967037.37349  20691971.6114   20691979.3454
  19173935.203   -24602722.04949 -19148317.17849  19173929.8764   19173936.2404
 95  1  5 19 46 59.9920000  0  6 29 18 25 14 15 22
  19547187.005   -20713998.46649 -16124883.66649  19547184.5214   19547189.6174
  22021677.775    -9857114.47349  -7665699.88549  22021678.0654   22021684.7464
  20298087.416    -1886246.05149  -1467988.14349  20298086.2404   20298091.6054
  18020629.675   -25023343.79849 -19486079.39849  18020629.4044   18020635.4554
  20695736.471    -1226583.27549   -951617.23049  20695737.1574   20695744.9944
  19150950.818   -24723470.75949 -19242407.05249  19150952.1934   19150958.3374
 95  1  5 19 47 29.9920000  0  6 29 18 25 14 15 22
  19523647.426   -20837679.97149 -16221258.83149  19523648.8414   19523653.4714
  21992486.398   -10010513.59549  -7785231.53349  21992486.5254   21992492.6494
  20300019.339    -1876106.03049  -1460086.85549  20300015.5424   20300021.3474
  17999970.770   -25131905.45749 -19570672.89149  17999971.0014   17999976.7734
  20699545.545    -1206622.09649   -936063.16949  20699535.8074   20699543.6434
  19128075.356   -24843678.30849 -19336075.24549  19128077.1944   19128083.4654
 95  1  5 19 47 59.9920000  0  6 29 18 25 14 15 22
  19500128.318   -20961280.61649 -16317570.98349  19500128.3524   19500133.2294
  21963301.685   -10163906.68349  -7904758.49149  21963298.2924   21963304.0824
  20301980.340    -1865827.87949  -1452077.93849  20301971.6564   20301977.3524
  17979399.050   -25240014.78349 -19654913.91849  17979398.4554   17979404.2474
  20703366.213    -1186518.51649   -920398.16449  20703361.5504   20703369.3594
  19105301.573   -24963381.85949 -19429350.70549  19105298.2824   19105304.4384
 95  1  5 19 48 29.9910000  0  6 29 18 25 14 15 22
  19476629.837   -21084778.78549 -16413803.28249  19476627.3994   19476632.3674
  21934117.140   -10317280.62249  -8024270.52649  21934108.3134   21934117.7154
  20303959.135    -1855414.40849  -1443963.57649  20303953.4104   20303958.9944
  17958916.084   -25347643.48349 -19738780.42649  17958917.2104   17958923.3064
  20707215.403    -1166263.92249   -904615.47049  20707216.1564   20707223.4434
  19082614.366   -25082570.29549 -19522224.77749  19082617.2334   19082623.3834
 95  1  5 19 48 59.9910000  0  6 29 18 25 14 15 22
  19453137.563   -21208212.90249 -16509985.67249  19453138.7094   19453143.2774
  21904927.122   -10470668.56549  -8143793.42849  21904921.4994   21904928.9344
  20305956.312    -1844911.50349  -1435779.52549  20305951.5324   20305957.3774
  17938525.703   -25454808.00949 -19822285.23849  17938524.3544   17938530.4364
  20711096.636    -1145883.60049   -888734.80149  20711094.2484   20711101.6474
  19060024.797   -25201302.59049 -19614743.41449  19060023.7184   19060029.8034
 95  1  5 19 49 29.9910000  0  6 29 18 25 14 15 22
  19429667.037   -21331543.65249 -16606087.52249  19429669.4384   19429674.4924
  21875739.311   -10624050.16049  -8263311.41249  21875733.1384   21875741.0194
  20307975.316    -1834287.67449  -1427501.23949  20307973.8094   20307979.0034
  17918225.066   -25561488.55649 -19905412.92949  17918223.7674   17918229.9234
  20714995.657    -1125348.49249   -872733.51949  20715001.7024   20715009.7254
  19037525.458   -25319541.79949 -19706877.82549  19037523.6914   19037529.6594
 95  1  5 19 49 59.9910000  0  6 29 18 25 14 15 22
  19406201.056   -21454867.00849 -16702183.60749  19406201.8244   19406206.9434
  21846531.820   -10777547.42449  -8382919.54549  21846523.9724   21846532.3674
  20310000.665    -1823644.10049  -1419207.58049  20309998.5774   20310005.1064
  17897992.801   -25667800.98649 -19988253.77549  17897993.0704   17897999.1934
  20718923.343    -1104766.23549   -856695.50249  20718918.2484   20718927.1414
  19015101.122   -25437375.56549 -19798696.30849  19015100.5314   19015106.6924
 95  1  5 19 50 29.9910000  0  6 29 18 25 14 15 22
  19382761.872   -21578061.96549 -16798179.64349  19382758.7074   19382763.5724
  21817308.853   -10931042.52649  -8502526.04549  21817315.8344   21817322.5884
  20312057.355    -1812857.86549  -1410802.75249  20312051.9704   20312057.4414
  17877857.065   -25773618.06049 -20070708.62949  17877856.8874   17877862.9004
  20722858.624    -1084018.95649   -840528.89549  20722866.4084   20722875.2974
  18992779.536   -25554678.99749 -19890101.54149  18992778.2314   18992784.6564
 95  1  5 19 50 59.9910000  0  6 29 18 25 14 15 22
  19359358.242   -21701028.73249 -16893997.86849  19359358.6584   19359363.6844
  21788127.889   -11084422.02649  -8622042.46649  21788127.1804   21788134.9684
  20314151.443    -1801803.84849  -1402189.25649  20314155.1404   20314160.8994
  17857837.233   -25878834.39049 -20152695.37549  17857835.0514   17857840.9024
  20726867.975    -1063007.13949   -824156.14749  20726864.9214   20726874.3784
  18970581.661   -25671333.17149 -19981000.86349  18970579.7824   18970586.2124
 95  1  5 19 51 29.9910000  0  6 29 18 25 14 15 22
  19336046.390   -21823546.02349 -16989465.85549  19336044.4414   19336049.5024
  21759005.922   -11237474.19649  -8741303.80249  21759002.0334   21759010.0274
  20316348.997    -1790267.58749  -1393199.99749  20316349.9914   20316356.5184
  17837970.181   -25983231.16849 -20234043.51649  17837968.8294   17837974.7774
  20730953.391    -1041525.68749   -807417.45849  20730953.0184   20730961.6054
  18948550.085   -25787111.91949 -20071218.02749  18948547.9024   18948553.9874
 95  1  5 19 51 59.9910000  0  6 29 18 25 14 15 22
  19312738.806   -21946018.85049 -17084899.20549  19312738.6454   19312743.5334
  21729865.772   -11390584.37949  -8860610.40649  21729868.2914   21729874.8814
  20318570.215    -1778643.95449  -1384142.66049  20318562.8794   20318568.1574
  17818186.947   -26087184.11749 -20315045.81049  17818187.1644   17818193.1924
  20735052.760    -1019975.61949   -790625.29949  20735053.7294   20735063.0564
  18926610.617   -25902408.06749 -20161059.14849  18926607.3534   18926614.0404
 95  1  5 19 52 29.9910000  0  6 29 18 25 14 15 22
  19289400.719   -22068643.00149 -17180450.44949  19289403.7224   19289408.8544
  21700692.252   -11543905.05449  -8980080.97549  21700688.6374   21700699.1084
  20320761.069    -1767111.66249  -1375156.47249  20320757.1974   20320762.6994
  17798458.231   -26190858.98849 -20395831.40849  17798458.3954   17798464.5074
  20739138.392     -998533.82449   -773917.51549  20739134.3464   20739142.9174
  18904728.257   -26017397.63849 -20250661.36449  18904725.5654   18904731.9914
 95  1  5 19 52 59.9910000  0  6 29 18 25 14 15 22
  19266065.320   -22191299.16149 -17276026.64349  19266063.3194   19266068.4194
  21671505.012   -11697310.65249  -9099617.72049  21671499.3724   21671505.8854
  20322954.470    -1755562.42449  -1366157.09049  20322954.9574   20322960.1424
  17778804.572   -26294143.67149 -20476312.96349  17778804.0714   17778810.1584
  20743219.304     -977079.83349   -757200.22649  20743216.9094   20743225.5804
  18882926.619   -26131963.58449 -20339933.47749  18882924.4454   18882930.0244
 95  1  5 19 53 29.9910000  0  6 29 18 25 14 15 22
  19242730.613   -22313929.71749 -17371582.88749  19242727.1584   19242732.2844
  21642297.839   -11850742.97049  -9219175.34149  21642302.1634   21642308.9264
  20325166.191    -1743940.28949  -1357100.90949  20325166.4194   20325171.8994
  17759235.052   -26396983.63749 -20556447.98849  17759234.1214   17759240.3464
  20747315.855     -955557.22149   -740429.47049  20747312.6424   20747321.0514
  18861209.432   -26246065.50549 -20428844.01049  18861212.0044   18861217.1894
 95  1  5 19 53 59.9910000  0  6 29 18 25 14 15 22
  19219391.922   -22436564.01249 -17467142.04349  19219390.9054   19219395.9564
  21613096.075   -12004228.89849  -9338774.72849  21613093.5304   21613099.3814
  20327392.074    -1732258.84149  -1347998.51349  20327389.7624   20327394.7404
  17739741.369   -26499419.15049 -20636267.85849  17739741.3964   17739747.3784
  20751411.814     -933997.23049   -723629.58449  20751415.4154   20751423.9634
  18839586.818   -26359717.52149 -20517403.97249  18839584.3434   18839590.0084
 95  1  5 19 54 29.9910000  0  6 29 18 25 14 15 22
  19196062.135   -22559155.74749 -17562668.04749  19196062.4604   19196067.2994
  21583888.016   -12157732.72349  -9458388.03849  21583883.2984   21583891.5474
  20329633.248    -1720476.56949  -1338817.54649  20329631.6694   20329636.8534
  17720333.401   -26601410.81149 -20715741.86749  17720333.3464   17720339.2174
  20755532.710     -912365.51949   -706773.81849  20755531.7604   20755540.2754
  18818052.143   -26472870.73549 -20605575.26949  18818052.2424   18818057.9214
 95  1  5 19 54 59.9910000  0  6 29 18 25 14 15 22
  19172756.620   -22681636.84049 -17658107.83049  19172755.1644   19172760.0364
  21554676.001   -12311227.76249  -9577994.49249  21554673.4214   21554680.2864
  20331905.388    -1708554.48849  -1329527.63049  20331900.5714   20331905.9634
  17701019.477   -26702912.91349 -20794834.40349  17701018.1214   17701023.9854
  20759666.779     -890632.00949   -689838.74349  20759667.4744   20759676.1154
  18796622.816   -26585480.25949 -20693322.91149  18796623.3524   18796629.3464
 95  1  5 19 55 29.9910000  0  6 29 18 25 14 15 22
  19149472.855   -22804002.75649 -17753457.84549  19149469.5474   19149474.3794
  21525469.666   -12464714.14349  -9697594.19449  21525464.0354   21525473.8034
  20334198.699    -1696500.44449  -1320134.89449  20334194.4074   20334199.9754
  17681795.527   -26803922.78349 -20873543.38049  17681796.2134   17681802.4074
  20763828.643     -868807.21249   -672832.51749  20763820.5834   20763829.4574
  18775302.196   -26697537.03849 -20780639.83649  18775299.4524   18775305.8994
 95  1  5 19 55 59.9910000  0  6 29 18 25 14 15 22
  19126202.623   -22926256.84749 -17848720.74949  19126205.1704   19126210.3244
  21496259.657   -12618202.47949  -9817195.42549  21496259.9124   21496266.4494
  20336506.948    -1684333.63049  -1310654.29449  20336509.4634   20336515.4414
  17662668.311   -26904441.73549 -20951869.82349  17662668.3324   17662674.3604
  20767992.365     -846897.76149   -655760.34149  20767990.0474   20767998.7674
  18754082.646   -26809025.00149 -20867513.54649  18754083.7964   18754090.5144
 95  1  5 19 56 29.9910000  0  6 29 18 25 14 15 22
  19102963.757   -23048391.18349 -17943890.32749  19102963.8834   19102968.9494
  21467051.124   -12771672.83249  -9936782.67949  21467054.3854   21467060.8284
  20338848.026    -1672063.63949  -1301093.29249  20338844.2884   20338850.1984
  17643636.691   -27004454.68649 -21029801.98449  17643636.6214   17643642.4564
  20772186.277     -824889.54849   -638611.20849  20772178.5374   20772187.2684
  18732976.900   -26919946.64449 -20953945.96649  18732976.2664   18732982.7034
 95  1  5 19 56 59.9910000  0  6 29 18 25 14 15 22
  19079744.956   -23170402.15049 -18038963.77349  19079746.0244   19079750.9184
  21437855.046   -12925119.40449 -10056351.35749  21437854.5174   21437861.0914
  20341202.712    -1659694.58449  -1291455.09349  20341198.4274   20341203.8094
  17624702.497   -27103960.39349 -21107338.88949  17624701.2464   17624707.2544
  20776389.717     -802777.35749   -621381.04649  20776386.0994   20776395.1104
  18711975.455   -27030306.60449 -21039940.70949  18711975.1574   18711981.5604
 95  1  5 19 57 29.9910000  0  6 29 18 25 14 15 22
  19056543.802   -23292318.12149 -18133963.20049  19056546.1294   19056551.1014
  21408656.641   -13078556.14949 -10175912.41549  21408655.6954   21408662.6114
  20343570.325    -1647235.15349  -1281746.47549  20343568.8674   20343574.4354
  17605861.941   -27202966.33249 -21184486.36749  17605860.8544   17605866.6854
  20780609.341     -780567.92649   -604075.12149  20780612.0284   20780621.5494
  18691081.408   -27140115.59149 -21125506.12449  18691079.2734   18691085.3164
 95  1  5 19 57 59.9910000  0  6 29 18 25 14 15 22
  19033358.598   -23414147.08049 -18228894.82849  19033362.8384   19033367.6584
  21379461.287   -13231973.77449 -10295458.56349  21379461.3624   21379468.6784
  20345966.231    -1634666.58849  -1271952.81449  20345960.7144   20345966.4164
  17587117.707   -27301458.21249 -21261233.27849  17587118.3654   17587124.4404
  20784858.376     -758250.45149   -586685.01949  20784859.2854   20784868.6084
  18670290.790   -27249365.31349 -21210635.74649  18670289.8144   18670295.6264
 95  1  5 19 58 29.9910000  0  6 29 18 25 14 15 22
  19010204.515   -23535851.32649 -18323729.27749  19010203.3394   19010208.2084
  21350285.413   -13385342.91449 -10414966.93049  21350275.3494   21350282.7014
  20348377.989    -1621953.83449  -1262046.81249  20348379.9054   20348385.9174
  17568480.298   -27399401.24049 -21337552.51349  17568480.2534   17568486.5054
  20789128.395     -735797.68249   -569189.47649  20789131.9524   20789141.1214
  18649610.530   -27358043.22849 -21295319.80249  18649609.1604   18649614.7774
 95  1  5 19 58 59.9910000  0  6 29 18 25 14 15 22
  18987062.153   -23657454.67249 -18418485.10249  18987062.8364   18987067.7694
  21321094.024   -13538700.74949 -10534466.47749  21321092.2294   21321100.2364
  20350821.553    -1609114.69949  -1252042.32649  20350823.2814   20350829.3944
  17549946.465   -27496804.42949 -21413451.08649  17549945.0304   17549951.2724
  20793426.440     -713240.90049   -551612.88249  20793424.5394   20793433.7064
  18629035.795   -27466171.05549 -21379575.21249  18629033.3974   18629039.0974
 95  1  5 19 59 29.9900000  0  6 29 18 25 14 15 22
  18963944.578   -23778942.52849 -18513150.93149  18963944.4314   18963949.3054
  21291916.185   -13692023.58249 -10653938.72849  21291915.7154   21291923.2174
  20353286.365    -1596132.05749  -1241926.00849  20353293.7184   20353299.2224
  17531516.774   -27593650.54349 -21488915.57849  17531516.2074   17531522.0824
  20797741.851     -690573.96849   -533950.47049  20797739.1284   20797747.2984
  18608569.081   -27573719.35449 -21463379.05149  18608567.4034   18608573.5244
 95  1  5 19 59 59.9900000  0  6 29 18 25 14 15 22
  18940847.519   -23900309.96749 -18607722.93149  18940849.0454   18940853.8744
  21262745.745   -13845326.23749 -10773395.25049  21262742.0674   21262750.4144
  20355789.319    -1583020.03949  -1231708.88449  20355789.0634   20355795.1864
  17513188.338   -27689957.36749 -21563959.84549  17513189.4614   17513195.3754
  20802069.925     -667807.20249   -516210.27449  20802070.8744   20802079.8904
  18588209.573   -27680705.78049 -21546745.06249  18588208.2264   18588214.7164
 95  1  5 20  0 29.9900000  0  6 29 18 25 14 15 22
  18917782.166   -24021545.40749 -18702192.07849  18917778.6984   18917783.4334
  21233578.264   -13998607.83049 -10892835.37349  21233575.1614   21233581.9284
  20358307.194    -1569794.21849  -1221403.09449  20358305.8294   20358311.7794
  17494966.396   -27785721.69549 -21638581.39649  17494966.5284   17494972.1214
  20806420.376     -644951.55849   -498400.83149  20806421.1704   20806429.0174
  18567960.785   -27787129.46149 -21629672.57949  18567956.5024   18567962.9554
 95  1  5 20  0 59.9900000  0  6 29 18 25 14 15 22
  18894728.370   -24142670.29449 -18796575.06249  18894729.2624   18894734.2004
  21204415.862   -14151860.78249 -11012253.20549  21204412.0414   21204419.3704
  20360845.684    -1556453.35649  -1211007.65049  20360844.5024   20360850.3344
  17476847.801   -27880940.27449 -21712777.67449  17476846.7774   17476852.6624
  20810785.149     -622014.74049   -480528.12849  20810786.1074   20810794.0694
  18547813.779   -27892983.49649 -21712156.20249  18547813.4914   18547819.3624
 95  1  5 20  1 29.9900000  0  6 29 18 25 14 15 22
  18871699.651   -24263671.32449 -18890861.54349  18871703.5704   18871708.4644
  21175256.339   -14305066.25549 -11131634.02349  21175258.3804   21175265.6514
  20363404.571    -1542998.05749  -1200523.04049  20363404.6764   20363410.1934
  17458832.125   -27975613.36549 -21786548.89649  17458830.6814   17458836.8534
  20815167.416     -598990.27249   -462587.12349  20815166.7114   20815175.1044
  18527780.682   -27998262.95349 -21794192.09849  18527779.5744   18527785.1474
 95  1  5 20  1 59.9900000  0  6 29 18 25 14 15 22
  18848697.057   -24384580.54549 -18985076.48449  18848695.0394   18848700.1114
  21146105.145   -14458257.91449 -11251004.07349  21146107.1284   21146114.6374
  20365977.827    -1529474.06549  -1189984.90149  20365978.3394   20365983.7784
  17440914.514   -28069764.25549 -21859913.21249  17440914.3614   17440920.3934
  20819556.917     -575907.95749   -444601.05349  20819559.2274   20819567.7724
  18507852.227   -28103000.97849 -21875806.09749  18507848.2204   18507854.1784
 95  1  5 20  2 29.9900000  0  6 29 18 25 14 15 22
  18825698.394   -24505440.42549 -19079252.98349  18825696.3434   18825701.1224
  21116955.273   -14611451.46049 -11370375.59549  21116955.3174   21116962.5724
  20368556.312    -1515892.35549  -1179401.79549  20368561.8094   20368568.6934
  17423094.920   -28163406.31849 -21932881.04049  17423094.9254   17423101.0334
  20823955.036     -552796.29049   -426592.11649  20823957.5914   20823965.9564
  18488017.371   -28207208.78549 -21957006.94449  18488017.8124   18488023.9664
 95  1  5 20  2 59.9900000  0  6 29 18 25 14 15 22
  18802713.145   -24626220.51249 -19173367.31049  18802712.6284   18802717.4494
  21087810.219   -14764633.65749 -11489738.28149  21087805.5934   21087812.9024
  20371167.028    -1502224.22449  -1168751.35949  20371163.8414   20371170.0064
  17405372.830   -28256533.10649 -22005447.35249  17405373.5864   17405379.6124
  20828364.745     -529637.32549   -408546.31649  20828364.2184   20828373.3654
  18468295.386   -28310860.75749 -22037774.67449  18468293.2394   18468299.7634
 95  1  5 20  3 29.9900000  0  6 29 18 25 14 15 22
  18779747.828   -24746902.21049 -19267404.97049  18779747.5564   18779752.3274
  21058654.690   -14917824.24349 -11609107.49449  21058654.2364   21058661.4204
  20373770.760    -1488491.12249  -1158050.27749  20373777.3034   20373782.8784
  17387746.638   -28349168.35849 -22077630.64849  17387745.7514   17387751.5494
  20832783.058     -506442.80249   -390472.81449  20832778.1194   20832787.8754
  18448675.830   -28413950.86549 -22118104.59149  18448675.9554   18448682.5644
 95  1  5 20  3 59.9900000  0  6 29 18 25 14 15 22
  18756815.435   -24867425.01349 -19361318.82349  18756813.0644   18756817.5754
  21029510.494   -15070974.70849 -11728445.44049  21029510.1494   21029517.8424
  20376407.652    -1474617.29949  -1147239.55349  20376416.9714   20376423.1894
  17370222.824   -28441248.19649 -22149381.16149  17370223.8654   17370229.5384
  20837211.156     -483154.39949   -372326.15949  20837210.3044   20837219.9734
  18429184.807   -28516393.28949 -22197929.82949  18429182.0494   18429188.4654
 95  1  5 20  4 29.9900000  0  6 29 18 25 14 15 22
  18733903.425   -24987805.17249 -19455121.52149  18733905.2974   18733909.9194
  21000370.862   -15224101.49249 -11847764.93449  21000369.4504   21000378.2524
  20379083.904    -1460600.01049  -1136317.04949  20379084.5384   20379090.4454
  17352806.785   -28532786.51049 -22220709.70449  17352804.5354   17352810.1184
  20841661.512     -459786.50249   -354117.54449  20841657.1174   20841666.8714
  18409808.829   -28618194.75549 -22277255.61549  18409810.2844   18409816.4024
 95  1  5 20  4 59.9900000  0  6 29 18 25 14 15 22
  18711024.693   -25108049.29649 -19548818.22749  18711023.5824   18711028.4394
  20971239.133   -15377218.37949 -11967076.70349  20971232.0314   20971240.5374
  20381775.154    -1446477.36349  -1125312.43149  20381772.4084   20381778.5864
  17335483.624   -28623804.46249 -22291632.76949  17335484.2484   17335490.0894
  20846114.070     -436355.19349   -335859.52149  20846115.9704   20846125.0224
  18390559.739   -28719374.34349 -22356096.81749  18390556.5684   18390562.1094
 95  1  5 20  5 29.9900000  0  6 29 18 25 14 15 22
  18688162.432   -25228194.51149 -19642437.85949  18688160.6264   18688165.4324
  20942097.645   -15530332.26049 -12086386.18149  20942096.0644   20942104.3884
  20384476.265    -1432277.76949  -1114247.86049  20384474.7234   20384480.6864
  17318264.616   -28714299.69249 -22362148.51949  17318263.4964   17318269.4594
  20850587.505     -412883.01649   -317569.65349  20850581.8604   20850592.2144
  18371419.626   -28819947.01249 -22434465.09349  18371418.1454   18371423.6724
 95  1  5 20  5 59.9900000  0  6 29 18 25 14 15 22
  18665311.375   -25348270.54749 -19736003.58749  18665311.0354   18665315.7694
  20912958.419   -15683447.62449 -12205696.78349  20912960.1554   20912967.7434
  20387188.090    -1418003.87449  -1103125.39749  20387191.2154   20387196.6404
  17301144.884   -28804266.69149 -22432252.66149  17301143.3084   17301149.2504
  20855052.142     -389381.16849   -299256.66949  20855054.8674   20855064.6084
  18352390.702   -28919940.84449 -22512382.32649  18352389.4794   18352395.4044
 95  1  5 20  6 29.9900000  0  6 29 18 25 14 15 22
  18642469.369   -25468295.50649 -19829529.51249  18642470.9134   18642475.7724
  20883820.572   -15836576.98549 -12325018.31849  20883821.6284   20883827.5584
  20389913.147    -1403697.71549  -1091977.78549  20389913.6474   20389919.1584
  17284120.333   -28893723.98549 -22501959.63049  17284120.2384   17284125.9754
  20859520.484     -365880.00049   -280944.22149  20859526.9624   20859536.6444
  18333461.409   -29019412.88049 -22589892.96949  18333459.9204   18333466.2864
 95  1  5 20  6 59.9900000  0  6 29 18 25 14 15 22
  18619656.851   -25588193.85849 -19922956.77949  18619655.0174   18619659.8484
  20854692.157   -15989651.90949 -12444297.43249  20854691.8314   20854698.7834
  20392650.496    -1389311.70249  -1080767.95249  20392650.0904   20392656.6354
  17267208.839   -28982600.52949 -22571214.06749  17267207.8234   17267213.6174
  20864010.403     -342322.90449   -262588.18149  20864010.4704   20864019.7724
  18314639.270   -29118318.05249 -22666961.90749  18314638.9704   18314645.3624
 95  1  5 20  7 29.9900000  0  7 29 18 19 25 14 15 22
  18596858.200   -25708005.64449 -20016316.59649  18596855.5624   18596860.3814
  20825564.256   -16142721.05449 -12563572.05149  20825564.0454   20825570.8474
  21747452.181    -1396578.50259  -1057761.05859  21747447.1274   21747453.6794
  20395399.764    -1374879.23049  -1069521.92349  20395396.6174   20395402.8534
  17250397.853   -29070935.85049 -22640046.77349  17250397.9094   17250403.7734
  20868497.308     -318756.30949   -244224.75349  20868494.5584   20868505.3014
  18295919.845   -29216707.93949 -22743629.32849  18295916.3484   18295922.4194
 95  1  5 20  7 59.9900000  0  7 29 18 19 25 14 15 22
  18574071.242   -25827741.37849 -20109617.14149  18574070.6854   18574075.5224
  20796429.918   -16295815.76049 -12682866.55649  20796431.5324   20796438.0624
  21715572.603    -1564033.37949  -1188245.06549  21715577.3584   21715587.9784
  20398147.151    -1360423.47449  -1058257.73449  20398147.8784   20398154.9064
  17233685.200   -29158761.20449 -22708482.10249  17233685.5204   17233691.1094
  20872972.735     -295208.97049   -225876.32949  20872975.6584   20872984.7154
  18277283.905   -29314629.30949 -22819931.66349  18277283.1054   18277288.7824
 95  1  5 20  8 29.9900000  0  7 29 18 19 25 14 15 22
  18551312.571   -25947330.50549 -20202803.44849  18551313.6184   18551318.3784
  20767307.306   -16448864.05449 -12802124.88649  20767306.1384   20767313.5464
  21683746.005    -1731323.62649  -1318600.85649  21683742.8934   21683754.3084
  20400910.389    -1345890.49849  -1046933.36449  20400913.0924   20400920.1434
  17217082.041   -29246013.53849 -22776470.92649  17217082.1164   17217087.7114
  20877464.313     -271621.55649   -207496.67749  20877464.5134   20877474.0644
  18258756.577   -29412000.51349 -22895805.29649  18258754.0974   18258759.6934
 95  1  5 20  8 59.9900000  0  7 29 18 19 25 14 15 22
  18528582.925   -26066775.85149 -20295877.71649  18528583.9834   18528588.6814
  20738188.372   -16601865.65049 -12921346.82449  20738191.2964   20738198.1774
  21651943.993    -1898464.91049  -1448840.63749  21651937.7064   21651947.3024
  20403698.961    -1331267.98849  -1035539.24249  20403696.4014   20403702.7314
  17200587.205   -29332705.84549 -22844023.36349  17200585.2734   17200590.6304
  20881962.384     -247996.64949   -189087.80949  20881959.9114   20881968.7214
  18240339.997   -29508780.42349 -22971218.18349  18240337.3044   18240343.1014
 95  1  5 20  9 29.9900000  0  7 29 18 19 25 14 15 22
  18505881.466   -26186079.66349 -20388841.69449  18505881.1004   18505885.7294
  20709086.142   -16754838.90949 -13040546.67749  20709080.9364   20709088.7194
  21620157.191    -2065462.22549  -1578968.27549  21620159.6424   21620167.3374
  20406499.421    -1316554.00149  -1024073.83149  20406496.9434   20406502.8394
  17184192.051   -29418856.34349 -22911153.60849  17184191.2134   17184196.7534
  20886461.480     -224344.57549   -170657.77749  20886461.8784   20886469.9134
  18222039.026   -29604954.41849 -23046158.92749  18222035.5424   18222041.5284
 95  1  5 20  9 59.9890000  0  6 29 18 25 14 15 22
  18483191.899   -26305312.38249 -20481750.26649  18483191.7594   18483196.5894
  20679964.949   -16907849.33849 -13159775.47349  20679962.3844   20679970.8444
  20409303.346    -1301820.80649  -1012593.46549  20409300.1494   20409306.7184
  17167890.604   -29504526.62849 -22977909.65049  17167888.1994   17167894.1554
  20890947.316     -200737.86349   -152263.08749  20890952.7054   20890962.8874
  18203841.622   -29700574.10549 -23120667.74349  18203839.2304   18203845.6224
 95  1  5 20 10 29.9890000  0  6 29 18 25 14 15 22
  18460527.947   -26424419.67749 -20574561.11549  18460526.3644   18460531.0514
  20650847.815   -17060848.12249 -13278995.19749  20650849.7024   20650856.1444
  20412119.391    -1287012.51449  -1001054.55649  20412117.4924   20412124.2344
  17151688.192   -29589661.81149 -23044248.74649  17151687.7694   17151693.4934
  20895444.545     -177112.07849   -133853.53649  20895449.7374   20895459.5134
  18185766.300   -29795552.49649 -23194676.85049  18185765.4474   18185771.5734
 95  1  5 20 10 59.9890000  0  7 29 18 19 25 14 15 22
  18437894.304   -26543362.08649 -20667243.48149  18437892.9554   18437897.2744
  20621743.047   -17213811.40449 -13398187.30049  20621742.1874   20621748.2874
  21524966.140     -173996.12619   -113657.46659                  21524975.9374
  20414954.598    -1272095.39349   -989430.83649  20414956.2984   20414960.6624
  17135597.543   -29674226.87649 -23110143.60549  17135596.0864   17135601.3974
  20899960.424     -153438.53849   -115406.81249  20899954.8334   20899964.8194
  18167817.568   -29889874.24649 -23268174.28449  18167817.3144   18167822.8654
 95  1  5 20 11 29.9890000  0  7 29 18 19 25 14 15 22
  18415285.912   -26662156.90749 -20759810.84349  18415286.8914   18415291.3004
  20592640.707   -17366747.19049 -13517357.93649  20592638.7674   20592645.0974
  21493308.062     -340354.63259   -243287.36749  21493308.5914   21493318.5624
  20417812.066    -1257096.36649   -977743.30749  20417810.2684   20417816.8834
  17119612.329   -29758221.66349 -23175594.07449  17119612.2714   17119617.6594
  20904466.486     -129731.32149    -96933.81549  20904466.1844   20904474.9054
  18149986.295   -29983587.42549 -23341197.50749  18149984.1874   18149989.8644
 95  1  5 20 11 59.9890000  0  7 29 18 19 25 14 15 22
  18392700.887   -26780861.60549 -20852307.97549  18392698.0284   18392702.5534
  20563540.326   -17519689.19349 -13636533.41849  20563535.3044   20563541.2634
  21461684.309     -506564.75149   -372801.62649  21461680.5474   21461690.2794
  20420670.595    -1242074.05949   -966037.65249  20420669.6104   20420674.4074
  17103728.971   -29841690.50149 -23240634.70949  17103728.5044   17103734.2074
  20908976.181     -106040.86149    -78473.88949  20908974.3364   20908984.8954
  18132259.153   -30076741.30649 -23413784.90949  18132257.6894   18132263.3404
 95  1  5 20 12 29.9890000  0  7 29 18 19 25 14 15 22
  18370124.752   -26899475.81949 -20944734.60249  18370126.1444   18370131.0514
  20534429.051   -17672636.79649 -13755713.27549  20534430.0524   20534436.0084
  21430079.397     -672646.98049   -502216.17149  21430076.5274   21430086.8734
  20423521.763    -1227033.27549   -954317.60549  20423531.4714   20423536.7224
  17087944.251   -29924641.96849 -23305272.20749  17087943.4434   17087948.9704
  20913471.567      -82377.13749    -60034.79149  20913477.5824   20913487.0794
  18114636.754   -30169334.88149 -23485935.70549  18114637.5604   18114643.4324
 95  1  5 20 12 59.9890000  0  7 29 18 19 25 14 15 22
  18347575.460   -27017983.90249 -21037078.53849  18347575.1184   18347579.6234
  20505337.416   -17825548.52849 -13874865.14249  20505331.0944   20505338.5294
  21398498.551     -838585.87349   -631519.06149  21398500.9474   21398509.3194
  20426401.458    -1211942.96849   -942558.93649  20426403.0244   20426408.7244
  17072262.556   -30007047.64249 -23369484.41449  17072262.2614   17072267.6954
  20917977.634      -58720.88449    -41601.50949  20917978.6164   20917989.8104
  18097128.343   -30261351.01949 -23557636.55449  18097127.6154   18097133.1504
 95  1  5 20 13 29.9890000  0  7 29 18 19 25 14 15 22
  18325053.089   -27136353.86249 -21129314.84349  18325050.1064   18325054.6474
  20476251.496   -17978375.71349 -13993951.11849  20476249.6684   20476256.5034
  21366959.010    -1004346.92049   -760683.31649  21366955.8234   21366965.5354
  20429291.222    -1196760.89149   -930728.78749  20429291.9074   20429298.4214
  17056691.972   -30088872.57149 -23433244.08949  17056691.5524   17056696.8554
  20922483.053      -35036.36449    -23146.21149  20922486.9264   20922496.7134
  18079740.070   -30352733.63849 -23628843.74549  18079737.8974   18079743.4974
 95  1  5 20 13 59.9890000  0  7 29 18 19 25 14 15 22
  18302544.611   -27254622.93549 -21221472.54349  18302544.0274   18302548.8464
  20447175.628   -18131157.26249 -14113001.56549  20447175.6434   20447182.4524
  21335427.416    -1169990.67949   -889756.12549  21335434.5894   21335444.3384
  20432193.418    -1181516.53649   -918850.10549  20432192.3344   20432200.3444
  17041225.113   -30170150.65249 -23496577.64849  17041224.5764   17041230.0974
  20926984.948      -11361.46849     -4698.42449  20926990.9484   20927001.1364
  18062467.158   -30443492.20449 -23699564.66649  18062467.0154   18062472.5954
 95  1  5 20 14 29.9890000  0  7 29 18 19 25 14 15 22
  18280059.313   -27372782.55749 -21313544.95349  18280058.9414   18280063.8664
  20418114.534   -18283872.46249 -14232000.32249  20418115.7354   20418121.9474
  21303942.057    -1335486.35149  -1018713.47949  21303940.2294   21303950.8734
  20435116.415    -1166178.55349   -906898.45449  20435112.3134   20435117.9314
  17025868.406   -30250854.73349 -23559463.93349  17025866.9574   17025872.5534
  20931502.279       12323.78949     13757.44649  20931500.6604   20931509.0494
  18045318.331   -30533613.77749 -23769789.22749  18045317.3604   18045323.2214
 95  1  5 20 14 59.9890000  0  7 29 18 19 25 14 15 22
  18257580.279   -27490904.70149 -21405588.16549  18257581.0924   18257585.9084
  20389054.791   -18436587.97049 -14350999.32349  20389054.7334   20389061.7534
  21272465.289    -1500886.73149  -1147596.56949  21272467.2754   21272476.7314
  20438040.572    -1150819.81149   -894930.65749  20438035.5734   20438040.6774
  17010607.431   -30331051.95549 -23621955.26449  17010605.9814   17010611.6834
  20935994.952       35950.97649     32168.02949  20935995.1614   20936005.2774
  18028274.500   -30623180.54149 -23839581.47349  18028273.1164   18028279.0224
 95  1  5 20 15 29.9890000  0  7 29 18 19 25 14 15 22
  18235123.487   -27608913.40749 -21497542.96349  18235124.3464   18235129.4764
  20360001.731   -18589253.96649 -14469959.72949  20360002.9004   20360009.1324
  21241026.259    -1666120.48849  -1276349.90449  21241025.0604   21241034.3424
  20440972.563    -1135387.38749   -882905.42649  20440971.8304   20440978.9444
  16995454.835   -30410677.89149 -23684001.43349  16995453.2674   16995459.1904
  20940498.397       59582.75849     50582.22549  20940493.2024   20940502.1704
  18011349.784   -30712132.78249 -23908894.86949  18011346.0204   18011352.1184
 95  1  5 20 15 59.9890000  0  7 29 18 19 25 14 15 22
  18212681.518   -27726836.97949 -21589431.44249  18212684.4814   18212689.3024
  20330947.390   -18741924.36949 -14588923.59649  20330950.7794   20330956.7244
  21209610.217    -1831206.70649  -1404988.23749  21209610.2274   21209618.3694
  20443911.457    -1119935.32849   -870864.88949  20443911.6314   20443918.4374
  16980404.098   -30489767.52449 -23745629.70849  16980403.4404   16980409.0084
  20944970.128       83173.06949     68964.08749  20944979.9374   20944991.8194
  17994527.181   -30800517.94249 -23977766.38549  17994527.1144   17994532.7534
 95  1  5 20 16 29.9890000  0  6 29 18 25 14 15 22
  18190257.109   -27844684.72649 -21681260.83349  18190258.5414   18190263.6344
  20301888.150   -18894636.51849 -14707919.96749  20301889.8544   20301897.2534
  20446847.467    -1104506.25249   -858842.27249  20446847.3204   20446853.8254
  16965447.482   -30568358.54749 -23806869.45549  16965447.8174   16965453.6964
  20949462.384      106684.23649     87284.30049  20949456.4204   20949466.2044
  17977808.360   -30888380.15349 -24046230.40549  17977807.6624   17977813.0584
 95  1  5 20 16 59.9890000  0  7 29 18 19 25 14 15 22
  18167868.079   -27962350.70449 -21772948.58849  18167867.4324   18167872.3464
  20272837.956   -19047309.66849 -14826885.95449  20272838.4434   20272844.3844
  21146865.081     -129464.34819
  20449795.084    -1089033.38649   -846785.54449  20449792.0934   20449798.4334
  16950601.853   -30646378.69149 -23867664.35949  16950601.1404   16950606.9714
  20953921.319      130191.99549    105601.82549  20953929.3304   20953938.8784
  17961205.001   -30975634.68349 -24114220.90749  17961203.4944   17961208.7504
 95  1  5 20 17 29.9890000  0  7 29 18 19 25 14 15 22
  18145506.784   -28079855.08149 -21864510.41649  18145507.1594   18145511.9134
  20243786.263   -19199975.07049 -14945845.95949  20243786.9164   20243791.9064
  21115560.356     -294003.15959   -189281.13959  21115564.2834   21115569.7084
  20452744.983    -1073532.14449   -834706.71149  20452742.5174   20452747.7584
  16935858.247   -30723845.10549 -23928027.78749  16935859.7454   16935865.4184
  20958400.995      153667.01149    123893.85649  20958396.1514   20958406.2664
  17944713.963   -31062294.97649 -24181748.37149  17944712.5234   17944717.9654
 95  1  5 20 17 59.9890000  0  7 29 18 19 25 14 15 22
  18123179.020   -28197189.50849 -21955939.82849  18123179.4994   18123184.1024
  20214740.523   -19352608.36649 -15064780.93349  20214742.1824   20214747.5774
  21084288.908     -458336.72449   -317333.06549  21084293.2704   21084299.7024
  20455698.854    -1057975.96149   -822585.08449  20455702.9714   20455709.1774
  16921230.145   -30800733.61149 -23987940.89649  16921228.4174   16921233.9274
  20962864.852      177123.03649    142171.06349  20962861.4774   20962870.8554
  17928339.750   -31148337.18849 -24248794.21749  17928339.0284   17928344.8034
 95  1  5 20 18 29.9890000  0  7 29 18 19 25 14 15 22
  18100875.861   -28314390.08349 -22047264.93349  18100876.7294   18100881.3024
  20185699.439   -19505214.40349 -15183694.67349  20185700.8584   20185706.4174
  21053048.121     -622510.15549   -445260.17449  21053050.4014   21053059.0484
  20458674.473    -1042372.01949   -810426.20749  20458672.9984   20458678.3344
  16906704.236   -30877061.81349 -24047417.40549  16906703.7584   16906709.2844
  20967314.474      200541.02249    160418.65549  20967316.5454   20967326.7644
  17912082.256   -31233775.45349 -24315369.46449  17912080.5354   17912086.4054
 95  1  5 20 18 59.9890000  0  7 29 18 19 25 14 15 22
  18078600.161   -28431457.47849 -22138486.24049  18078599.3814   18078604.3064
  20156669.158   -19657770.10649 -15302569.16049  20156669.3194   20156676.6044
  21021832.650     -786515.95649   -573056.70649  21021841.0164   21021850.7014
  20461658.855    -1026691.01749   -798207.28349  20461657.5464   20461662.4264
  16892294.889   -30952792.18849 -24106428.06949  16892292.4854   16892298.3584
  20971772.229      223940.92949    178652.14749  20971770.0934   20971779.6654
  17895943.713   -31318584.13049 -24381454.12149  17895942.1244   17895948.0604
 95  1  5 20 19 29.9890000  0  7 29 18 19 25 14 15 22
  18056339.792   -28548435.99049 -22229638.30949  18056339.3604   18056344.0684
  20127647.061   -19810312.67149 -15421433.39549  20127641.0554   20127648.8674
  20990663.127     -950370.09549   -700735.00049  20990659.7684   20990670.0814
  20464647.273    -1010959.14249   -785948.72749  20464649.9524   20464655.1084
  16877993.901   -31027935.56749 -24164981.33949  16877993.2234   16877998.9804
  20976218.949      247293.45549    196848.70449  20976215.4594   20976224.6794
  17879921.295   -31402787.06249 -24447066.76649  17879919.0594   17879924.8004
 95  1  5 20 19 59.9890000  0  7 29 18 19 25 14 15 22
  18034095.160   -28665323.89949 -22320719.78049  18034096.2954   18034100.8624
  20098615.426   -19962844.86149 -15540289.55949  20098615.6264   20098622.8214
  20959504.315    -1114086.42749   -828306.02049  20959507.2014   20959516.2304
  20467643.665     -995190.77449   -773661.75149  20467650.3044   20467656.1944
  16863804.594   -31102501.06149 -24223084.30649  16863803.9184   16863809.5524
  20980639.590      270594.54649    215005.19849  20980646.5824   20980657.3934
  17864009.791   -31486397.51749 -24512217.74749  17864008.7364   17864014.2084
 95  1  5 20 20 29.9880000  0  7 29 18 19 25 14 15 22
  18011864.185   -28782153.45549 -22411755.80049  18011864.5474   18011869.1674
  20069584.795   -20115408.54149 -15659170.27649  20069584.5434   20069591.3394
  20928372.775    -1277698.74849   -955795.94849  20928371.0694   20928380.7594
  20470644.871     -979430.55649   -761381.06949  20470649.2514   20470656.9694
  16849717.082   -31176533.90549 -24280772.23649  16849716.4684   16849721.7634
  20985068.887      293796.69249    233084.59249  20985065.0524   20985074.0634
  17848206.022   -31569458.57649 -24576940.62049  17848202.8124   17848208.2424
 95  1  5 20 20 59.9880000  0  7 29 18 19 25 14 15 22
  17989652.799   -28898882.72949 -22502713.65349  17989651.8204   17989656.1454
  20040555.023   -20267978.97749 -15778056.22249  20040550.9494   20040558.3214
  20897271.962    -1441154.60149  -1083163.97049  20897268.0754   20897274.2604
  20473642.901     -963647.46249   -749082.60149  20473652.9844   20473658.4754
  16835736.702   -31250005.47149 -24338022.79749  16835735.1064   16835740.4934
  20989463.916      316934.92749    251114.15049  20989466.2914   20989478.1994
  17832508.589   -31651939.35149 -24641211.33049  17832506.9444   17832512.5034
 95  1  5 20 21 29.9880000  0  7 29 18 19 25 14 15 22
  17967463.916   -29015476.23549 -22593565.71449  17967464.6784   17967469.1514
  20011521.473   -20420535.61349 -15896931.43649  20011521.0574   20011527.1324
  20866197.788    -1604420.73349  -1210384.14449  20866198.0204   20866206.8054
  20476666.025     -947827.00049   -736755.01249  20476664.5104   20476668.6374
  16821862.636   -31322913.44949 -24394834.19549  16821861.1254   16821866.6374
  20993860.878      340022.25149    269104.04549  20993860.1554   20993871.3784
  17816928.335   -31733817.71849 -24705012.63349  17816925.7334   17816931.5034
 95  1  5 20 21 59.9880000  0  7 29 18 19 25 14 15 22
  17945302.738   -29131933.86249 -22684311.90249  17945303.7734   17945308.1144
  19982492.190   -20573075.30049 -16015793.45249  19982493.5864   19982500.4004
  20835161.765    -1767498.35049  -1337457.38849  20835165.3494   20835173.4264
  20479674.524     -931976.90749   -724404.34149  20479680.1004   20479685.6154
  16808091.030   -31395281.39449 -24451224.79149  16808089.8704   16808095.4024
  20998242.326      363046.98449    287045.14949  20998243.4124   20998252.3334
  17801456.738   -31815102.32649 -24768351.26649  17801457.9174   17801463.2194
 95  1  5 20 22 29.9880000  0  7 29 18 19 25 14 15 22
  17923169.020   -29248261.09149 -22774956.47749  17923167.3364   17923171.7514
  19953475.769   -20725584.70149 -16134631.85049  19953472.6044   19953478.2604
  20804165.536    -1930370.11749  -1464370.24649  20804172.3414   20804180.0524
  20482702.097     -916099.64049   -712032.50149  20482701.4314   20482709.3104
  16794419.944   -31467113.99149 -24507198.23149  16794420.7154   16794426.2244
  21002614.647      386003.31649    304932.96649  21002610.0924   21002622.2424
  17786105.942   -31895789.49749 -24831224.36349  17786103.7474   17786109.0514
 95  1  5 20 22 59.9880000  0  7 29 18 19 25 14 15 22
  17901055.414   -29364461.89749 -22865502.54749  17901054.9834   17901059.3454
  19924454.489   -20878074.55249 -16253455.06049  19924454.0724   19924459.7544
  20773214.571    -2093051.73549  -1591134.93649  20773214.3754   20773221.6754
  20485726.320     -900215.88549   -699655.57649  20485723.5974   20485729.6784
  16780851.470   -31538422.88849 -24562763.59849  16780851.1644   16780856.5644
  21006963.634      408881.05449    322759.50349  21006964.1334   21006976.9244
  17770867.293   -31975882.94749 -24893634.81949  17770862.7574   17770868.0784
 95  1  5 20 23 29.9880000  0  7 29 18 19 25 14 15 22
  17878968.423   -29480533.81949 -22955948.17249  17878967.1294   17878971.7734
  19895444.661   -21030534.73049 -16372255.12549  19895442.4094   19895448.1394
  20742293.112    -2255557.05049  -1717762.23449  20742290.6034   20742298.7584
  20488740.488     -884327.05649   -687274.72949  20488747.4914   20488751.3254
  16767383.569   -31609199.35449 -24617914.07349  16767382.7164   16767388.3464
  21011308.710      431685.94949    340529.29749  21011302.7624   21011315.5944
  17755736.680   -32055372.03649 -24955574.34749  17755736.1364   17755741.8694
 95  1  5 20 23 59.9880000  0  7 29 18 19 25 14 15 22
  17856901.040   -29596480.74649 -23046296.42249  17856903.0694   17856907.4294
  19866435.409   -21182948.73249 -16491019.23249  19866437.7164   19866444.0934
  20711396.969    -2417898.42849  -1844261.78049  20711397.9034   20711405.5974
  20491775.653     -868435.80149   -674891.97349  20491772.0624   20491779.6124
  16754019.878   -31679428.56949 -24672638.13649  16754018.7444   16754024.1074
  21015632.029      454419.63849    358243.61249  21015631.4804   21015641.2554
  17740725.427   -32134263.70749 -25017048.35849  17740723.3504   17740729.6114
 95  1  5 20 24 29.9880000  0  7 29 18 19 25 14 15 22
  17834860.192   -29712310.46449 -23136553.32849  17834861.3004   17834865.7914
  19837441.556   -21335330.38949 -16609758.11349  19837440.7994   19837447.8144
  20680535.558    -2580099.79249  -1970652.23749  20680531.3934   20680539.2734
  20494792.525     -852545.63849   -662510.05749  20494794.3074   20494802.8994
  16740760.087   -31749108.49749 -24726934.17749  16740758.9384   16740764.3014
  21019946.484      477077.08749    375898.50349  21019941.6824   21019952.5064
  17725826.922   -32212553.29649 -25078053.21649  17725825.4704   17725831.3664
 95  1  5 20 24 59.9880000  0  7 29 18 19 25 14 15 22
  17812842.377   -29828024.28649 -23226719.92649  17812841.7984   17812846.3764
  19808448.845   -21487693.19249 -16728482.29449  19808446.3674   19808453.4434
  20649692.133    -2742172.03949  -2096942.08249  20649689.5334   20649698.1254
  20497820.136     -836655.13549   -650127.90349  20497818.4294   20497824.2994
  16727606.071   -31818221.84549 -24780788.72949  16727607.0924   16727612.4924
  21024241.617      499658.71249    393494.32049  21024240.8654   21024250.9704
  17711043.040   -32290235.78649 -25138585.00849  17711043.0834   17711048.7504
 95  1  5 20 25 29.9880000  0  7 29 18 19 25 14 15 22
  17790845.056   -29943634.00549 -23316805.39949  17790842.0804   17790846.4914
  19779453.775   -21640029.16449 -16847185.60449  19779458.4454   19779464.2624
  20618869.993    -2904113.46749  -2223130.00849  20618873.0874   20618881.9724
  20500844.019     -820762.02249   -637743.71549  20500842.7984   20500851.2294
  16714565.781   -31886763.36449 -24834197.69849  16714564.0504   16714569.4604
  21028520.022      522158.47649    411026.34649  21028522.8844   21028531.2644
  17696376.228   -32367322.02149 -25198652.18649  17696374.1434   17696379.4904
 95  1  5 20 25 59.9880000  0  8 29  4 18 19 25 14 15 22
  17768863.879   -30059135.47049 -23406806.51249  17768862.6204   17768867.2014
  21309829.307   -11703388.71159  -9086308.94559  21309833.0824   21309838.9554
  19750475.702   -21792356.05049 -16965881.83049  19750471.3354   19750477.6734
  20588090.106    -3065922.66049  -2349214.89749  20588082.3504   20588090.4334
  20503867.231     -804861.11749   -625353.44749  20503868.9404   20503876.5274
  16701628.998   -31954741.43649 -24887167.61749  16701627.9704   16701633.7474
  21032794.831      544565.29249    428485.95149  21032786.3024   21032796.9514
  17681818.119   -32443818.57349 -25258259.86349  17681817.0864   17681822.2754
 95  1  5 20 26 29.9880000  0  8 29  4 18 19 25 14 15 22
  17746913.509   -30174486.42349 -23496690.35649  17746912.1624   17746916.7374
  21290950.203   -11802606.15849  -9163621.25849  21290953.0664   21290958.7954
  19721489.145   -21944654.17049 -17084555.66349  19721490.1864   19721496.0254
  20557323.667    -3227552.00249  -2475159.63249  20557325.9034   20557333.3254
  20506907.932     -788919.38049   -612931.36749  20506903.5604   20506909.8494
  16688805.040   -32022128.30249 -24939676.86249  16688804.4174   16688810.3424
  21037035.722      566902.81049    445891.50849  21037036.9184   21037048.1674
  17667382.882   -32519677.64049 -25317370.80249  17667381.1304   17667386.6934
 95  1  5 20 26 59.9880000  0  8 29  4 18 19 25 14 15 22
  17724990.980   -30289681.71549 -23586452.90549  17724991.0854   17724995.6984
  21272160.859   -11901332.64649  -9240550.98949  21272165.7974   21272172.5944
  19692516.991   -22096918.92449 -17203203.46249  19692515.0904   19692521.5934
  20526601.575    -3388990.66349  -2600955.85449  20526603.5444   20526611.1564
  20509940.892     -772959.31449   -600494.99449  20509940.5034   20509946.8524
  16676091.827   -32088929.05649 -24991729.39149  16676092.9094   16676098.6384
  21041268.739      589157.97849    463232.89449  21041272.5184   21041283.1424
  17653068.164   -32594913.28449 -25375995.96149  17653064.4484   17653069.9974
 95  1  5 20 27 29.9880000  0  8 29  4 18 19 25 14 15 22
  17703101.907   -30404711.24149 -23676086.28749  17703101.8174   17703106.1454
  21253473.494   -11999562.83549  -9317093.98749  21253473.6184   21253479.9464
  19663546.505   -22249143.90449 -17321820.28049  19663546.8614   19663553.6054
  20495916.308    -3550234.47549  -2726600.20649  20495921.3294   20495928.3924
  20512978.931     -756982.85249   -588045.87549  20512979.2704   20512987.8374
  16663490.981   -32155159.16449 -25043337.26349  16663489.6424   16663495.3214
  21045486.819      611323.88349    480504.74049  21045490.3344   21045500.8524
  17638867.874   -32669520.13549 -25434131.15549  17638867.4174   17638873.0404
 95  1  5 20 27 59.9880000  0  8 29  4 18 19 25 14 15 22
  17681244.754   -30519562.83649 -23765581.01949  17681245.9004   17681250.5914
  21234877.007   -12097307.34749  -9393258.52949  21234872.5824   21234879.4824
  19634589.163   -22401334.05049 -17440409.93149  19634586.8574   19634593.1994
  20465271.230    -3711276.83849  -2852087.59049  20465275.4344   20465282.2034
  20516030.262     -740981.25549   -575577.13749  20516025.3114   20516032.4454
  16650996.314   -32220816.58849 -25094498.88549  16650995.1674   16651001.1344
  21049698.128      633397.14749    497704.35849  21049689.1144   21049702.6504
  17624793.278   -32743489.95749 -25491769.95749  17624791.5224   17624797.2264
 95  1  5 20 28 29.9880000  0  8 29  4 18 19 25 14 15 22
  17659423.422   -30634239.96249 -23854939.80149  17659423.6664   17659428.2714
  21216366.823   -12194555.09549  -9469035.98249  21216366.8254   21216373.1694
  19605638.186   -22553460.67549 -17558950.08249  19605637.5714   19605643.7864
  20434680.307    -3872095.50449  -2977400.73749  20434672.9864   20434679.5484
  20519075.241     -724948.98049   -563084.51149  20519074.8424   20519082.7414
  16638616.450   -32285871.10649 -25145190.71449  16638615.8604   16638621.5664
  21053878.586      655390.74649    514841.92349  21053878.1414   21053888.5214
  17610838.911   -32816808.74549 -25548901.46349  17610839.4844   17610845.1524
 95  1  5 20 28 59.9880000  0  8 29  4 18 19 25 14 15 22
  17637623.885   -30748802.73049 -23944209.47749  17637623.0904   17637627.6464
  21197950.011   -12291346.59549  -9544457.89549  21197949.0854   21197954.6204
  19576697.159   -22705563.28349 -17677471.53549  19576693.7264   19576699.8854
  20404097.469    -4032739.79249  -3102577.96549  20404102.5354   20404109.8864
  20522123.578     -708923.94649   -550597.54249  20522124.1154   20522130.7294
  16626346.104   -32350354.53849 -25195437.54549  16626345.1984   16626350.9194
  21058039.371      677263.00049    531884.95849  21058038.9864   21058050.2804
  17596999.971   -32889539.03049 -25605574.39949  17596999.3124   17597004.9734
 95  1  5 20 29 29.9880000  0  8 29  4 18 19 25 14 15 22
  17615856.276   -30863194.33949 -24033345.78049  17615855.3694   17615859.6754
  21179626.813   -12387621.32949  -9619477.15149  21179628.2144   21179634.7634
  19547767.611   -22857576.83449 -17795923.57649  19547766.5924   19547772.2004
  20373576.020    -4193129.17749  -3227556.58849  20373580.5634   20373589.1124
  20525188.068     -692810.94549   -538041.97749  20525191.5434   20525198.3564
  16614199.384   -32414186.26449 -25245176.54849  16614198.6304   16614204.0514
  21062202.133      699086.94249    548890.29749  21062191.3784   21062204.0064
  17583285.723   -32961619.54949 -25661741.03249  17583282.8144   17583288.2754
 95  1  5 20 29 59.9880000  0  8 29  4 18 19 25 14 15 22
  17594104.185   -30977500.16449 -24122415.23649  17594103.4534   17594107.9954
  21161392.970   -12483447.69349  -9694147.01849  21161392.7184   21161399.8404
  19518844.080   -23009573.03649 -17914362.12249  19518842.6394   19518848.7994
  20343093.831    -4353332.53749  -3352390.24049  20343096.2474   20343102.6854
  20528256.553     -676692.13849   -525481.94649  20528259.6384   20528263.8974
  16602163.970   -32477428.18549 -25294455.96849  16602163.9864   16602169.6254
  21066321.480      720793.20649    565803.93649  21066318.9684   21066335.4924
  17569675.301   -33033138.69649 -25717470.23149  17569672.6304   17569678.3354
 95  1  5 20 30 29.9880000  0  8 29  4 18 19 25 14 15 22
  17572376.495   -31091670.96049 -24211379.48049  17572377.6044   17572382.1004
  21143257.119   -12578751.85249  -9768409.98649  21143257.2934   21143263.8474
  19489927.616   -23161502.50349 -18032748.66049  19489931.3544   19489936.9614
  20312655.545    -4513310.75249  -3477048.47049  20312654.6224   20312659.2734
  20531329.770     -660541.70649   -512897.25949  20531331.9344   20531340.1064
  16590248.801   -32540049.99949 -25343252.18649  16590247.3304   16590253.0664
  21070442.566      742423.76649    582658.55049  21070441.4664   21070450.0184
  17556175.436   -33104064.12649 -25772736.79049  17556175.9434   17556181.2084
 95  1  5 20 30 59.9870000  0  8 29  4 18 19 25 14 15 22
  17550675.195   -31205718.64649 -24300247.79549  17550674.9534   17550679.6224
  21125220.253   -12673558.35249  -9842285.14849  21125216.3364   21125223.7704
  19461031.333   -23313397.07249 -18151108.01349  19461026.8604   19461032.9044
  20282233.318    -4673093.42349  -3601554.35049  20282247.0974   20282254.4254
  20534402.480     -644389.81149   -500311.43749  20534405.7904   20534411.9914
  16578436.719   -32602111.30349 -25391611.64649  16578437.5864   16578443.1864
  21074538.208                                    21074531.500    21074546.1254
  17542786.723   -33174429.61349 -25827567.03249  17542786.2984   17542791.3604
 95  1  5 20 31 29.9870000  0  8 29  4 18 19 25 14 15 22
  17529005.561   -31319597.68549 -24388984.69649  17529004.4614   17529009.2254
  21107278.858   -12767841.00649  -9915752.14049  21107275.0044   21107281.4594
  19432133.675   -23465227.86749 -18269417.69049  19432134.0424   19432139.8914
  20251880.440    -4832663.93249  -3725894.87449  20251881.7484   20251889.1344
  20537497.857     -628219.10449   -487710.91149  20537483.3414   20537489.3394
  16566738.181   -32663598.85549 -25439524.02749  16566736.8824   16566742.4844
  21078617.544       20522.15519
  17529514.248   -33244189.31949 -25881925.22749  17529511.6234   17529516.7594
 95  1  5 20 31 59.9870000  0  7 29  4 18 19 25 14 22
  17507365.592   -31433305.49949 -24477588.17149  17507366.7384   17507371.4394
  21089432.843   -12861602.88349  -9988813.33349  21089432.4214   21089439.6614
  19403255.009   -23616993.64449 -18387676.68749  19403254.8254   19403260.1924
  20221534.884    -4992056.80349  -3850096.98449  20221550.4684   20221557.5344
  20540558.753     -612061.35449   -475120.58449  20540558.8364   20540564.6224
  16555138.669   -32724549.03449 -25487017.67449  16555138.4404   16555144.1274
  17516356.328   -33313343.67549 -25935811.72449  17516352.1884   17516357.5324
 95  1  5 20 32 29.9870000  0  7 29  4 18 19 25 14 22
  17485758.325   -31546853.05649 -24566066.77149  17485759.2354   17485763.9634
  21071677.492   -12954882.45949 -10061498.73049  21071680.7684   21071688.1274
  19374383.938   -23768712.67949 -18505899.26649  19374382.3774   19374388.5964
  20191243.134    -5151300.88449  -3974183.17149  20191247.7434   20191254.8574
  20543628.454     -595925.02049   -462546.82749  20543628.4134   20543636.5514
  16543637.004   -32784989.37449 -25534114.04549  16543636.8164   16543642.7294
  17503312.944   -33381896.09149 -25989229.17549  17503306.8594   17503312.5924
 95  1  5 20 32 59.9870000  0  7 29  4 18 19 25 14 22
  17464186.468   -31660215.73249 -24654401.31049  17464186.8284   17464191.6894
  21054027.732   -13047660.35649 -10133793.23949  21054026.7034   21054032.8664
  19345522.958   -23920347.01349 -18624055.83749  19345527.3544   19345533.8174
  20160987.312    -5310360.40049  -4098125.50949  20160978.2844   20160985.7834
  20546695.842     -579768.72549   -449957.58249  20546701.4724   20546707.5334
  16532243.792   -32844862.06149 -25580768.09049  16532243.5384   16532249.4114
  17490387.650   -33449792.76649 -26042135.66149  17490386.2084   17490392.4624
 95  1  5 20 33 29.9870000  0  7 29  4 18 19 25 14 22
  17442652.196   -31773390.52249 -24742589.44649  17442650.2894   17442654.9664
  21036469.959   -13139926.82749 -10205689.20949  21036468.9804   21036475.0844
  19316688.309   -24071888.41349 -18742140.01949  19316690.5894   19316696.2874
  20130745.032    -5469236.66649  -4221925.06049  20130744.6534   20130754.1854
  20549772.021     -563591.27049   -437351.84549  20549782.7924   20549788.3604
  16520963.552   -32904137.50349 -25626956.74749  16520963.7954   16520969.6404
  17477593.139   -33517021.11549 -26094521.38449  17477592.8584   17477598.8124
 95  1  5 20 33 59.9870000  0  7 29  4 18 19 25 14 22
  17421140.368   -31886429.76949 -24830671.96249  17421139.6594   17421144.4214
  21018994.584   -13231725.75049 -10277220.81049  21019000.0804   21019006.2394
  19287857.426   -24223384.05149 -18860188.52749  19287861.5494   19287867.5224
  20100535.946    -5627958.24949  -4345604.04749  20100540.5614   20100549.5484
  20552852.418     -547423.51249   -424753.65349  20552857.7134   20552863.7174
  16509791.390   -32962841.75349 -25672700.32649  16509792.5314   16509798.5384
  17464919.313   -33583624.55749 -26146420.15749  17464918.9324   17464924.3744
 95  1  5 20 34 29.9870000  0  7 29  4 18 19 25 14 22
  17399652.064   -31999357.57649 -24918667.63649  17399650.2514   17399654.9934
  21001618.714   -13323073.30249 -10348400.73049  21001615.6514   21001622.8514
  19259042.514   -24374872.62849 -18978231.53049  19259034.1974   19259040.1524
  20070355.299    -5786520.75349  -4469159.10749  20070367.8294   20070375.2324
  20555926.257     -531288.44849   -412180.95549  20555928.7914   20555935.4014
  16498733.183   -33020964.48849 -25717990.77149  16498732.2814   16498738.1174
  17452357.844   -33649619.88049 -26197845.07049  17452360.6084   17452365.7324
 95  1  5 20 34 59.9870000  0  7 29  4 18 19 25 14 22
  17378194.348   -32112115.98649 -25006531.31549  17378193.0734   17378197.7554
  20984334.643   -13413894.78649 -10419170.68749  20984334.4374   20984341.2354
  19230213.609   -24526298.59849 -19096225.74049  19230218.3514   19230224.5644
  20040233.943    -5944855.55949  -4592536.69449  20040238.0424   20040244.2164
  20559007.764     -515132.39549   -399591.88549  20559002.5994   20559010.6214
  16487794.843   -33078443.04349 -25762779.25849  16487794.4464   16487800.1814
  17439925.522   -33714966.23549 -26248764.28649  17439925.7194   17439930.8564
 95  1  5 20 35 29.9870000  0  7 29  4 18 19 25 14 22
  17356767.935   -32224706.47149 -25094264.14749  17356767.7394   17356772.5444
  20967151.014   -13504193.01549 -10489532.92449  20967150.6004   20967157.0194
  19201417.830   -24677679.25049 -19214184.64349  19201412.0074   19201418.4674
  20010148.113    -6102962.26349  -4715736.54949  20010151.3824   20010158.0744
  20562085.542     -498955.40349   -386986.49849  20562081.6934   20562087.8614
  16476974.235   -33135304.62749 -25807086.98949  16476974.0894   16476979.9154
  17427611.730   -33779688.76349 -26299197.41149  17427609.0684   17427614.6834
 95  1  5 20 35 59.9870000  0  7 29  4 18 19 25 14 22
  17335372.982   -32337142.15449 -25181876.35449  17335371.7584   17335376.5974
  20950054.822   -13593980.19449 -10559496.96649  20950063.9004   20950072.2914
  19172611.591   -24829032.79349 -19332122.41849  19172610.4514   19172616.1944
  19980104.197    -6260836.62249  -4838755.33349  19980108.4074   19980115.1724
  20565168.907     -482761.90649   -374368.25949  20565163.5764   20565170.1364
  16466267.869   -33191573.28949 -25850932.70249  16466266.4064   16466272.3734
  17415410.849   -33843801.75549 -26349155.57149  17415408.7444   17415414.1954
 95  1  5 20 36 29.9870000  0  7 29  4 18 19 25 14 22
  17314002.508   -32449448.40349 -25269387.69749  17314000.9174   17314005.6234
  20933069.412   -13683285.50949 -10629085.47949  20933069.8644   20933078.1244
  19143809.923   -24980385.49649 -19450059.53849  19143808.3844   19143814.7234
  19950107.308    -6418513.23749  -4961620.03549  19950103.1844   19950109.8204
  20568247.877     -466585.31649   -361763.18849  20568241.5314   20568248.6784
  16455661.739   -33247303.63949 -25894358.95149  16455661.5194   16455667.1464
  17403320.109   -33907343.06949 -26398668.27349  17403317.1824   17403322.9904
 95  1  5 20 36 59.9870000  0  7 29  4 18 19 25 14 22
  17292659.104   -32561598.46149 -25356777.34149  17292659.3754   17292664.0344
  20916173.541   -13772081.97749 -10698277.51149  20916174.1204   20916179.9024
  19115021.533   -25131690.48249 -19567959.48449  19115015.2574   19115021.8954
  19920142.005    -6575979.29249  -5084320.67149  19920138.1744   19920144.4634
  20571315.550     -450404.79649   -349155.04849  20571319.6714   20571328.0854
  16445158.587   -33302501.29749 -25937370.12049  16445157.6454   16445163.3494
  17391336.770   -33970294.65749 -26447721.45649  17391337.8904   17391343.9394
 95  1  5 20 37 29.9870000  0  7 29  4 18 19 25 14 22
  17271352.117   -32673576.90749 -25444033.25449  17271350.5584   17271355.2254
  20899375.969   -13860357.75849 -10767063.83749  20899376.2724   20899382.5334
  19086230.380   -25282932.75249 -19685810.54749  19086235.4444   19086241.5694
  19890219.026    -6733223.72249  -5206848.61649  19890215.5984   19890221.8714
  20574400.234     -434223.02459   -336545.93459  20574401.0044   20574406.6384
  16434758.500   -33357156.31649 -25979958.45149  16434757.2844   16434762.9034
  17379475.603   -34032628.45249 -26496293.24049  17379476.0794   17379481.9324
 95  1  5 20 37 59.9870000  0  7 29  4 18 19 25 14 22
  17250067.862   -32785428.08749 -25531190.00149  17250065.8594   17250070.6644
  20882665.102   -13948171.07549 -10835489.86949  20882666.0594   20882670.7924
  19057458.595   -25434143.34849 -19803636.93249  19057461.8304   19057466.8434
  19860323.819    -6890293.39149  -5329240.38049  19860327.0324   19860332.4014
  20577466.330     -418102.76949   -323984.75849  20577466.6074   20577474.5644
  16424452.055   -33411297.84149 -26022146.66249  16424454.3794   16424460.1714
  17367731.749   -34094366.93049 -26544401.14149  17367727.6094   17367733.5544
 95  1  5 20 38 29.9870000  0  7 29  4 18 19 25 14 22
  17228821.226   -32897070.69149 -25618184.22549  17228821.1784   17228825.7364
  20866053.027   -14035457.12749 -10903505.02749  20866056.7284   20866060.5624
  19028710.399   -25585239.97759 -19921374.53649  19028708.1584   19028714.2634
  19830488.921    -7047124.91949  -5451446.61649  19830481.9974   19830488.0964
  20580535.588     -401990.16859   -311429.51459  20580533.5674   20580541.6084
  16414263.704   -33464846.38949 -26063872.80849  16414264.4374   16414270.2074
  17356107.864   -34155441.67249 -26591991.84849  17356105.6574   17356111.3174
 95  1  5 20 38 59.9870000  0  7 29  4 18 19 25 14 22
  17207607.237   -33008550.74849 -25705051.78949  17207606.8004   17207611.7554
  20849537.175   -14122265.22049 -10971147.70649  20849535.7394   20849542.2074
  18999967.863   -25736268.56149 -20039059.10849  18999968.7024   18999974.7224
  19800678.808    -7203771.29949  -5573508.55949  19800672.0984   19800679.5784
  20583587.630     -385927.49249   -298913.21449  20583590.1024   20583596.9184
  16404182.774   -33517824.15849 -26105154.19549  16404182.8934   16404188.7834
  17344604.301   -34215896.79649 -26639099.72249  17344601.3794   17344607.0234
 95  1  5 20 39 29.9870000  0  7 29  4 18 19 25 14 22
  17186415.923   -33119913.53749 -25791827.97549  17186415.2344   17186420.0954
  20833107.119   -14208653.85349 -11038463.50049  20833096.6934   20833102.5604
  18971234.296   -25887281.68159 -20156731.63459  18971231.8124   18971237.7904
  19770902.159    -7360267.56649  -5695453.55949  19770891.6244   19770900.1324
  20586640.428     -369932.53159   -286449.67159  20586635.0284   20586641.7544
  16394207.177   -33570249.09749 -26146004.80049  16394206.8444   16394212.7494
  17333210.837   -34275765.89849 -26685750.95549  17333208.9554   17333214.5134
 95  1  5 20 39 59.9870000  0  7 29  4 18 19 25 14 22
  17165255.607   -33231105.29549 -25878470.89649  17165256.1964   17165261.0204
  20816745.736   -14294579.14749 -11105418.24849  20816746.5864   20816753.3164
  18942508.372   -26038222.45749 -20274347.79749  18942508.7614   18942514.7384
  19741156.671    -7516561.93449  -5817241.23049  19741150.4714   19741158.0074
  20589678.881     -353938.15949   -273986.58849  20589676.8454   20589684.6154
  16384346.125   -33622068.40649 -26186383.49249  16384345.9134   16384351.7804
  17321936.249   -34335002.99249 -26731909.72549  17321935.9934   17321941.6774
 95  1  5 20 40 29.9870000  0  7 29  4 18 19 25 14 22
  17144124.350   -33342121.07649 -25964976.69049  17144130.4044   17144135.4114
  20800491.357   -14380017.44749 -11171993.50349  20800486.3984   20800494.5944
  18913798.285   -26189094.25459 -20391910.19849  18913798.5894   18913804.6084
  19711449.354    -7672656.73849  -5938873.39849  19711445.4554   19711453.6954
  20592718.194     -337925.61659   -261509.31259  20592724.7604   20592732.3954
  16374602.368   -33673285.83549 -26226293.18749  16374599.6674   16374605.5454
  17310780.602   -34393628.66649 -26777592.06249  17310779.9144   17310785.5664
 95  1  5 20 40 59.9870000  0  7 29  4 18 19 25 14 22
  17123033.494   -33452978.97349 -26051359.46249  17123035.0484   17123039.9344
  20784324.635   -14464964.24149 -11238185.79749  20784321.9824   20784329.0224
  18885100.914   -26339918.13249 -20509435.26249  18885098.2694   18885104.0864
  19681782.941    -7828564.48049  -6060359.83149  19681778.3004   19681785.3074
  20595777.587     -321899.08849   -249021.20449  20595774.7314   20595781.5704
  16364966.443   -33723904.58949 -26265736.37949  16364967.2884   16364973.0494
  17299738.209   -34451659.93549 -26822811.23649  17299736.9404   17299742.8984
 95  1  5 20 41 29.9860000  0  7 29  4 18 19 25 14 22
  17101976.757   -33563640.54249 -26137589.25049  17101976.9524   17101981.7614
  20768255.880   -14549384.68349 -11303967.97549  20768258.8204   20768266.5004
  18856411.116   -26490667.91559 -20626902.60349  18856411.9804   18856417.4764
  19652148.331    -7984235.60349  -6181661.86549  19652155.3024   19652162.0954
  20598831.403     -305846.69559   -236512.83759  20598827.8294   20598838.0704
  16355453.613   -33773904.66649 -26304697.48349  16355452.8094   16355458.4824
  17288815.966   -34509064.79549 -26867542.29349  17288813.5354   17288819.0404
 95  1  5 20 41 59.9860000  0  7 29  4 18 19 25 14 22
  17080946.413   -33674158.83549 -26223707.39149  17080945.6954   17080950.7034
  20752290.136   -14633306.57049 -11369361.70149  20752289.0064   20752294.6584
  18827731.417   -26641399.59449 -20744355.83249  18827728.3184   18827733.8974
  19622561.071    -8139725.82249  -6302822.91849  19622566.0504   19622572.6904
  20601875.645     -289832.19659   -224034.11459  20601876.6684   20601883.9644
  16346045.485   -33823347.66349 -26343224.50549  16346043.7324   16346049.5194
  17277994.821   -34565911.62149 -26911838.51349  17277995.9444   17278001.6864
 95  1  5 20 42 29.9860000  0  7 29  4 18 19 25 14 22
  17059952.927   -33784475.65749 -26309668.54849  17059953.3794   17059958.2944
  20736428.947   -14716654.00649 -11434307.76549  20736428.8964   20736434.7784
  18799057.888   -26792060.45749 -20861753.87849  18799057.8714   18799064.1594
  19593033.536    -8294968.47849  -6423791.09949  19593024.8894   19593030.6714
  20604930.743     -273796.49649   -211538.84249  20604929.3024   20604936.2034
  16336752.429   -33872169.85649 -26381267.78449  16336753.4044   16336759.2224
  17267295.547   -34622142.52449 -26955654.80249  17267295.5374   17267300.9704
 95  1  5 20 42 59.9860000  0  7 29  4 18 19 25 14 22
  17038991.554   -33894639.99949 -26395510.88549  17038990.0114   17038994.7004
  20720663.977   -14799486.76949 -11498852.78549  20720666.1014   20720672.0204
  18770398.064   -26942689.31449 -20979126.98649  18770394.8104   18770400.3234
  19563526.244    -8449995.43949  -6544591.20949  19563522.6764   19563530.0024
  20607980.289     -257786.26449   -199063.37049  20607974.7594   20607981.1234
  16327573.205   -33920421.70949 -26418866.63849  16327571.5864   16327577.1884
  17256710.173   -34677782.78949 -26999010.85049  17256707.5614   17256713.0994
 95  1  5 20 43 29.9860000  0  7 29  4 18 19 25 14 22
  17018061.764   -34004616.36249 -26481206.74049  17018061.9884   17018066.8344
  20705005.513   -14881780.10249 -11562977.43149  20705004.5694   20705011.1514
  18741746.227   -27093223.24249 -21096426.13649  18741748.7404   18741754.6804
  19534068.951    -8604768.63949  -6665193.58649  19534070.9944   19534077.5384
  20611025.351     -241753.56049   -186570.38449  20611024.4304   20611033.6404
  16318503.613   -33968076.13549 -26455999.96249  16318502.9594   16318508.8254
  17246243.444   -34732782.99949 -27041868.15249  17246240.9214   17246246.7484
 95  1  5 20 43 59.9860000  0  6 29  4 18 19 14 22
  16997148.785   -34114515.71749 -26566842.59849  16997148.6914   16997153.6384
  20689425.223   -14963652.57449 -11626774.17749  20689424.6434   20689431.0504
  18713106.284   -27243749.50849 -21213719.29949  18713104.4134   18713110.4364
  19504642.371    -8759412.14849  -6785694.90249  19504644.7554   19504649.8014
  16309526.828   -34015239.75149 -26492750.84349  16309527.8654   16309533.8034
  17235878.445   -34787256.05849 -27084314.69249  17235875.2154   17235880.8794
 95  1  5 20 44 29.9860000  0  6 29  4 18 19 14 22
  16976267.137   -34224245.70649 -26652346.47949  16976267.7504   16976272.6374
  20673940.264   -15045055.06849 -11690204.64849  20673933.8294   20673942.5384
  18684485.308   -27394176.77549 -21330935.32449  18684479.4294   18684485.2514
  19475256.876    -8913845.69849  -6906032.63749  19475255.3844   19475261.4274
  16300662.397   -34061828.29849 -26529053.61549  16300662.4254   16300668.3284
  17225629.239   -34841105.86349 -27126275.57149  17225627.9304   17225633.5474
 95  1  5 20 44 59.9860000  0  6 29  4 18 19 14 22
  16955422.555   -34333789.77149 -26737705.47949  16955422.1784   16955427.0964
  20658530.438   -15125994.92749 -11753274.70049  20658532.1104   20658539.3624
  18655883.313   -27544481.55849 -21448055.91149  18655877.2254   18655882.8564
  19445912.831    -9068065.55549  -7026203.85849  19445908.6084   19445914.8184
  16291906.671   -34107843.74049 -26564909.81049  16291905.9804   16291911.9014
  17215502.526   -34894326.09349 -27167745.87449  17215500.7554   17215506.2464
 95  1  5 20 45 29.9860000  0  6 29  4 18 19 14 22
  16934613.393   -34443144.57849 -26822917.00549  16934612.5674   16934617.3734
  20643217.028   -15206484.36749 -11815993.75449  20643216.1204   20643224.0694
  18627292.645   -27694679.57949 -21565093.30649  18627295.6214   18627301.2284
  19416596.247    -9222093.12249  -7146225.26349  19416597.2214   19416603.9944
  16283256.399   -34153291.41449 -26600323.59549  16283257.7564   16283263.5354
  17205485.808   -34946943.80149 -27208746.67849  17205487.6584   17205493.3654
 95  1  5 20 45 59.9860000  0  6 29  4 18 19 14 22
  16913835.472   -34552321.41249 -26907989.85549  16913836.9954   16913841.9834
  20627980.424   -15286542.54949 -11878376.79149  20627981.8814   20627988.5574
  18598731.891   -27844819.26549 -21682085.24949  18598724.6154   18598730.5414
  19387328.227    -9375939.65549  -7266105.60049  19387321.4184   19387328.4094
  16274712.344   -34198201.80949 -26635318.72249  16274711.4634   16274717.5044
  17195585.903   -34998987.04449 -27249299.85949  17195584.0854   17195590.0324
 95  1  5 20 46 29.9860000  0  6 29  4 18 19 14 22
  16893095.685   -34661327.76749 -26992929.85649  16893093.7194   16893098.7034
  20612835.255   -15366158.63649 -11940415.33049  20612831.7654   20612838.1204
  18570165.376   -27994924.75149 -21799050.53249  18570160.5134   18570166.4024
  19358076.477    -9529607.07149  -7385846.38549  19358080.1494   19358086.3584
  16266270.006   -34242573.81049 -26669894.31549  16266267.8284   16266273.6534
  17185791.116   -35050447.64249 -27289399.02549  17185791.4814   17185797.0524
 95  1  5 20 46 59.9860000  0  6 29  4 18 19 14 22
  16872388.173   -34770135.55449 -27077715.12849  16872388.2094   16872393.3554
  20597773.853   -15445273.74249 -12002063.47849  20597776.4514   20597783.1074
  18541602.853   -28144974.35749 -21915972.27549  18541606.7614   18541612.7504
  19328879.995    -9683072.14849  -7505429.50549  19328876.2184   19328882.8954
  16257935.382   -34286360.28049 -26704013.65349  16257935.3184   16257941.2874
  17176115.182   -35101300.12249 -27329024.33249  17176114.8064   17176120.3154
 95  1  5 20 47 29.9860000  0  6 29  4 18 19 14 22
  16851721.067   -34878734.45349 -27162337.63049  16851722.4644   16851727.6614
  20582818.525   -15523861.77249 -12063300.90649  20582821.1314   20582827.8754
  18513068.711   -28294969.71849 -22032851.74549  18513063.6684   18513069.4334
  19299715.651    -9836319.16349  -7624842.70349  19299712.5834   19299720.7894
  16249718.850   -34329539.56049 -26737659.85949  16249718.5714   16249724.5384
  17166558.656   -35151522.79949 -27368158.88049  17166557.4914   17166563.3324
 95  1  5 20 47 59.9860000  0  6 29  4 18 19 14 22
  16831094.785   -34987141.71749 -27246810.81049  16831093.3854   16831098.5324
  20567974.707   -15601916.30849 -12124122.62449  20567965.6944   20567974.4344
  18484535.893   -28444908.20949 -22149686.90449  18484531.4974   18484537.1044
  19270595.266    -9989345.68549  -7744084.07749  19270593.7604   19270600.5704
  16241618.662   -34372111.29049 -26770832.64849  16241617.4694   16241623.2764
  17157121.991   -35201114.99549 -27406802.14849  17157120.3204   17157126.1474
 95  1  5 20 48 29.9860000  0  6 29  4 18 19 14 22
  16810493.052   -35095400.78349 -27331168.51249  16810492.2974   16810497.3494
  20553208.730   -15679470.53249 -12184554.46049  20553208.0734   20553217.2624
  18456003.131   -28594818.36349 -22266499.97049  18456004.3174   18456010.2454
  19241512.872   -10142203.33149  -7863193.88949  19241506.0744   19241512.5694
  16233626.012   -34414101.67949 -26803552.44549  16233626.9814   16233632.9824
  17147795.009   -35250122.84749 -27444990.08249  17147794.5624   17147800.3974
 95  1  5 20 48 59.9860000  0  6 29  4 18 19 14 22
  16789924.445   -35203481.21749 -27415387.02049  16789925.3354   16789930.4154
  20538550.293   -15756507.25349 -12244583.09249  20538550.5394   20538557.4584
  18427488.883   -28744659.26049 -22383259.07849  18427490.8784   18427496.4414
  19212460.191   -10294858.56749  -7982145.95749  19212456.7294   19212463.1524
  16225748.327   -34455497.49749 -26835808.94049  16225749.6804   16225755.7164
  17138586.418   -35298540.40449 -27482718.04349  17138580.9104   17138586.7744
 95  1  5 20 49 29.9860000  0  6 29  4 18 19 14 22
  16769397.039   -35311357.08949 -27499446.13149  16769397.3164   16769402.2474
  20523994.814   -15833017.91049 -12304201.85149  20523990.3824   20523997.1244
  18399002.456   -28894395.61949 -22499936.73849  18398996.7794   18399002.5284
  19183462.365   -10447269.21849  -8100907.44549  19183454.9024   19183460.6224
  16217985.397   -34496306.55949 -26867608.22649  16217984.0604   16217990.1334
  17129485.643   -35346346.54149 -27519969.57449  17129483.6654   17129489.3494
 95  1  5 20 49 59.9860000  0  6 29  4 18 19 14 22
  16748900.363   -35419066.28449 -27583375.36549  16748900.8104   16748905.8054
  20509523.421   -15909064.88949 -12363459.27749  20509520.2924   20509526.4734
  18370515.621   -29044062.15649 -22616559.97749  18370516.0894   18370521.8274
  19154492.410   -10599475.75549  -8219509.87949  19154490.3104   19154496.7754
  16210322.743   -34536572.32249 -26898984.15549  16210321.8684   16210327.8364
  17120493.181   -35393596.85949 -27556788.00549  17120492.2074   17120497.8994
 95  1  5 20 50 29.9860000  0  6 29  4 18 19 14 22
  16728441.330   -35526583.04249 -27667154.65249  16728441.2264   16728446.0464
  20495138.320   -15984639.58649 -12422348.71649  20495138.8864   20495145.1314
  18342049.689   -29193642.36149 -22733115.95149  18342052.2774   18342057.8134
  19125567.169   -10751460.96749  -8337939.85449  19125568.0454   19125574.4604
  16202766.543   -34576279.14249 -26929924.54949  16202765.9244   16202771.8504
  17111614.702   -35440259.81049 -27593148.74549  17111612.9354   17111618.3974
 95  1  5 20 50 59.9860000  0  6 29  4 18 19 14 22
  16708023.850   -35633875.11349 -27750758.85949  16708024.1654   16708029.0724
  20480853.306   -16059718.19749 -12480851.55349  20480852.1894   20480858.5694
  18313612.737   -29343100.03349 -22849576.43549  18313611.0494   18313616.8814
  19096700.713   -10903179.27249  -8456161.84049  19096697.6574   19096704.3254
  16195320.044   -34615409.97949 -26960416.12449  16195319.4594   16195325.5694
  17102853.733   -35486296.54349 -27629021.52749  17102852.4244   17102858.1084
 95  1  5 20 51 29.9860000  0  6 29  4 18 19 14 22
  16687640.359   -35740993.24449 -27834227.52749  16687640.3254   16687645.1624
  20466653.160   -16134346.05949 -12539003.14749  20466650.1224   20466656.7734
  18285187.917   -29492489.61549 -22965983.87649  18285183.3164   18285188.6674
  19067866.659   -11054680.50349  -8574214.68649  19067866.5624   19067874.1604
  16187974.349   -34654012.70849 -26990496.18849  16187973.1954   16187979.5714
  17094204.534   -35531756.03449 -27664444.50149  17094201.6824   17094207.3174
 95  1  5 20 51 59.9850000  0  6 29  4 18 19 14 22
  16667292.650   -35847928.07649 -27917553.37049  16667291.5054   16667296.1264
  20452531.175   -16208500.76649 -12596786.00249  20452537.6274   20452546.1054
  18256767.955   -29641800.55549 -23082330.03649  18256770.6624   18256776.3204
  19039073.310   -11205965.28049  -8692098.89149  19039078.7264   19039085.7954
  16180734.409   -34692056.28449 -27020140.55249  16180734.1254   16180740.1384
  17085663.758   -35576627.37449 -27699409.18749  17085663.2144   17085668.7914
 95  1  5 20 52 29.9850000  0  6 29  4 18 19 14 22
  16646965.658   -35954739.53149 -28000783.07649  16646966.2074   16646970.6604
  20438511.657   -16282211.03849 -12654222.56149  20438511.3554   20438520.4554
  18228363.596   -29791080.02749 -23198651.67049  18228363.7134   18228369.0594
  19010318.429   -11357096.49449  -8809863.41649  19010319.4144   19010326.4404
  16173593.553   -34729593.41349 -27049390.28049  16173591.2764   16173597.0244
  17077227.171   -35620965.50149 -27733958.37649  17077225.9084   17077231.2394
 95  1  5 20 52 59.9850000  0  6 29  4 18 19 14 22
  16626669.565   -36061408.04149 -28083901.38849  16626667.7134   16626672.2674
  20424569.342   -16355464.51049 -12711303.22949  20424573.1224   20424580.4564
  18199967.426   -29940315.04349 -23314938.66349  18199965.0774   18199970.3794
  18981591.131   -11508061.82549  -8927498.68249  18981591.0594   18981598.4864
  16166546.332   -34766613.19649 -27078236.88149  16166546.6534   16166552.3584
  17068890.241   -35664780.20749 -27768099.70749  17068888.2114   17068893.6234
 95  1  5 20 53 29.9850000  0  6 29  4 18 19 14 22
  16606405.110   -36167885.95149 -28166871.17749  16606405.5164   16606410.2254
  20410727.941   -16428217.55049 -12767993.97649  20410728.6934   20410734.4554
  18171580.408   -30089461.13949 -23431156.36549  18171583.3124   18171588.9334
  18952899.514   -11658818.38249  -9044971.25249  18952902.9064   18952910.1714
  16159611.121   -34803050.24549 -27106629.40149  16159612.9354   16159618.8764
  17060661.634   -35708022.71549 -27801795.17049  17060658.9774   17060664.7094
 95  1  5 20 53 59.9850000  0  6 29  4 18 19 14 22
  16586183.296   -36274152.61249 -28249676.36049  16586183.6654   16586188.2374
  20396984.422   -16500467.33249 -12824292.55749  20396981.0304   20396984.7664
  18143214.880   -30238502.69249 -23547292.61049  18143221.5114   18143226.9984
  18924259.646   -11809353.05649  -9162270.93249  18924257.3174   18924263.8744
  16152795.112   -34838885.33549 -27134552.86749  16152793.6684   16152799.7664
  17052547.473   -35750664.89749 -27835022.84849  17052544.6254   17052550.0364
 95  1  5 20 54 29.9850000  0  6 29  4 18 19 14 22
  16566002.638   -36380218.45149 -28332325.06149  16566000.3104   16566004.6364
  20383321.380   -16572246.33049 -12880224.28749  20383321.5154   20383328.8124
  18114877.471   -30387450.36249 -23663355.70749  18114877.9854   18114883.3744
  18895654.071   -11959665.78449  -9279397.69749  18895653.7254   18895660.1424
  16146085.205   -34874143.03549 -27162026.41949  16146084.5334   16146090.4704
  17044542.074   -35792716.06349 -27867789.99049  17044542.8014   17044548.0984
 95  1  5 20 54 59.9850000  0  6 29  4 18 19 14 22
  16545852.514   -36486085.77749 -28414819.06949  16545853.8994   16545858.6614
  20369753.889   -16643586.52749 -12935814.08649  20369745.1224   20369751.6724
  18086551.475   -30536327.18149 -23779363.59149  18086547.3254   18086553.1044
  18867089.509   -12109748.41349  -9396345.12649  18867093.8644   18867100.4614
  16139483.320   -34908841.46349 -27189064.16849  16139481.1304   16139487.4544
  17036656.972   -35834167.38749 -27900089.71949  17036654.9014   17036660.3234
 95  1  5 20 55 29.9850000  0  6 29  4 18 19 14 22
  16525747.925   -36591743.64849 -28497149.86849  16525748.1824   16525752.7424
  20356251.597   -16714471.90149 -12991049.44049  20356255.1594   20356262.7504
  18058239.231   -30685112.96849 -23895300.54749  18058234.3824   18058239.9194
  18838579.284   -12259581.84849  -9513098.39349  18838581.7134   18838587.8534
  16132986.397   -34942976.33049 -27215662.78449  16132985.8764   16132991.8474
  17028884.315   -35875004.32649 -27931910.71249  17028883.9274   17028889.5634
 95  1  5 20 55 59.9850000  0  6 29  4 18 19 14 22
  16505693.408   -36697136.42449 -28579274.10749  16505692.5864   16505697.0484
  20342855.243   -16784841.92249 -13045883.22949  20342864.8174   20342872.2224
  18029953.363   -30833754.07349 -24011124.77549  18029949.4844   18029954.5744
  18810125.874   -12409115.32549  -9629617.92449  18810127.0494   18810132.6094
  16126605.446   -34976507.63149 -27241791.08849  16126605.2714   16126611.0184
  17021242.689   -35915184.32549 -27963219.80649  17021237.9254   17021243.5454
 95  1  5 20 56 29.9850000  0  6 29  4 18 19 14 22
  16485663.298   -36802391.19849 -28661290.80649  16485662.9794   16485667.6814
  20329548.648   -16854799.44149 -13100395.56149  20329551.7524   20329559.2464
  18001675.366   -30982375.88549 -24126933.95649  18001667.0484   18001672.8184
  18781704.958   -12558466.82249  -9745995.62249  18781706.2364   18781712.1804
  16120315.533   -35009557.54249 -27267544.28249  16120315.4634   16120321.8994
  17013695.453   -35954838.22449 -27994118.94949  17013691.5614   17013697.6544
 95  1  5 20 56 59.9850000  0  6 29  4 18 19 14 22
  16465668.830   -36907460.32849 -28743162.84849  16465668.9634   16465673.6914
  20316325.422   -16924279.08849 -13154535.58049  20316330.8274   20316337.3994
  17973401.678   -31130920.41149 -24242682.92249  17973400.1154   17973405.6874
  18753326.134   -12707595.38949  -9862199.63449  18753327.8804   18753333.9624
  16114127.974   -35042074.35049 -27292882.07749  16114127.9594   16114134.1354
  17006255.032   -35993922.62449 -28024574.32849  17006254.1094   17006259.8104
 95  1  5 20 57 29.9850000  0  6 29  4 18 19 14 22
  16445713.255   -37012322.71349 -28824873.79349  16445714.2954   16445719.1784
  20303206.232   -16993245.57649 -13208275.70249  20303206.1944   20303214.4564
  17945156.938   -31279349.71349 -24358342.10649  17945155.0324   17945160.5654
  18724996.200   -12856492.96949  -9978223.65049  18724992.9264   18725000.2724
  16108046.761   -35074023.09749 -27317777.22649  16108048.2484   16108054.4294
  16998928.936   -36032437.19749 -28054585.68049  16998924.9024   16998930.6204
 95  1  5 20 57 59.9850000  0  6 29  4 18 19 14 22
  16425795.559   -37116999.12249 -28906439.82149  16425795.0304   16425799.7864
  20290179.355   -17061712.33749 -13261626.46449  20290178.9334   20290184.5744
  17916928.658   -31427682.08349 -24473925.76049  17916928.1034   17916933.5574
  18696690.284   -13005181.10449 -10094084.46549  18696697.8904   18696705.0464
  16102076.167   -35105416.59049 -27342239.70549  16102074.4984   16102080.5944
  16991708.513   -36070390.11849 -28084159.38349  16991702.8754   16991708.2364
 95  1  5 20 58 29.9850000  0  6 29  4 18 19 14 22
  16405908.039   -37221507.04549 -28987874.56549  16405907.8604   16405912.6734
  20277238.764   -17129708.33049 -13314610.39849  20277239.6074   20277246.6724
  17888716.282   -31575927.37649 -24589441.56049  17888717.8474   17888723.6454
  18668442.774   -13153676.09749 -10209794.79249  18668440.4434   18668447.2074
  16096202.434   -35136275.12549 -27366285.33749  16096202.0424   16096208.3714
  16984589.034   -36107793.56649 -28113304.92449  16984585.4294   16984590.8274
 95  1  5 20 58 59.9850000  0  6 29  4 18 19 14 22
  16386060.668   -37325798.73149 -29069140.81049  16386061.8804   16386066.6504
  20264390.373   -17197214.40349 -13367212.59149  20264393.1134   20264400.3394
  17860531.019   -31724045.12049 -24704857.97249  17860531.9414   17860537.7284
  18640225.937   -13301955.38849 -10325337.03549  18640223.9964   18640230.5544
  16090438.313   -35166566.02649 -27389888.65549  16090438.0284   16090444.3444
  16977579.169   -36144614.53949 -28141996.58949  16977578.9344   16977584.4214
 95  1  5 20 59 29.9850000  0  6 29  4 18 19 14 22
  16366255.674   -37429877.88549 -29150241.44449  16366256.2044   16366260.9064
  20251641.201   -17264241.78249 -13419441.75049  20251638.2404   20251645.4554
  17832368.873   -31872056.40249 -24820191.41549  17832366.4984   17832372.0694
  18612046.906   -13450017.33949 -10440709.94549  18612048.7674   18612055.4724
  16084783.249   -35196291.05249 -27413051.03249  16084781.6884   16084787.7814
  16970683.990   -36180855.22149 -28170236.08449  16970682.3534   16970688.0414
 95  1  5 20 59 59.9850000  0  6 29  4 18 19 14 22
  16346481.904   -37533793.17249 -29231214.39149  16346481.6704   16346486.4674
  20238963.114   -17330861.88949 -13471353.54849  20238961.9804   20238966.8574
  17804207.587   -32020030.58949 -24935495.96249  17804207.6844   17804213.2744
  18583902.977   -13597921.20249 -10555959.64749  18583903.4264   18583910.9864
  16079219.639   -35225516.60849 -27435824.21249  16079220.1864   16079226.3664
  16963887.253   -36216552.08149 -28198051.82149  16963889.2164   16963895.2214
 95  1  5 21  0 29.9850000  0  6 29  4 18 19 14 22
  16326754.575   -37637449.14149 -29311985.27149  16326756.6924   16326761.3424
  20226372.030   -17397018.11049 -13522903.88449  20226371.7364   20226378.8144
  17776071.664   -32167892.95349 -25050713.37249  17776070.3534   17776076.0654
  18555807.158   -13745588.87249 -10671025.31049  18555802.5134   18555810.2774
  16073765.311   -35254174.29249 -27458154.89249  16073766.7074   16073772.8624
  16957213.153   -36251646.50049 -28225398.12849  16957210.8904   16957216.9044
 95  1  5 21  0 59.9850000  0  6 29  4 18 19 14 22
  16307076.463   -37740854.13849 -29392560.59049  16307079.2224   16307084.0304
  20213863.194   -17462733.66049 -13574110.80649  20213863.4794   20213873.4444
  17747951.398   -32315672.02149 -25165865.87649  17747949.1414   17747954.7954
  18527750.218   -13893044.72149 -10785925.92849  18527743.5974   18527750.2134
  16068418.204   -35282283.26749 -27480058.00949  16068417.8594   16068423.9174
  16950645.111   -36286166.59549 -28252296.90949  16950642.0404   16950647.7504
 95  1  5 21  1 29.9850000  0  6 29  4 18 19 14 22
  16287450.816   -37844008.64049 -29472940.72049  16287449.5874   16287454.4264
  20201443.753   -17528013.79249 -13624978.44749  20201443.0914   20201450.3664
  17719847.048   -32463361.21849 -25280948.35249  17719844.4824   17719850.4094
  18499728.102   -14040280.23249 -10900654.85649  18499725.9204   18499730.9674
  16063172.052   -35309847.52649 -27501536.67249  16063172.5744   16063178.8344
  16944187.883   -36320111.51749 -28278747.49949  16944182.7464   16944188.1834
 95  1  5 21  1 59.9850000  0  6 29  4 18 19 14 22
  16267870.628   -37946897.23649 -29553113.64549  16267871.0554   16267875.5384
  20189106.902   -17592846.51649 -13675497.49249  20189106.6494   20189113.4314
  17691764.781   -32610937.86949 -25395943.12249  17691762.2744   17691767.7324
  18471749.750   -14187302.08949 -11015217.31849  18471747.6414   18471753.9174
  16058032.721   -35336864.10349 -27522588.56749  16058031.8134   16058037.6154
  16937836.209   -36353487.99749 -28304755.14349  16937831.5904   16937836.6374
 95  1  5 21  2 29.9840000  0  6 29  4 18 19 14 22
  16248338.017   -38049550.32849 -29633103.06349  16248336.7624   16248341.1124
  20176855.766   -17657235.77849 -13725670.98749  20176854.3434   20176861.5074
  17663700.515   -32758401.34149 -25510849.71249  17663700.5434   17663706.1274
  18443810.280   -14334124.01949 -11129623.96949  18443808.2634   18443814.7894
  16052991.567   -35363350.85749 -27543227.61249  16052991.3924   16052997.6084
  16931580.585   -36386340.64149 -28330354.60949  16931579.8834   16931584.9004
 95  1  5 21  2 59.9840000  0  6 29  4 18 19 14 22
  16228834.830   -38152032.93449 -29712959.63349  16228834.6794   16228839.2674
  20164679.664   -17721206.44649 -13775518.30249  20164680.8074   20164688.4114
  17635650.946   -32905802.23849 -25625707.54349  17635650.9784   17635656.8714
  18415900.769   -14480786.04449 -11243905.99949  18415900.5794   18415906.6954
  16048046.029   -35389333.88649 -27563474.15249  16048046.5904   16048053.1094
  16925427.264   -36418687.99249 -28355560.33649  16925424.3684   16925429.8074
 95  1  5 21  3 29.9840000  0  6 29  4 18 19 14 22
  16209375.387   -38254288.74849 -29792639.48449  16209376.1354   16209380.7124
  20152603.139   -17784672.88949 -13824972.72149  20152604.8344   20152611.5864
  17607630.087   -33053069.01549 -25740460.86349  17607626.9474   17607632.9474
  18388035.097   -14627210.40249 -11358002.86349  18388037.4634   18388042.8884
  16043210.635   -35414747.07949 -27583276.65549  16043210.9424   16043217.2614
  16919378.772   -36450457.24249 -28380315.60049  16919378.8204   16919384.3004
 95  1  5 21  3 59.9840000  0  6 29  4 18 19 14 22
  16189956.075   -38356339.90149 -29872159.86649  16189956.2434   16189960.8014
  20140620.379   -17847638.11349 -13874036.56449  20140621.7284   20140629.1234
  17579626.026   -33200220.48849 -25855124.34349  17579624.8604   17579630.7604
  18360215.686   -14773393.03649 -11471911.34449  18360218.2474   18360224.2914
  16038480.105   -35439611.91449 -27602651.86849  16038479.3214   16038485.6704
  16913440.067   -36481662.05749 -28404631.05049  16913440.4474   16913446.1554
 95  1  5 21  4 29.9840000  0  6 29  4 18 19 14 22
  16170574.827   -38458188.86349 -29951522.69949  16170575.6264   16170579.7314
  20128734.259   -17910116.87249 -13922721.34449  20128734.6194   20128739.5684
  17551642.087   -33347273.71649 -25969711.24749  17551642.0434   17551647.7154
  18332445.720   -14919320.79149 -11585621.27249  18332449.2624   18332455.5744
  16033850.981   -35463936.80149 -27621606.33249  16033851.1364   16033856.8094
  16907614.806   -36512285.21449 -28428493.26649  16907613.4394   16907619.0484
 95  1  5 21  4 59.9840000  0  6 29  4 18 19 14 22
  16151227.134   -38559867.83649 -30030753.06449  16151226.3604   16151230.7444
  20116925.425   -17972151.14449 -13971059.77949  20116928.0244   20116935.5234
  17523668.063   -33494275.34849 -26084257.96449  17523668.4274   17523674.1464
  18304720.446   -15065033.02149 -11699163.22049  18304720.8604   18304728.0244
  16029317.096   -35487755.00849 -27640165.99949  16029318.3664   16029324.3664
  16901895.299   -36542344.13549 -28451915.80649  16901893.4234   16901898.7824
 95  1  5 21  5 29.9840000  0  6 29  4 18 19 14 22
  16131917.532   -38661342.83349 -30109824.48849  16131915.9224   16131920.5884
  20105215.484   -18033727.22849 -14019041.18549  20105209.9584   20105217.8684
  17495716.811   -33641175.09949 -26198725.29149  17495713.6644   17495719.7094
  18277038.586   -15210505.65149 -11812518.46949  18277037.7804   18277045.7194
  16024887.706   -35511044.21349 -27658313.45649  16024886.2664   16024892.4604
  16896285.384   -36571831.51049 -28474892.97949  16896282.0344   16896287.4444
 95  1  5 21  5 59.9840000  0  6 29  4 18 19 14 22
  16112649.508   -38762589.12549 -30188717.70649  16112649.5694   16112654.2954
  20093579.267   -18094839.60249 -14066661.24149  20093580.3484   20093587.4504
  17467786.262   -33787939.04449 -26313086.79549  17467785.9324   17467791.5234
  18249405.379   -15355712.77649 -11925666.86549  18249405.8434   18249413.5954
  16020564.051   -35533764.63049 -27676017.69549  16020562.8084   16020569.1004
  16890786.172   -36600730.41649 -28497411.61149  16890782.7174   16890788.0384
 95  1  5 21  6 29.9840000  0  6 29  4 18 19 14 22
  16093424.011   -38863619.87449 -30267442.96049  16093424.0314   16093428.7714
  20082035.072   -18155518.06049 -14113943.20449  20082032.5574   20082040.2024
  17439881.820   -33934589.95149 -26427360.21749  17439878.8894   17439884.7334
  18221816.439   -15500691.09249 -12038636.95549  18221817.8184   18221824.6484
  16016348.630   -35555915.71849 -27693278.29949  16016347.6404   16016353.9774
  16885392.505   -36629064.11949 -28519489.83049  16885390.8744   16885396.2574
 95  1  5 21  6 59.9840000  0  6 29  4 18 19 14 22
  16074239.853   -38964429.75249 -30345996.10649  16074240.6204   16074245.4004
  20070571.177   -18215763.50349 -14160887.74749  20070569.1094   20070577.1394
  17412001.306   -34081101.97349 -26541525.40949  17411998.8854   17412004.4374
  18194279.038   -15645429.10149 -12151419.79949  18194274.5474   18194281.5654
  16012244.788   -35577485.17149 -27710085.68149  16012242.8684   16012249.2894
  16880103.106   -36656852.53049 -28541143.14349  16880102.7514   16880108.3564
 95  1  5 21  7 29.9840000  0  6 29  4 18 19 14 22
  16055096.453   -39065034.82549 -30424389.66149  16055095.9624   16055100.8134
  20059180.836   -18275612.83349 -14207523.61249  20059180.5844   20059187.9544
  17384138.456   -34227500.60649 -26655602.24949  17384140.4764   17384145.8114
  18166775.418   -15789946.02249 -12264030.36049  18166773.2904   18166780.7564
  16008240.352   -35598508.44849 -27726467.47449  16008242.2764   16008248.7634
  16874910.008   -36684153.25749 -28562416.44449  16874907.9434   16874913.3904
 95  1  5 21  7 59.9840000  0  6 29  4 18 19 14 22
  16035993.247   -39165430.20349 -30502619.81949  16035991.3924   16035996.1774
  20047863.848   -18335064.94449 -14253849.96949  20047866.6014   20047874.0844
  17356292.839   -34373820.72049 -26769617.90049  17356296.2144   17356302.0724
  18139320.110   -15934253.90249 -12376478.03649  18139313.7234   18139320.4854
  16004339.486   -35619006.64649 -27742440.11549  16004341.7354   16004348.0714
  16869807.938   -36710968.65749 -28583311.56749  16869805.0504   16869810.6624
 95  1  5 21  8 29.9840000  0  6 29  4 18 19 14 22
  16016938.800   -39265563.43949 -30580645.71449  16016936.6844   16016941.3044
  20036638.889   -18394073.73649 -14299830.89449  20036639.2094   20036646.2854
  17328477.681   -34520019.42949 -26883538.94949  17328475.5934   17328480.9774
  18111894.957   -16078320.00949 -12488737.30249  18111898.4234   18111905.8034
  16000543.887   -35638960.25549 -27757988.40349  16000544.9664   16000550.9544
  16864802.726   -36737260.86649 -28603799.01649  16864801.7514   16864807.6424
 95  1  5 21  8 59.9840000  0  6 29  4 18 19 14 22
  15997926.615   -39365455.58949 -30658483.74549  15997927.5754   15997932.1804
  20025495.814   -18452652.95149 -14345477.07949  20025491.4014   20025498.9744
  17300670.817   -34666104.84449 -26997371.71549  17300676.5324   17300681.8674
  18084525.070   -16222178.88449 -12600835.09949  18084523.2774   18084529.7984
  15996841.197   -35658422.90749 -27773154.12549  15996841.2954   15996847.3284
  16859891.147   -36763060.77149 -28623902.84949  16859892.1874   16859897.9734
 95  1  5 21  9 29.9840000  0  6 29  4 18 19 14 22
  15978965.355   -39465107.96649 -30736134.94049  15978964.6034   15978969.3634
  20014429.069   -18510790.99949 -14390779.49049  20014428.1604   20014436.2634
  17272896.730   -34812080.32749 -27111118.81749  17272897.8584   17272903.6144
  18057186.154   -16365843.04949 -12712781.16849  18057184.7414   18057190.9804
  15993227.116   -35677409.41549 -27787948.82349  15993228.1484   15993234.4614
  16855083.615   -36788342.89349 -28643603.21649  16855080.9184   16855086.9124
 95  1  5 21  9 59.9840000  0  6 29  4 18 19 14 22
  15960045.215   -39564528.35349 -30813605.36349  15960045.5584   15960050.1534
  20003451.716   -18568469.35249 -14435723.71449  20003453.3734   20003460.0574
  17245138.314   -34957938.68249 -27224774.65549  17245142.5774   17245147.6844
  18029879.694   -16509310.03249 -12824573.58349  18029883.9994   18029890.1484
  15989705.246   -35695922.79749 -27802374.85249  15989705.3254   15989711.4634
  16850375.338   -36813070.42349 -28662871.43549  16850375.3194   16850381.2074
 95  1  5 21 10 29.9840000  0  6 29  4 18 19 14 22
  15941167.980   -39663721.00149 -30890898.32449  15941169.7784   15941174.5504
  19992562.338   -18625684.22249 -14480306.76249  19992565.4974   19992572.9254
  17217414.486   -35103664.85549 -27338327.49849  17217411.2654   17217416.7074
  18002619.688   -16652572.04849 -12936206.28449  18002621.4594   18002628.5594
  15986274.467   -35713957.92749 -27816428.21649  15986273.3444   15986279.6684
  16845776.077   -36837242.80249 -28681707.06349  16845775.8004   16845781.5134
 95  1  5 21 10 59.9840000  0  6 29  4 18 19 14 22
  15922341.423   -39762658.04249 -30967992.11149  15922342.6874   15922347.5254
  19981771.172   -18682411.93249 -14524510.21349  19981770.7264   19981776.6624
  17189710.542   -35249245.93349 -27451767.27049  17189708.1794   17189713.6404
  17975402.946   -16795597.53349 -13047654.67349  17975404.5804   17975412.1044
  15982938.660   -35731485.01949 -27830085.70949  15982937.8604   15982944.1464
  16841289.645   -36860835.20549 -28700090.75849  16841286.5364   16841292.1524
 95  1  5 21 11 29.9840000  0  6 29  4 18 19 14 22
  15903555.385   -39861389.70249 -31044925.86349  15903554.6564   15903559.4324
  19971054.765   -18738709.07349 -14568378.15249  19971056.6424   19971063.1464
  17162011.413   -35394748.79649 -27565146.09849  17162019.9404   17162025.3004
  17948227.412   -16938414.72049 -13158940.75449  17948227.7254   17948234.8234
  15979693.784   -35748529.62049 -27843367.23249  15979694.4144   15979700.7234
  16836900.728   -36883896.23349 -28718060.39449  16836898.0384   16836903.4904
 95  1  5 21 11 59.9840000  0  6 29  4 18 19 14 22
  15884819.331   -39959836.42749 -31121637.59349  15884820.9554   15884825.5874
  19960441.859   -18794511.11349 -14611860.26349  19960437.3674   19960445.3974
  17134359.260   -35540112.15849 -27678416.23149  17134358.0094   17134363.5774
  17921104.687   -17080958.70949 -13270013.95949  17921102.5964   17921109.4334
  15976556.748   -35765014.43449 -27856212.56149  15976557.4294   15976563.8584
  16832619.970   -36906387.69049 -28735586.21249  16832617.9804   16832623.6094
 95  1  5 21 12 29.9840000  0  6 29  4 18 19 14 22
  15866131.339   -40058051.72249 -31198168.98949  15866131.4394   15866135.8904
  19949895.671   -18849907.76449 -14655026.54449  19949895.9554   19949904.2774
  17106713.518   -35685398.61249 -27791626.43349  17106711.3954   17106716.5004
  17894011.715   -17223307.73349 -13380935.25149  17894014.4664   17894021.3114
  15973516.321   -35781003.20049 -27868671.35549  15973514.9064   15973521.2324
  16828432.136   -36928406.69449 -28752743.88549  16828428.0014   16828433.5164
 95  1  5 21 12 59.9830000  0  6 29  4 18 19 14 22
  15847495.972   -40155985.70149 -31274481.17749  15847494.7204   15847499.6174
  19939437.218   -18904865.84749 -14697851.02449  19939436.8414   19939446.6084
  17079086.511   -35830550.60949 -27904731.87449  17079089.3944   17079095.1284
  17866973.743   -17365419.25549 -13491671.45749  17866970.8664   17866978.4354
  15970575.595   -35796447.27149 -27880705.72049  15970576.1184   15970582.5294
  16824338.153   -36949908.87249 -28769498.83949  16824335.9944   16824341.9074
 95  1  5 21 13 29.9830000  0  6 29  4 18 19 14 22
  15828907.534   -40253660.92749 -31350591.73649  15828907.7174   15828912.6544
  19929061.057   -18959398.15749 -14740343.76749  19929059.2704   19929068.1424
  17051492.122   -35975562.23649 -28017727.92949  17051494.7804   17051500.4214
  17839971.072   -17507304.96849 -13602231.72649  17839971.5614   17839977.9904
  15967738.892   -35811361.40549 -27892327.14649  15967738.0904   15967744.3074
  16820344.790   -36970896.32649 -28785852.70749  16820342.3714   16820348.2764
 95  1  5 21 13 59.9830000  0  6 29  4 18 19 14 22
  15810362.367   -40351111.59449 -31426527.31249  15810363.7354   15810368.5224
  19918760.226   -19013535.94849 -14782529.14349  19918759.0124   19918766.7884
  17023927.162   -36120442.77349 -28130621.84249  17023924.9854   17023930.6844
  17813003.646   -17649002.78849 -13712645.58849  17813007.2204   17813013.5224
  15964993.019   -35825784.90949 -27903566.25849  15964993.5554   15964999.6024
  16816446.412   -36991395.76749 -28801826.30849  16816441.4504   16816447.3924
 95  1  5 21 14 29.9830000  0  6 29  4 18 19 14 22
  15791854.623   -40448378.97449 -31502320.06749  15791854.3424   15791859.3104
  19908526.930   -19067313.62549 -14824433.89049  19908525.6804   19908533.3444
  16996379.288   -36265201.37949 -28243420.74049  16996378.4824   16996383.9444
  17786078.194   -17790527.73549 -13822924.73949  17786075.9284   17786081.9134
  15962338.950   -35839739.93149 -27914440.31949  15962337.9634   15962344.2334
  16812634.599   -37011409.86149 -28817421.71549  16812632.9914   16812638.8214
 95  1  5 21 14 59.9830000  0  6 29  4 18 19 14 22
  15773388.950   -40545420.95349 -31577937.18249  15773387.9564   15773392.7694
  19898372.216   -19120672.16649 -14866012.05749  19898371.6124   19898378.8674
  16968868.908   -36409776.40949 -28356076.60249  16968866.8904   16968872.0704
  17759191.525   -17931821.19649 -13933023.51349  17759188.5384   17759195.3564
  15959782.093   -35853175.06049 -27924909.27349  15959781.3064   15959787.5594
  16808930.434   -37030872.21349 -28832587.19149  16808929.4574   16808935.3514
 95  1  5 21 15 29.9830000  0  5 29 18 19 14 22
  15754959.065   -40642270.24449 -31653404.16249  15754958.4824   15754962.8634
  16941382.656   -36554203.47349 -28468617.16649  16941383.4224   16941388.5674
  17732344.008   -18072914.50449 -14042966.32549  17732339.8114   17732346.2714
  15957318.402   -35866121.76749 -27934997.64249  15957317.9424   15957323.9054
  16805327.659   -37049824.41849 -28847355.15649  16805323.4094   16805328.7054
 95  1  5 21 15 59.9830000  0  5 29 18 19 14 22
  15736561.460   -40738945.12349 -31728735.23449  15736561.7994   15736566.0024
  16913923.065   -36698526.30049 -28581076.50349  16913919.4694   16913924.8364
  17705521.534   -18213842.07249 -14152779.98449  17705522.1834   17705528.3904
  15954940.721   -35878612.68649 -27944730.85149  15954941.0474   15954946.7574
  16801806.350   -37068301.23749 -28861752.68149  16801807.2844   16801812.4834
 95  1  5 21 16 29.9830000  0  5 29 18 19 14 22
  15718218.617   -40835333.99149 -31803843.43849  15718219.4464   15718223.8704
  16886490.973   -36842670.20349 -28693396.41449  16886489.5554   16886495.2284
  17678757.167   -18354503.39749 -14262386.16849  17678754.5274   17678761.8794
  15952663.711   -35890580.46449 -27954056.40949  15952663.2604   15952669.5174
  16798399.627   -37086222.75749 -28875717.50649  16798396.7204   16798402.2384
 95  1  5 21 16 59.9830000  0  5 29 18 19 14 22
  15699928.325   -40931447.50549 -31878737.08749  15699929.4974   15699933.9414
  16859083.393   -36986683.95849 -28805614.91349  16859084.8884   16859090.3274
  17652033.660   -18494923.71549 -14371804.56549  17652033.8314   17652040.9404
  15950478.958   -35902063.43249 -27963004.19849  15950478.1894   15950484.2764
  16795085.917   -37103634.27549 -28889284.92749  16795083.4204   16795089.0644
 95  1  5 21 17 29.9830000  0  5 29 18 19 14 22
  15681703.190   -41027238.42549 -31953379.35749  15681700.9354   15681705.7904
  16831701.705   -37130558.28849 -28917724.77349  16831706.2684   16831711.8964
  17625366.162   -18635057.78049 -14480999.90449  17625367.4694   17625374.1514
  15948389.984   -35913034.20349 -27971552.86549  15948390.2284   15948396.8514
  16791871.340   -37120506.45349 -28902432.08449  16791872.6064   16791878.3594
 95  1  5 21 17 59.9830000  0  5 29 18 19 14 22
  15663527.895   -41122734.17949 -32027791.62649  15663528.7584   15663533.6164
  16804345.590   -37274325.29149 -29029750.99249  16804348.1694   16804353.8514
  17598750.941   -18774933.24149 -14589993.73449  17598749.7474   17598756.3534
  15946393.062   -35923532.43949 -27979733.32749  15946392.4834   15946399.0424
  16788758.811   -37136872.98249 -28915185.22949  16788758.0994   16788763.9954
 95  1  5 21 18 29.9830000  0  5 29 18 19 14 22
  15645411.308   -41217945.21549 -32101982.03849  15645410.8994   15645415.6264
  16777011.641   -37417980.48249 -29141690.08949  16777011.6164   16777017.1294
  17572181.106   -18914564.06849 -14698796.94549  17572178.8614   17572185.0174
  15944487.499   -35933549.24949 -27987538.65049  15944486.4744   15944492.9914
  16785739.660   -37152747.09749 -28927554.68249  16785737.3174   16785743.0034
 95  1  5 21 18 59.9830000  0  5 29 18 19 14 22
  15627344.629   -41312886.97449 -32175962.62649  15627343.9804   15627348.8184
  16749704.422   -37561496.08749 -29253520.41849  16749701.4814   16749707.0664
  17545651.826   -19053961.35249 -14807418.17449  17545652.7854   17545659.1424
  15942674.551   -35943060.83249 -27994950.29149  15942676.7014   15942683.1154
  16782814.345   -37168121.65749 -28939534.86849  16782811.7104   16782817.7214
 95  1  5 21 19 29.9830000  0  5 29 18 19 14 22
  15609323.738   -41407588.52349 -32249756.03449  15609322.9834   15609327.7514
  16722417.526   -37704875.84049 -29365244.88849  16722417.4234   16722422.9424
  17519158.034   -19193154.86649 -14915880.61749  17519164.0534   17519171.0194
  15940961.847   -35952086.85549 -28001983.57449  15940959.4244   15940965.5124
  16779980.008   -37183021.13949 -28951144.87049  16779976.4854   16779982.5044
 95  1  5 21 19 59.9830000  0  5 29 18 19 14 22
  15591340.397   -41502077.80149 -32323384.03549  15591342.3494   15591346.9734
  16695162.938   -37848123.96449 -29476866.78849  16695158.0914   16695163.3994
  17492706.970   -19332174.07149 -15024207.22849  17492709.0044   17492716.8354
  15939328.838   -35960647.79149 -28008654.45349  15939330.2644   15939336.3574
  16777220.481   -37197476.04149 -28962408.43849  16777225.8724   16777231.6834
 95  1  5 21 20 29.9830000  0  5 29 18 19 14 22
  15573400.186   -41596361.05949 -32396851.50349  15573400.6924   15573405.3274
  16667922.185   -37991244.73449 -29588389.44649  16667923.1264   16667928.6204
  17466291.419   -19471019.86549 -15132398.72349  17466288.1094   17466295.1384
  15937791.800   -35968735.95949 -28014956.94449  15937791.0124   15937797.0274
  16774561.182   -37211484.61749 -28973324.21649  16774560.2434   16774565.9954
 95  1  5 21 20 59.9830000  0  5 29 18 19 14 22
  15555513.789   -41690367.75549 -32470103.46649  15555511.7894   15555516.3714
  16640725.951   -38134185.67349 -29699771.97949  16640722.3674   16640727.8344
  17439912.921   -19609612.85649 -15240393.22749  17439914.7524   17439921.9004
  15936352.113   -35976300.74949 -28020851.60449  15936351.2824   15936357.6004
  16771994.999   -37224991.95449 -28983849.42649  16771989.9144   16771995.5894
 95  1  5 21 21 29.9830000  0  5 29 18 19 14 22
  15537673.395   -41784109.44449 -32543148.93649  15537673.4724   15537677.8654
  16613548.066   -38276993.05749 -29811050.44149  16613547.2364   16613552.4014
  17413600.008   -19747962.86249 -15348198.39849  17413587.7314   17413595.1604
  15935005.973   -35983376.58749 -28026365.26349  15935004.8764   15935011.1144
  16769514.528   -37238032.29849 -28994010.74349  16769508.3014   16769514.0184
 95  1  5 21 21 59.9830000  0  5 29 18 19 14 22
  15519882.214   -41877595.95949 -32615995.56949  15519883.6424   15519888.0454
  16586394.715   -38419674.48749 -29922230.76349  16586395.6054   16586401.1454
  17387305.844   -19886082.07449 -15455823.71049  17387304.6634   17387311.9324
  15933748.482   -35989973.81749 -28031505.97749  15933749.1324   15933755.8004
  16767112.907   -37250605.20849 -29003807.82449  16767115.9104   16767121.5614
 95  1  5 21 22 29.9830000  0  6 28 29 18 19 14 22
  19706523.831    -3612812.35259  -2785444.85759  19706522.5804   19706532.3954
  15502143.193   -41970817.45449 -32688635.68849  15502143.9944   15502148.7594
  16559274.990   -38562218.97349 -30033304.37149  16559270.2864   16559275.8324
  17361062.662   -20023954.57849 -15563256.80149  17361068.6304   17361075.7554
  15932588.417   -35996082.44549 -28036265.96149  15932586.8514   15932593.2914
  16764817.239   -37262700.57249 -29013232.79149  16764813.9754   16764819.7664
 95  1  5 21 22 59.9830000  0  6 28 29 18 19 14 22
  19678854.475    -3758185.52249  -2898722.61249  19678858.4054   19678868.4234
  15484461.815   -42063735.49549 -32761039.35249  15484462.4464   15484467.0404
  16532177.026   -38704589.91949 -30144242.74949  16532177.9024   16532183.5574
  17334877.192   -20161557.88349 -15670480.12849  17334883.6924   17334890.5984
  15931520.050   -36001697.84549 -28040641.61349  15931518.5374   15931524.8044
  16762610.921   -37274288.10049 -29022262.04349  16762609.1004   16762614.7944
 95  1  5 21 23 29.9820000  0  6 28 29 18 19 14 22
  19651222.433    -3903473.05249  -3011933.60949  19651211.2904   19651219.3244
  15466835.378   -42156372.76049 -32833224.22949  15466834.0284   15466838.8444
  16505118.692   -38846796.37449 -30255052.95649  16505116.8744   16505122.6014
  17308733.187   -20298931.07249 -15777524.14849  17308742.4054   17308749.1744
  15930541.118   -36006840.57649 -28044648.95349  15930540.0584   15930546.3184
  16760499.353   -37285379.11149 -29030904.38949  16760498.4794   16760504.4704
 95  1  5 21 23 59.9820000  0  6 28 29 18 19 14 22
  19623587.834    -4048677.65649  -3125079.93349  19623579.5844   19623589.9024
  15449258.928   -42248733.95249 -32905193.98749  15449258.2794   15449263.0964
  16478087.815   -38988822.47549 -30365722.62849  16478090.2614   16478095.8324
  17282644.746   -20436079.63549 -15884393.13349  17282644.1764   17282650.6344
  15929652.964   -36011506.44749 -28048284.71849  15929652.2824   15929658.5214
  16758486.337   -37295971.41849 -29039158.14449  16758482.8574   16758488.6954
 95  1  5 21 24 29.9820000  0  6 28 29 18 19 14 22
  19595956.871    -4193800.91049  -3238162.98449  19595964.8344   19595972.6164
  15431736.390   -42340814.15849 -32976944.79549  15431736.0644   15431740.7554
  16451098.050   -39130674.52149 -30476256.67449  16451096.6854   16451102.3154
  17256587.750   -20573006.61749 -15991089.46649  17256587.8114   17256593.9914
  15928852.275   -36015712.50649 -28051562.18549  15928851.6794   15928858.0024
  16756561.890   -37306081.32949 -29047035.99849  16756559.3704   16756564.8064
 95  1  5 21 24 59.9820000  0  6 28 29 18 19 14 22
  19568352.940    -4338861.53849  -3351197.15849  19568359.8754   19568367.4774
  15414264.057   -42432636.76749 -33048494.87749  15414262.8174   15414267.5154
  16424127.703   -39272376.69149 -30586673.92749  16424131.6254   16424137.2714
  17230564.008   -20709747.05149 -16097640.42349  17230566.3014   17230573.1304
  15928128.116   -36019494.38049 -28054509.12049  15928131.9894   15928138.3744
  16754721.591   -37315731.24849 -29054555.42049  16754722.7814   16754728.7074
 95  1  5 21 25 29.9820000  0  6 28 29 18 19 14 22
  19540773.948    -4483841.33949  -3464168.34249  19540772.1104   19540779.6384
  15396837.458   -42524199.46949 -33119842.43949  15396838.7564   15396843.5884
  16397198.087   -39413909.00549 -30696958.82049  16397198.9704   16397204.6014
  17204577.943   -20846274.33749 -16204025.31149  17204586.1314   17204592.3214
  15927497.845   -36022826.73449 -28057105.77749  15927497.8144   15927504.2144
  16752978.589   -37324913.36649 -29061710.32149  16752975.4324   16752980.9854
 95  1  5 21 25 59.9820000  0  6 28 29 18 19 14 22
  19513206.592    -4628737.73849  -3577074.57549  19513198.3724   19513204.9824
  15379464.578   -42615502.39149 -33190987.57349  15379464.4934   15379469.2114
  16370302.181   -39555266.28449 -30807107.32849  16370299.4334   16370305.0044
  17178649.562   -20982573.37449 -16310232.33749  17178649.5674   17178655.9164
  15926950.180   -36025715.22049 -28059356.56749  15926948.0124   15926954.4724
  16751315.720   -37333628.35649 -29068501.22549  16751316.9964   16751322.9874
 95  1  5 21 26 29.9820000  0  6 28 29 18 19 14 22
  19485637.321    -4773555.54449  -3689919.52149  19485642.0364   19485648.2394
  15362136.633   -42706562.34349 -33261943.37849  15362136.3944   15362141.0674
  16343431.730   -39696469.23149 -30917135.57649  16343429.4224   16343435.0624
  17152752.126   -21118674.08949 -16416284.82249  17152750.1254   17152756.5064
  15926480.003   -36028174.42049 -28061272.84149  15926480.1664   15926486.6134
  16749750.755   -37341877.90649 -29074929.44649  16749747.1584   16749753.1434
 95  1  5 21 26 59.9820000  0  6 28 29 18 19 14 22
  19458110.034    -4918264.01349  -3802679.35049  19458104.4644   19458110.9544
  15344856.333   -42797365.44349 -33332699.04549  15344857.2054   15344861.8414
  16316596.087   -39837492.12749 -31027023.51549  16316593.4324   16316599.3974
  17126892.507   -21254550.15949 -16522162.26349  17126893.7634   17126899.9224
  15926100.262   -36030175.84049 -28062832.40649  15926099.3744   15926105.8784
  16748272.527   -37349651.92149 -29080987.12849  16748267.9054   16748273.6324
 95  1  5 21 27 29.9820000  0  6 28 29 18 19 14 22
  19430588.226    -5062861.06249  -3915352.27449  19430589.2244   19430593.3454
  15327626.908   -42887908.66649 -33403252.21249  15327627.4524   15327632.0154
  16289789.447   -39978335.69049 -31136771.71849  16289791.9224   16289797.7594
  17101082.311   -21390197.17949 -16627861.22549  17101081.0124   17101087.7894
  15925808.931   -36031711.47349 -28064029.01649  15925807.0624   15925813.7454
  16746876.490   -37356957.55049 -29086679.83049  16746877.6194   16746883.4804
 95  1  5 21 27 59.9820000  0  6 28 29 18 19 14 22
  19403086.053    -5207357.39949  -4027946.77149  19403092.1694   19403096.2144
  15310446.162   -42978195.33949 -33473605.47049  15310446.5244   15310451.2024
  16263021.362   -40119018.01349 -31246394.27349  16263021.1004   16263026.7104
  17075305.765   -21525634.16949 -16733396.51549  17075307.4484   17075315.4694
  15925598.146   -36032800.15749 -28064877.35749  15925599.7764   15925606.4744
  16745569.435   -37363813.28949 -29092021.97049  16745573.1064   16745578.8504
 95  1  5 21 28 29.9820000  0  6 28 29 18 19 14 22
  19375612.266    -5351726.72349  -4140442.27249  19375618.2734   19375625.2074
  15293320.222   -43068196.91349 -33543736.56949  15293319.8114   15293324.5304
  16236285.392   -40259519.27149 -31355875.74249  16236284.4834   16236290.1474
  17049588.219   -21660826.40049 -16838741.08749  17049581.8324   17049588.8734
  15925477.435   -36033422.13249 -28065362.02549  15925481.5184   15925488.0664
  16744355.517   -37370207.31849 -29097004.33949  16744356.4764   16744362.1544
 95  1  5 21 28 59.9820000  0  6 28 29 18 19 14 22
  19348170.016    -5495946.00149  -4252820.79149  19348174.1204   19348183.0504
  15276254.191   -43157867.35349 -33613609.63749  15276255.9284   15276260.7964
  16209586.210   -40399821.16549 -31465201.86349  16209585.8974   16209591.6474
  17023908.217   -21795736.05149 -16943865.47549  17023910.0744   17023916.2594
  15925456.191   -36033561.17249 -28065470.38949  15925455.2864   15925461.4614
  16743227.364   -37376123.15649 -29101614.09749  16743230.4694   16743236.4064
 95  1  5 21 29 29.9820000  0  6 28 29 18 19 14 22
  19320758.940    -5639996.19449  -4365067.68349  19320761.7324   19320768.6604
  15259262.268   -43247172.65249 -33683198.17649  15259261.6664   15259266.6374
  16182930.458   -40539902.38649 -31574356.02749  16182929.2484   16182935.0764
  16998292.276   -21930345.98449 -17048756.30249  16998293.8264   16998300.7314
  15925523.793   -36033207.26449 -28065194.63049  15925522.6944   15925528.8604
  16742198.394   -37381533.13649 -29105829.68349  16742201.1464   16742207.2224
 95  1  5 21 29 59.9820000  0  6 28 29 18 19 14 22
  19293378.875    -5783929.50949  -4477223.41549  19293373.1364   19293380.4554
  15242326.998   -43336157.88049 -33752537.30949  15242328.4494   15242333.4454
  16156306.947   -40679815.56449 -31683379.26149  16156304.8564   16156310.4904
  16972714.789   -22064720.02049 -17153463.31549  16972723.4204   16972730.7824
  15925672.599   -36032422.53849 -28064583.17149  15925672.2124   15925678.5014
  16741256.047   -37386510.42949 -29109708.10749  16741254.1114   16741260.1814
 95  1  5 21 30 29.9820000  0  6 28 29 18 19 14 22
  19266001.982    -5927772.20249  -4589308.55449  19265999.4954   19266008.5064
  15225453.515   -43424835.15149 -33821636.47849  15225454.0194   15225458.3114
  16129711.619   -40819584.88249 -31792290.40049  16129707.9234   16129713.1584
  16947191.059   -22198903.40049 -17258021.77149  16947189.6624   16947196.1934
  15925900.492   -36031235.13549 -28063657.93349  15925898.2254   15925904.3604
  16740386.786   -37391087.06749 -29113274.34149  16740383.4534   16740388.9624
 95  1  5 21 30 59.9820000  0  6 28 29 18 19 14 22
  19238651.395    -6071539.85949  -4701335.24549  19238641.0194   19238650.9764
  15208634.351   -43513226.15249 -33890512.58249  15208633.6964   15208637.9994
  16103138.651   -40959215.38749 -31901093.36349  16103137.0524   16103142.2834
  16921680.155   -22332938.39449 -17362464.58949  16921683.1424   16921689.8514
  15926200.372   -36029654.20249 -28062426.05249  15926198.7414   15926205.1214
  16739581.295   -37395288.18149 -29116547.94949  16739583.7204   16739589.5574
 95  1  5 21 31 29.9820000  0  6 28 29 18 19 14 22
  19211313.463    -6215175.02149  -4813258.65149  19211310.5114   19211318.0104
  15191873.926   -43601298.71949 -33959140.55549  15191873.7344   15191878.3854
  16076605.363   -41098632.66449 -32009730.17749  16076606.4004   16076612.0194
  16896211.476   -22466769.88849 -17466748.82649  16896215.9094   16896222.6274
  15926586.214   -36027608.63949 -28060832.11749  15926587.8174   15926594.5484
  16738862.135   -37399078.24349 -29119501.25849  16738862.3484   16738868.1644
 95  1  5 21 31 59.9820000  0  6 28 29 18 19 14 22
  19184016.427    -6358643.26749  -4925052.01349  19184008.4004   19184016.0224
  15175177.253   -43689036.45149 -34027507.61649  15175177.8764   15175182.5154
  16050122.636   -41237807.30049 -32118177.93349  16050122.4304   16050127.8644
  16870795.028   -22600359.06349 -17570844.25549  16870794.3554   16870801.4384
  15927072.344   -36025074.57749 -28058857.53949  15927069.8454   15927076.6164
  16738227.681   -37402424.97249 -29122109.11549  16738225.4914   16738231.3334
 95  1  5 21 32 29.9820000  0  6 28 29 18 19 14 22
  19156736.750    -6501991.77949  -5036752.07849  19156730.1044   19156737.9564
  15158532.082   -43776508.31049 -34095667.50049  15158532.6804   15158537.2664
  16023675.894   -41376796.26649 -32226481.00749  16023673.7024   16023679.2824
  16845412.581   -22733744.26249 -17674780.74549  16845412.3474   16845419.0664
  15927638.072   -36022104.48049 -28056543.18849  15927635.2354   15927642.0294
  16737666.034   -37405359.31449 -29124395.62649  16737667.1084   16737673.0804
 95  1  5 21 32 59.9820000  0  6 28 29 18 19 14 22
  19129481.100    -6645201.29449  -5148343.81549  19129478.5904   19129487.5454
  15141936.101   -43863724.98349 -34163628.54349  15141936.1814   15141940.6404
  15997261.906   -41515597.67849 -32334637.93949  15997260.8164   15997266.0024
  16820080.383   -22866892.69349 -17778532.74649  16820075.2914   16820081.7964
  15928287.322   -36018691.25349 -28053883.55249  15928285.1544   15928291.6724
  16737196.695   -37407854.24549 -29126339.74049  16737192.3544   16737197.9854
 95  1  5 21 33 29.9820000  0  6 28 29 18 19 14 22
  19102243.469    -6788292.00449  -5259842.96749  19102249.5324   19102256.8404
  15125383.560   -43950703.91349 -34231404.32349  15125384.4484   15125388.9774
  15970873.890   -41654256.92549 -32442684.08049  15970875.0354   15970880.2084
  16794780.218   -22999806.76349 -17882102.12249  16794782.0424   16794788.9404
  15929010.556   -36014882.48949 -28050915.70349  15929010.0574   15929016.5574
  16736798.411   -37409927.01749 -29127954.89849  16736798.2694   16736803.7084
 95  1  5 21 33 59.9810000  0  6 28 29 18 19 14 22
  19075049.323    -6931238.74949  -5371229.98549  19075047.0504   19075055.6834
  15108882.415   -44037413.25049 -34298970.02349  15108883.8814   15108888.8334
  15944514.586   -41792769.62449 -32550616.02149  15944516.5944   15944522.1604
  16769533.182   -23132472.74249 -17985478.17049  16769536.3664   16769543.4684
  15929808.680   -36010691.10149 -28047649.68749  15929807.7554   15929814.1574
  16736486.967   -37411544.74949 -29129215.47749  16736490.3734   16736496.2934
 95  1  5 21 34 29.9810000  0  6 28 29 18 19 14 22
  19047866.020    -7074088.15649  -5482541.10249  19047863.0194   19047870.8984
  15092426.252   -44123893.00249 -34366356.83249  15092427.2954   15092432.2734
  15918176.500   -41931181.33649 -32658469.27549  15918177.6434   15918183.1864
  16744328.628   -23264957.49349 -18088713.01049  16744325.3514   16744331.8504
  15930671.927   -36006153.17849 -28044113.66049  15930671.2014   15930677.5294
  16736259.022   -37412760.16649 -29130162.56049  16736258.5634   16736264.9714
 95  1  5 21 34 59.9810000  0  6 28 29 18 19 14 22
  19020715.559    -7216802.03949  -5593746.63949  19020708.0824   19020712.4584
  15076024.555   -44210092.17649 -34433525.01549  15076024.8624   15076028.9894
  15891872.629   -42069432.87249 -32766197.72249  15891869.8384   15891874.6414
  16719156.062   -23397230.74949 -18191783.07149  16719154.6814   16719160.9224
  15931609.996   -36001242.83549 -28040287.44949  15931606.3414   15931611.7994
  16736115.588   -37413546.66949 -29130775.43049  16736110.0914   16736115.4814
 95  1  5 21 35 29.9810000  0  6 28 29 18 19 14 22
  18993573.559    -7359382.86649  -5704848.51849  18993572.3474   18993581.1354
  15059674.705   -44296004.05049 -34500469.32249  15059676.2964   15059680.4804
  15865597.959   -42207495.03349 -32873778.60049  15865597.2424   15865602.2484
  16694025.763   -23529303.32149 -18294696.73649  16694022.2844   16694028.7584
  15932612.368   -35995969.74549 -28036178.56249  15932609.8024   15932615.4124
  16736032.784   -37413920.91749 -29131067.06949  16736038.0464   16736043.8894
 95  1  5 21 35 59.9810000  0  6 28 29 18 19 14 22
  18966474.033    -7501811.23949  -5815831.56049  18966469.3284   18966476.4644
  15043386.797   -44381608.08749 -34567173.74449  15043385.6484   15043390.5994
  15839367.336   -42345324.49549 -32981178.14649  15839368.6084   15839374.0234
  16668929.629   -23661175.00249 -18397453.85949  16668927.3424   16668934.0534
  15933690.277   -35990299.19349 -28031759.94449  15933688.0684   15933694.5814
  16736050.077   -37413863.56949 -29131022.39149  16736048.8574   16736054.7384
 95  1  5 21 36 29.9810000  0  6 28 29 18 19 14 22
  18939409.819    -7644050.39449  -5926667.24749  18939402.6804   18939408.4994
  15027161.801   -44466873.24849 -34633614.11549  15027160.4864   15027165.1014
  15813196.552   -42482866.25649 -33088353.52049  15813195.5234   15813200.7154
  16643887.243   -23792798.61549 -18500017.69649  16643880.7514   16643887.2944
  15934850.373   -35984180.14749 -28026991.87649  15934852.8014   15934858.9944
  16736142.945   -37413348.78749 -29130621.27549  16736146.7454   16736153.0954
 95  1  5 21 36 59.9810000  0  6 28 29 18 19 14 22
  18912371.669    -7786123.10149  -6037373.11749  18912367.9274   18912373.6424
  15010995.150   -44551820.84749 -34699807.04249  15010995.7284   15010999.9854
  15787072.514   -42620147.28149 -33195325.72449  15787072.1354   15787076.9904
  16618885.857   -23924188.51649 -18602399.41849  16618878.0644   16618884.1514
  15936098.548   -35977632.39149 -28021889.74449  15936098.7144   15936105.1424
  16736328.442   -37412413.75349 -29129892.68749  16736325.2114   16736330.7304
 95  1  5 21 37 29.9810000  0  6 28 29 18 19 14 22
  18885372.214    -7928008.63549  -6147933.20949  18885367.9704   18885372.9494
  14994894.586   -44636439.16749 -34765743.38449  14994893.3064   14994897.8024
  15760997.224   -42757170.76649 -33302097.25149  15760997.1594   15761002.2514
  16593925.701   -24055323.14849 -18704582.22849  16593924.6754   16593930.2174
  15937428.401   -35970643.06749 -28016443.52349  15937428.4214   15937434.9854
  16736584.137   -37411063.44349 -29128840.50149  16736581.6524   16736587.7114
 95  1  5 21 37 59.9810000  0  6 28 29 18 19 14 22
  18858400.687    -8069724.76249  -6258361.28749  18858400.2924   18858406.8244
  14978850.036   -44720746.26149 -34831437.21649  14978850.2554   14978854.7104
  15734964.631   -42893989.04549 -33408708.87949  15734961.6354   15734966.7924
  16569017.879   -24186212.92649 -18806574.23349  16569016.4964   16569022.6944
  15938842.909   -35963219.00749 -28010658.54749  15938841.0764   15938847.8794
  16736915.373   -37409335.60049 -29127494.13649  16736910.7734   16736916.6314
 95  1  5 21 38 29.9810000  0  6 28 29 18 19 14 22
  18831466.869    -8211253.08349  -6368642.98849  18831468.4764   18831475.8294
  14962869.777   -44804723.47849 -34896873.99949  14962869.9984   14962874.4504
  15708964.594   -43030603.10449 -33515161.37249  15708964.8034   15708969.8674
  16544157.805   -24316838.54549 -18908360.41149  16544159.8954   16544165.7834
  15940335.810   -35955353.11749 -28004529.29249  15940337.9924   15940344.1434
  16737314.052   -37407224.42549 -29125849.06949  16737312.3494   16737318.2024
 95  1  5 21 38 59.9810000  0  6 28 29 18 19 14 22
  18804570.295    -8352630.22649  -6478806.92149  18804564.7114   18804570.2414
  14946946.260   -44888399.09749 -34962075.76749  14946946.7744   14946951.5874
  15682998.100   -43167067.51649 -33621497.25849  15682996.4274   15683001.6814
  16519341.141   -24447254.31349 -19009983.05649  16519342.0624   16519348.1864
  15941908.931   -35947099.85649 -27998098.18849  15941908.6894   15941914.8684
  16737784.012   -37404764.11349 -29123931.94749  16737781.1084   16737786.4654
 95  1  5 21 39 29.9810000  0  6 28 29 18 19 14 22
  18777699.261    -8493803.97349  -6588812.32149  18777701.0004   18777707.3064
  14931090.189   -44971726.69749 -35027006.35349  14931090.1194   14931094.9564
  15657064.795   -43303334.41049 -33727679.23349  15657065.6764   15657070.8594
  16494575.517   -24577410.83549 -19111403.70149  16494574.5434   16494580.2344
  15943560.131   -35938418.62349 -27991333.60449  15943560.8144   15943566.4544
  16738334.679   -37401884.88849 -29121688.40649  16738328.7164   16738334.9464
 95  1  5 21 39 59.9810000  0  6 28 29 18 19 14 22
  18750870.158    -8634795.87749  -6698676.03349  18750869.9514   18750875.2044
  14915295.630   -45054733.49349 -35091686.96149  14915294.2004   14915299.1364
  15631169.687   -43439418.14649 -33833718.48949  15631169.4864   15631174.9814
  16469850.441   -24707345.80649 -19212651.68849  16469847.8004   16469854.3594
  15945293.730   -35929318.88949 -27984242.91349  15945292.2504   15945298.3584
  16738959.824   -37398593.17849 -29119123.44649  16738955.2894   16738960.6914
 95  1  5 21 40 29.9810000  0  6 28 29 18 19 14 22
  18724077.717    -8775601.54249  -6808394.62849  18724075.8914   18724083.3514
  14899560.364   -45137419.50249 -35156117.61749  14899560.1814   14899564.4934
  15605315.526   -43575297.08749 -33939598.16449  15605312.9404   15605317.8094
  16445166.350   -24837073.11949 -19313737.88749  16445162.4624   16445168.0934
  15947103.337   -35919812.48949 -27976835.33749  15947101.8174   15947107.4514
  16739666.214   -37394871.59349 -29116223.51949  16739663.0144   16739669.5014
 95  1  5 21 40 59.9810000  0  6 28 29 18 19 14 22
  18697316.334    -8916202.10949  -6917953.37849  18697319.0504   18697327.3234
  14883887.782   -45219780.02049 -35220294.64149  14883887.5024   14883891.5454
  15579501.952   -43710944.13649 -34045297.14349  15579500.1244   15579505.0204
  16420522.128   -24966578.73749 -19414651.32149  16420518.5834   16420524.1274
  15948990.813   -35909890.14649 -27969103.65249  15948989.7804   15948995.6814
  16740452.797   -37390716.36949 -29112985.70549  16740454.5524   16740459.6164
 95  1  5 21 41 29.9810000  0  6 28 29 18 19 14 22
  18670605.479    -9056624.34849  -7027373.20849  18670597.8014   18670606.5514
  14868267.750   -45301859.27249 -35284252.50549  14868268.5304   14868272.2774
  15553728.181   -43846378.19049 -34150830.15749  15553728.1454   15553732.7714
  16395909.262   -25095893.06349 -19515415.70649  16395910.7094   16395916.4044
  15950951.712   -35899586.33649 -27961074.71949  15950950.8314   15950956.4224
  16741312.742   -37386173.92049 -29109446.14449  16741318.1624   16741323.9654
 95  1  5 21 41 59.9810000  0  6 28 29 18 19 14 22
  18643913.060    -9196866.50849  -7136652.68649  18643911.5524   18643918.7184
  14852702.455   -45383646.32549 -35347982.66749  14852704.1584   14852708.7194
  15527996.667   -43981591.07649 -34256190.82649  15527997.6254   15528002.8474
  16371337.101   -25225015.54649 -19616030.57549  16371338.8864   16371344.9854
  15952983.505   -35888908.54249 -27952754.37249  15952981.9944   15952988.8344
  16742255.929   -37381255.53349 -29105613.66049  16742254.2164   16742260.2844
 95  1  5 21 42 29.9810000  0  6 28 29 18 19 14 22
  18617252.244    -9336944.41049  -7245804.15549  18617256.3194   18617262.0474
  14837194.829   -45465148.81249 -35411491.09349  14837194.7284   14837199.5764
  15502307.085   -44116597.98449 -34361390.99449  15502306.5154   15502311.7934
  16346804.200   -25353950.44549 -19716499.27749  16346803.2074   16346809.8234
  15955076.109   -35877894.14049 -27944171.72949  15955077.9984   15955084.4814
  16743255.811   -37375985.00349 -29101506.77549  16743257.2834   16743262.4534
 95  1  5 21 42 59.9810000  0  6 28 29 18 19 14 22
  18590635.844    -9476863.81849  -7354832.15649  18590629.5544   18590636.6304
  14821740.148   -45546367.23049 -35474778.16449  14821739.3204   14821744.2964
  15476653.338   -44251412.85549 -34466441.51449  15476652.0844   15476657.4644
  16322314.925   -25482688.62749 -19816814.69249  16322304.9424   16322311.7414
  15957236.910   -35866552.25849 -27935333.90749  15957236.6824   15957243.0524
  16744328.218   -37370372.66349 -29097133.53649  16744325.1864   16744330.8564
 95  1  5 21 43 29.9810000  0  6 28 29 18 19 14 22
  18564057.812    -9616519.74649  -7463654.84349  18564054.3264   18564060.4874
  14806360.372   -45627185.57949 -35537753.49549  14806360.2734   14806365.2384
  15451053.384   -44385939.84749 -34571267.72049  15451052.2814   15451057.7654
  16297869.388   -25611110.76649 -19916883.84349  16297866.8594   16297873.7304
  15959474.755   -35854784.25849 -27926164.04749  15959475.8104   15959482.3354
  16745483.025   -37364308.14049 -29092407.95749  16745479.4084   16745485.0664
 95  1  5 21 43 59.9810000  0  6 28 29 18 19 14 22
  18537513.263    -9755966.76649  -7572314.75549  18537518.9434   18537525.3574
  14791048.835   -45707643.07849 -35600447.64049  14791049.7664   14791054.7034
  15425497.984   -44520237.90049 -34675915.52849  15425496.3114   15425501.8544
  16273479.787   -25739267.46249 -20016746.16049  16273479.4304   16273486.2274
  15961786.227   -35842637.91649 -27916699.37749  15961787.1684   15961793.5444
  16746712.486   -37357853.06949 -29087378.04949  16746707.5194   16746713.2744
 95  1  5 21 44 29.9800000  0  6 28 29 18 19 14 22
  18511013.997    -9895247.90149  -7680845.38449  18511013.7614   18511019.5994
  14775796.504   -45787799.35049 -35662907.06849  14775796.6704   14775801.3364
  15399975.976   -44654354.96149 -34780422.31149  15399974.6974   15399980.0634
  16249123.589   -25867217.31349 -20116447.30149  16249131.7644   16249138.1224
  15964161.079   -35830173.89949 -27906987.16649  15964159.0954   15964165.3884
  16748005.872   -37351074.62449 -29082096.15849  16747997.6054   16748003.9684
 95  1  5 21 44 59.9800000  0  6 28 29 18 19 14 22
  18484541.331   -10034363.97949  -7789247.46549  18484540.2754   18484547.7694
  14760600.337   -45867659.63749 -35725135.86249  14760599.9204   14760604.2694
  15374487.520   -44788296.69049 -34884792.47749  15374486.6334   15374491.8314
  16224818.320   -25994981.05749 -20216003.42449  16224819.2394   16224825.4764
  15966589.215   -35817394.85749 -27897029.48549  15966591.1614   15966597.0284
  16749352.614   -37343985.70149 -29076572.35249  16749346.9604   16749352.8414
 95  1  5 21 45 29.9800000  0  6 28 29 18 19 14 22
  18458109.423   -10173253.60949  -7897473.03549  18458109.9114   18458117.2624
  14745465.900   -45947176.02049 -35787096.67949  14745468.0844   14745472.5564
  15349044.800   -44921998.63049 -34988975.77749  15349043.8894   15349049.0414
  16200556.377   -26122516.96849 -20315382.00149  16200549.4454   16200555.6464
  15969094.543   -35804251.42249 -27886787.85849  15969092.0904   15969098.1514
  16750759.923   -37336548.05249 -29070776.79549  16750761.8744   16750767.5424
 95  1  5 21 45 59.9800000  0  6 28 29 18 19 14 22
  18431720.322   -10311938.78149  -8005539.33949  18431719.6334   18431726.7194
  14730396.973   -46026384.60749 -35848817.66149  14730395.9964   14730399.8374
  15323643.361   -45055475.43649 -35092983.67549  15323644.4324   15323649.1584
  16176315.900   -26249866.93649 -20414615.72049  16176315.9294   16176321.9794
  15971659.329   -35790765.73149 -27876279.55349  15971658.8624   15971664.3704
  16752234.211   -37328790.90249 -29064732.28949  16752238.1374   16752243.6604
 95  1  5 21 46 29.9800000  0  6 28 29 18 19 14 22
  18405373.594   -10450395.50449  -8113427.62749  18405371.2484   18405378.9684
  14715383.279   -46105274.40049 -35910290.22549  14715383.5394   14715387.7254
  15298289.319   -45188713.49349 -35196805.51449  15298289.8434   15298294.7794
  16152120.309   -26376996.19749 -20513677.43449  16152124.1754   16152130.3284
  15974293.676   -35776922.46649 -27865492.59849  15974292.9294   15974298.8144
  16753784.606   -37320684.78549 -29058415.85649  16753780.9434   16753786.4484
 95  1  5 21 46 59.9800000  0  6 28 29 18 19 14 22
  18379066.741   -10588643.51749  -8221153.27049  18379064.1254   18379071.4284
  14700428.358   -46183861.63849 -35971527.02849  14700428.4504   14700433.1144
  15272976.742   -45321735.80149 -35300459.23849  15272976.5524   15272981.5764
  16127975.018   -26503907.57149 -20612569.36849  16127973.5654   16127979.6764
  15976993.947   -35762731.33249 -27854434.58049  15976993.2724   15976999.5584
  16755390.025   -37312245.34849 -29051839.69049  16755386.9954   16755392.5394
 95  1  5 21 47 29.9800000  0  7 28 29 18 19 31 14 22
  18352793.961   -10726679.12649  -8328713.44849  18352797.9114   18352804.9734
  14685531.698   -46262134.89849 -36032519.17049  14685533.7044   14685538.4114
  15247705.957   -45454537.91749 -35403941.39049  15247705.1384   15247710.2094
  16103868.154   -26630583.55849 -20711277.90149  16103868.1024   16103873.9584
  18808357.827    -4930092.75959  -3807891.30659  18808352.9704   18808358.3334
  15979763.263   -35748183.57949 -27843098.68149  15979761.6934   15979767.8114
  16757057.370   -37303462.91949 -29044996.25349  16757057.9894   16757064.4874
 95  1  5 21 47 59.9800000  0  7 28 29 18 19 31 14 22
  18326574.527   -10864490.39049  -8436098.76149  18326573.0314   18326577.7654
  14670703.024   -46340076.40349 -36093252.80549  14670701.8494   14670706.4814
  15222476.319   -45587110.80449 -35507244.92649  15222477.3284   15222482.3884
  16079811.262   -26757008.05849 -20809790.46249  16079809.7414   16079815.5974
  18777784.770    -5090725.11749  -3933059.34049  18777784.8304   18777791.1284
  15982601.468   -35733270.80749 -27831478.35249  15982599.4464   15982605.4554
  16758798.678   -37294317.49549 -29037869.97049  16758798.5374   16758804.2354
 95  1  5 21 48 29.9800000  0  7 28 29 18 19 31 14 22
  18300382.696   -11002084.19749  -8543314.68449  18300389.0074   18300396.3764
  14655934.825   -46417683.33349 -36153725.73349  14655934.2824   14655938.4824
  15197290.775   -45719469.75149 -35610381.75649  15197290.3744   15197295.2784
  16055792.912   -26883198.30849 -20908120.51049  16055797.0924   16055802.6874
  18747210.210    -5251416.28149  -4058273.13349  18747206.2354   18747214.0424
  15985502.445   -35718007.74949 -27819585.08449  15985504.1894   15985510.1384
  16760605.250   -37284821.37449 -29030470.40449  16760605.4454   16760611.0834
 95  1  5 21 48 59.9800000  0  7 28 29 18 19 31 14 22
  18274256.199   -11139446.86349  -8650350.47749  18274250.4174   18274256.0284
  14641232.705   -46494937.75149 -36213923.97649  14641233.2804   14641237.4524
  15172149.983   -45851590.55449 -35713333.01249  15172148.5754   15172153.4854
  16031828.779   -27009169.82049 -21006280.10049  16031825.4484   16031831.1544
  18716620.185    -5412146.57549  -4183517.39949  18716620.3514   18716626.0814
  15988476.927   -35702393.17949 -27807417.90049  15988475.7344   15988481.4114
  16762479.022   -37274961.01749 -29022787.02449  16762481.9824   16762487.4104
 95  1  5 21 49 29.9800000  0  7 28 29 18 19 31 14 22
  18248157.889   -11276580.11849  -8757207.50449  18248154.1574   18248160.2994
  14626597.498   -46571852.88249 -36273857.84149  14626596.3684   14626600.7544
  15147050.651   -45983474.41049 -35816099.62849  15147051.7864   15147056.9374
  16007887.397   -27134940.62749 -21104283.30049  16007891.7874   16007897.8064
  18686026.298    -5572935.68849  -4308807.49049  18686021.3854   18686027.9874
  15991508.905   -35686435.54549 -27794983.39849  15991512.0754   15991517.7484
  16764421.532   -37264738.18249 -29014821.19449  16764426.9644   16764432.4154
 95  1  5 21 49 59.9800000  0  7 28 29 18 19 31 14 22
  18222113.762   -11413424.01449  -8863839.07549  18222114.2564   18222120.3164
  14612033.896   -46648382.63449 -36333491.41449  14612033.2014   14612037.5884
  15122011.591   -46115061.67049 -35918635.14549  15122011.5404   15122016.6304
  15984010.484   -27260464.22549 -21202093.87949  15984005.7334   15984011.3844
  18655416.242    -5733720.58449  -4434094.35949  18655424.3164   18655432.1784
  15994624.122   -35670080.70049 -27782239.38749  15994624.5114   15994630.2294
  16766453.900   -37254099.45449 -29006531.28249  16766451.6254   16766456.9944
 95  1  5 21 50 29.9800000  0  7 28 29 18 19 31 14 22
  18196123.263   -11550002.57149  -8970263.87949  18196123.9254   18196129.4684
  14597536.057   -46724553.22949 -36392845.11949  14597537.9444   14597542.8494
  15097021.108   -46246377.70349 -36020959.30449  15097022.5204   15097027.9614
  15960166.452   -27385769.80649 -21299734.56649  15960160.6114   15960166.6514
  18624823.283    -5894526.71749  -4559397.74749  18624823.7694   18624832.3394
  15997807.236   -35653352.23449 -27769204.24049  15997807.2484   15997813.8674
  16768540.439   -37243079.96549 -28997944.67649  16768548.0574   16768554.5734
 95  1  5 21 50 59.9800000  0  7 28 29 18 19 31 14 22
  18170165.867   -11686418.23649  -9076561.74049  18170162.6674   18170170.2184
  14583088.910   -46800477.92049 -36452007.20749  14583090.0774   14583094.9254
  15072071.385   -46377508.46249 -36123139.10149  15072069.2854   15072074.5744
  15936345.686   -27510942.32749 -21397271.57949  15936341.1444   15936347.0764
  18594189.017    -6055458.37749  -4684798.90549  18594199.6064   18594209.0194
  16001043.092   -35636359.42249 -27755963.10649  16001041.0324   16001047.1234
  16770700.017   -37231791.60249 -28989148.56749  16770696.2304   16770702.3544
 95  1  5 21 51 29.9800000  0  7 28 29 18 19 31 14 22
  18144240.769   -11822658.39149  -9182722.85649  18144237.0584   18144245.6044
  14568689.770   -46876150.37849 -36510972.75549  14568690.1234   14568694.6984
  15047155.374   -46508434.18549 -36225159.12549  15047155.0414   15047160.2104
  15912554.363   -27635968.91449 -21494694.87649  15912548.9464   15912555.5554
  18563550.270    -6216492.49049  -4810279.89149  18563556.0784   18563564.7164
  16004326.774   -35619087.68049 -27742504.62649  16004327.2304   16004334.0824
  16772892.526   -37220244.91649 -28980151.15949  16772893.3154   16772899.9104
 95  1  5 21 51 59.9800000  0  7 28 29 18 19 31 14 22
  18118352.254   -11958690.90149  -9288722.14949  18118351.7804   18118357.9564
  14554348.649   -46951513.92849 -36569697.59749  14554349.1464   14554353.6134
  15022285.522   -46639129.88749 -36326999.91449  15022284.4324   15022289.7084
  15888792.148   -27760823.88949 -21591984.45149  15888789.8734   15888796.2204
  18532902.886    -6377576.21949  -4935799.50249  18532902.9544   18532911.5864
  16007666.137   -35601532.68449 -27728825.42749  16007667.9844   16007674.8734
  16775155.265   -37208409.69649 -28970928.92949  16775145.4984   16775152.6264
 95  1  5 21 52 29.9800000  0  7 28 29 18 19 31 14 22
  18092517.410   -12094488.58949  -9394538.44349  18092511.1364   18092516.4874
  14540073.138   -47026537.63449 -36628157.61949  14540072.7504   14540077.1624
  14997462.723   -46769567.84549 -36428639.86249  14997463.1484   14997468.1224
  15865068.506   -27885475.55549 -21689115.60049  15865069.5344   15865075.6854
  18502241.767    -6538692.81649  -5061344.77549  18502243.5424   18502250.0494
  16011067.039   -35583679.06549 -27714913.53649  16011065.9464   16011072.5484
  16777458.879   -37196257.99749 -28961460.10649  16777458.5524   16777464.4224
 95  1  5 21 52 59.9800000  0  7 28 29 18 19 31 14 22
  18066714.998   -12230038.76849  -9500161.90149  18066716.7954   18066723.2214
  14525864.578   -47101205.94349 -36686340.71149  14525863.8424   14525868.2024
  14972695.278   -46899735.93549 -36530069.52649  14972692.8534   14972697.8064
  15841384.161   -28009914.94649 -21786081.34549  15841389.4614   15841395.4744
  18471576.597    -6699828.03749  -5186904.54249  18471581.2294   18471588.2284
  16014520.819   -35565526.92049 -27700769.02749  16014520.2174   16014526.6494
  16779837.937   -37183783.72149 -28951739.90749  16779832.2074   16779838.0814
 95  1  5 21 53 29.9800000  0  7 28 29 18 19 31 14 22
  18040972.369   -12365345.24649  -9605595.44249  18040968.6944   18040974.6014
  14511724.372   -47175511.71249 -36744241.29749  14511723.7904   14511728.3714
  14947970.785   -47029661.69049 -36631310.35549  14947968.8824   14947973.8124
  15817746.027   -28134159.16649 -21882895.00549  15817746.8814   15817752.8184
  18440903.795    -6860990.89649  -5312485.84949  18440911.7304   18440918.5114
  16018027.350   -35547088.07349 -27686401.11349  16018029.2064   16018035.4654
  16782267.753   -37170992.37149 -28941772.64949  16782266.1214   16782272.0144
 95  1  5 21 53 59.9800000  0  7 28 29 18 19 31 14 22
  18015265.159   -12500370.87949  -9710810.15149  18015274.3234   18015280.8264
  14497656.779   -47249421.35249 -36801833.21549  14497659.4374   14497663.8434
  14923298.265   -47159322.75249 -36732344.93049  14923295.3744   14923300.1414
  15794150.832   -28258157.11649 -21979516.76949  15794150.5544   15794156.4444
  18410242.295    -7022161.03749  -5438072.79549  18410242.4054   18410249.2794
  16021599.079   -35528330.80349 -27671785.07749  16021598.6034   16021604.7904
  16784774.479   -37157849.90349 -28931531.78649  16784767.6574   16784772.9734
 95  1  5 21 54 29.9800000  0  7 28 29 18 19 31 14 22
  17989641.436   -12635107.78949  -9815799.85549  17989635.4794   17989641.9904
  14483666.830   -47322955.94049 -36859132.88449  14483666.2014   14483670.6084
  14898674.758   -47288705.57249 -36833162.69649  14898674.5474   14898679.2934
  15770601.001   -28381893.51749 -22075934.72549  15770604.6104   15770610.2084
  18379574.046    -7183348.65649  -5563673.38749  18379568.9604   18379576.7414
  16025233.945   -35509235.00749 -27656905.25849  16025232.4374   16025238.4294
  16787334.105   -37144381.19649 -28921036.70949  16787330.2864   16787336.5604
 95  1  5 21 54 59.9790000  0  7 28 29 18 19 31 14 22
  17964039.619   -12769601.68549  -9920600.21949  17964040.5434   17964047.9634
  14469735.884   -47396162.08149 -36916176.62549  14469735.5744   14469739.8894
  14874095.682   -47417867.73749 -36933808.52649  14874095.3614   14874100.4664
  15747094.085   -28505418.53149 -22172187.96049  15747098.4194   15747104.1544
  18348883.467    -7344591.70649  -5689317.17549  18348886.3044   18348894.1264
  16028921.954   -35489858.62349 -27641806.79549  16028919.1494   16028925.2804
  16789938.495   -37130662.26649 -28910346.66649  16789941.1034   16789947.0784
 95  1  5 21 55 29.9790000  0  7 28 29 18 19 31 14 22
  17938492.377   -12903855.46949 -10025213.48449  17938492.7254   17938499.5234
  14455863.290   -47469057.40349 -36972978.17049  14455863.8984   14455868.1734
  14849558.757   -47546812.88749 -37034285.24949  14849557.7644   14849562.9344
  15723635.626   -28628736.60349 -22268279.94449  15723631.7914   15723637.5314
  18318187.437    -7505901.31949  -5815012.82549  18318189.9594   18318196.6124
  16032659.093   -35470202.55249 -27626490.39649  16032659.4404   16032665.5684
  16792599.439   -37116698.62049 -28899465.92349  16792598.2984   16792604.3894
 95  1  5 21 55 59.9790000  0  7 28 29 18 19 31 14 22
  17912998.740   -13037807.93849 -10129591.95049  17913001.4264   17913007.2554
  14442056.401   -47541607.02649 -37029510.34549  14442057.9624   14442062.5474
  14825073.892   -47675471.76949 -37134538.90949  14825074.7514   14825080.2684
  15700218.392   -28751790.97549 -22364166.44849  15700214.9584   15700220.8094
  18287487.867    -7667210.91649  -5940708.46249  18287493.6694   18287501.0124
  16036462.188   -35450219.97349 -27610919.57749  16036462.0664   16036467.9434
  16795307.342   -37102438.99449 -28888354.54949  16795311.9774   16795318.3014
 95  1  5 21 56 29.9790000  0  7 28 29 18 19 31 14 22
  17887572.131   -13171489.95849 -10233759.69249  17887563.9254   17887570.8634
  14428313.798   -47613830.05649 -37085788.02949  14428314.6204   14428318.9554
  14800642.983   -47803865.28349 -37234585.78549  14800642.7184   14800647.5914
  15676838.433   -28874631.30649 -22459886.16149  15676839.4884   15676845.2274
  18256792.075    -7828538.51549  -6066418.10049  18256793.4024   18256799.9484
  16040325.003   -35429947.28549 -27595122.69849  16040320.1864   16040326.0064
  16798081.317   -37087910.56849 -28877033.72849  16798076.9034   16798083.0494
 95  1  5 21 56 59.9790000  0  7 28 29 18 19 31 14 22
  17862174.182   -13304869.33949 -10337691.60349  17862182.0204   17862189.3114
  14414639.344   -47685686.90349 -37141780.37449  14414640.3014   14414645.2184
  14776267.090   -47931961.75349 -37334401.19949  14776266.3514   14776271.7634
  15653508.199   -28997247.13949 -22555430.94049  15653506.3084   15653512.1584
  18226095.705    -7989845.15749  -6192111.47649  18226097.0064   18226104.7774
  16044242.149   -35409352.93749 -27579075.17449  16044238.8474   16044244.9344
  16800907.294   -37073056.32849 -28865459.01949  16800903.2304   16800909.0364
 95  1  5 21 57 29.9790000  0  8 28 29 18 19 27 31 14 22
  17836862.875   -13437937.53249 -10441381.00249  17836861.9384   17836865.5444
  14401038.157   -47757170.85249 -37197482.14849  14401037.8684   14401042.4824
  14751949.685   -48059744.64449 -37433972.26449  14751950.4534   14751955.3684
  15630213.551   -29119644.23449 -22650805.27649  15630215.3004   15630220.9124
  18814564.904    -1278805.53559   -970871.40059  18814565.7484   18814573.4544
  18195409.793    -8151116.40549  -6317777.24649  18195409.2394   18195416.7864
  16048219.212   -35388429.23449 -27562771.00549  16048220.5514   16048226.8074
  16803794.130   -37057853.36549 -28853612.57249  16803795.9844   16803802.7214
 95  1  5 21 57 59.9790000  0  8 28 29 18 19 27 31 14 22
  17811593.480   -13570711.00449 -10544840.79549  17811594.8264   17811600.8424
  14387504.454   -47828286.02449 -37252896.56449  14387504.9644   14387509.4404
  14727688.854   -48187234.41649 -37533314.92749  14727690.0154   14727694.9214
  15606957.503   -29241840.62249 -22746023.21349  15606961.9494   15606967.7184
  18785286.963    -1432657.43249  -1090755.86349  18785286.7634   18785291.7944
  18164726.455    -8312353.96149  -6443416.75049  18164725.4134   18164733.3904
  16052267.239   -35367190.04249 -27546221.01049  16052262.7624   16052268.6504
  16806759.063   -37042309.36749 -28841500.40049  16806754.4234   16806760.6474
 95  1  5 21 58 29.9790000  0  8 28 29 18 19 27 31 14 22
  17786387.099   -13703198.25249 -10648077.54849  17786383.4584   17786389.7704
  14374042.975   -47899023.76049 -37308016.87649  14374043.9504   14374048.5174
  14703487.253   -48314437.09349 -37632433.87849  14703484.1704   14703488.9484
  15583747.085   -29363846.34849 -22841092.58549  15583745.1344   15583750.8304
  18756027.251    -1586436.20049  -1210583.55149  18756023.8714   18756032.3854
  18134044.762    -8473554.55349  -6569027.42549  18134050.6154   18134056.9224
  16056362.843   -35345644.70949 -27529432.45649  16056362.8594   16056368.9394
  16809777.775   -37026432.98649 -28829129.22349  16809775.4664   16809780.7544
 95  1  5 21 58 59.9790000  0  8 28 29 18 19 27 31 14 22
  17761223.145   -13835393.20249 -10751086.55149  17761227.2984   17761233.8744
  14360650.462   -47969407.45849 -37362861.31449  14360650.4794   14360654.8034
  14679330.453   -48441353.70649 -37731329.91949  14679332.7404   14679337.6964
  15560565.648   -29485647.27249 -22936002.36749  15560567.2294   15560572.8204
  18726780.771    -1740133.37449  -1330347.47149  18726778.5884   18726783.9304
  18103391.124    -8634707.10649  -6694600.73049  18103383.3034   18103389.3594
  16060518.541   -35323807.22749 -27512416.25349  16060518.4444   16060524.6634
  16812860.566   -37010222.92749 -28816498.02349  16812859.7774   16812866.4524
 95  1  5 21 59 29.9790000  0  8 28 29 18 19 27 31 14 22
  17736126.511   -13967310.94349 -10853879.52549  17736124.9504   17736130.6314
  14347322.010   -48039450.30449 -37417440.15649  14347321.7184   14347325.9134
  14655233.291   -48568000.61349 -37830015.80149  14655232.5394   14655237.6324
  15537425.404   -29607238.18749 -23030748.50549  15537428.9894   15537434.7444
  18697543.456    -1893761.57649  -1450057.76249  18697538.4214   18697548.4574
  18072737.156    -8795814.43749  -6820138.82149  18072725.4564   18072732.7774
  16064726.570   -35301709.27849 -27495197.08449  16064723.3664   16064729.6054
  16816005.291   -36993715.23749 -28803634.93349  16816001.4534   16816007.9504
 95  1  5 21 59 59.9790000  0  8 28 29 18 19 27 31 14 22
  17711077.938   -14098948.47449 -10956454.18649  17711074.4724   17711080.8714
  14334059.104   -48109152.82549 -37471753.81149  14334057.4744   14334062.0934
  14631182.912   -48694383.43349 -37928495.89549  14631182.1634   14631187.7084
  15514339.198   -29728612.78849 -23125326.08149  15514332.0024   15514338.2774
  18668314.026    -2047324.53649  -1569717.18849  18668320.5644   18668325.6724
  18042065.536    -8956870.58349  -6945637.03849  18042076.5154   18042084.4434
  16068979.340   -35279353.36349 -27477776.90149  16068976.8614   16068984.0774
  16819201.126   -36976923.14149 -28790550.20349  16819196.7334   16819202.3874
 95  1  5 22  0 29.9790000  0  8 28 29 18 19 27 31 14 22
  17686090.132   -14230268.24349 -11058781.22049  17686085.3874   17686091.3704
  14320867.911   -48178477.64449 -37525773.14849  14320866.0144   14320870.0314
  14607189.871   -48820467.13449 -38026742.91449  14607189.6324   14607194.7194
  15491286.138   -29849737.24249 -23219708.74049  15491282.9774   15491288.4424
  18639124.894    -2200783.31449  -1689295.41849  18639119.1424   18639125.7094
  18011448.397    -9117850.97749  -7071076.17549  18011444.6304   18011451.7944
  16073284.829   -35256712.81449 -27460134.92949  16073285.8114   16073292.5554
  16822453.560   -36959830.74049 -28777231.47049  16822449.5124   16822455.4974
 95  1  5 22  0 59.9790000  0  8 28 29 18 19 27 31 14 22
  17661143.019   -14361278.77849 -11160867.29349  17661154.4864   17661159.7454
  14307743.888   -48247426.70449 -37579499.68649  14307745.2724   14307749.6244
  14583249.814   -48946277.65349 -38124777.06149  14583248.4394   14583253.6334
  15468278.799   -29970624.55649 -23313906.61149  15468278.7814   15468284.5724
  18609935.034    -2354138.39449  -1808792.82849  18609936.8054   18609940.1484
  17980835.886    -9278777.50449  -7196473.37349  17980820.8644   17980827.8734
  16077648.294   -35233790.41749 -27442273.33949  16077647.8744   16077654.3574
  16825755.829   -36942463.88449 -28763698.88349  16825754.1734   16825761.0564
 95  1  5 22  1 29.9790000  0  8 28 29 18 19 27 31 14 22
  17636283.252   -14491989.00149 -11262719.36249  17636281.2294   17636286.8334
  14294698.050   -48315988.88149 -37632924.75749  14294698.0164   14294702.7954
  14559357.189   -49071825.53949 -38222606.55749  14559357.3294   14559362.7614
  15445308.077   -30091296.68849 -23407936.81049  15445315.6014   15445321.5674
  18580771.579    -2507414.77949  -1928228.91449  18580766.1844   18580777.2354
  17950218.451    -9439674.89949  -7321847.89949  17950201.9194   17950208.4774
  16082065.349   -35210574.99849 -27424183.41749  16082065.1964   16082071.8024
  16829106.661   -36924847.20449 -28749971.62849  16829105.9904   16829113.0614
 95  1  5 22  1 59.9790000  0  8 28 29 18 19 27 31 14 22
  17611475.350   -14622379.57349 -11364322.34949  17611468.4724   17611476.2344
  14281725.582   -48384157.06449 -37686042.81549  14281725.9134   14281730.8614
  14535522.317   -49197088.43749 -38320213.98749  14535520.4224   14535525.9624
  15422394.042   -30211748.16449 -23501795.07549  15422394.3014   15422400.1554
  18551624.013    -2660602.14049  -2047595.64149  18551617.4564   18551622.7364
  17919577.017    -9600550.01849  -7447205.05649  17919589.6654   17919595.2104
  16086541.726   -35187056.46149 -27405857.29749  16086540.2554   16086547.3644
  16832508.252   -36906962.58849 -28736035.58549  16832509.9194   16832515.9104
 95  1  5 22  2 29.9790000  0  8 28 29 18 19 27 31 14 22
  17586717.838   -14752453.59849 -11465678.70949  17586715.5484   17586722.6054
  14268825.970   -48451939.38349 -37738860.19749  14268827.4424   14268832.4654
  14511741.528   -49322058.74549 -38417593.42849  14511739.6394   14511744.9814
  15399512.553   -30331989.54349 -23595489.62649  15399512.8794   15399519.0374
  18522482.381    -2813707.49749  -2166898.45949  18522478.3984   18522489.9094
  17888988.248    -9761422.01249  -7572559.78649  17888976.8094   17888982.6594
  16091069.109   -35163251.73349 -27387308.17749  16091070.4714   16091077.0904
  16835964.547   -36888817.60649 -28721896.66349  16835963.0384   16835968.8744
 95  1  5 22  2 59.9790000  0  8 28 29 18 19 27 31 14 22
  17562020.491   -14882213.41949 -11566790.21649  17562022.4374   17562028.6504
  14256000.538   -48519349.90049 -37791387.86949  14255999.9004   14256004.4804
  14488016.966   -49446728.12749 -38514738.38749  14488016.0484   14488021.2284
  15376670.016   -30452030.51649 -23689028.01949  15376670.1414   15376675.9634
  18493365.834    -2966738.09049  -2286142.99649  18493362.1674   18493366.1044
  17858357.725    -9922290.30049  -7697911.62849  17858364.7464   17858370.5714
  16095655.223   -35139171.54249 -27368544.41649  16095652.6414   16095659.1874
  16839463.156   -36870403.63949 -28707548.15249  16839466.5404   16839472.3834
 95  1  5 22  3 29.9790000  0  8 28 29 18 19 27 31 14 22
  17537397.017   -15011634.72549 -11667637.97449  17537395.0144   17537403.0874
  14243240.330   -48586394.36549 -37843630.30649  14243241.5864   14243245.9834
  14464358.752   -49571058.64549 -38611619.28949  14464356.6494   14464361.8244
  15353869.997   -30571847.66749 -23782392.00349  15353869.4384   15353875.2244
  18464260.753    -3119674.02249  -2405313.81749  18464257.8784   18464264.5194
  17827771.431   -10083129.65449  -7823240.93349  17827758.2814   17827763.8074
  16100291.427   -35114815.04949 -27349565.35349  16100287.7754   16100293.8704
  16843028.054   -36851698.47149 -28692972.71149  16843026.0224   16843032.4624
 95  1  5 22  3 59.9790000  0  8 28 29 18 19 27 31 14 22
  17512827.472   -15140741.04849 -11768240.28649  17512826.5694   17512835.3034
  14230546.321   -48653100.25349 -37895608.91749  14230547.9784   14230552.3384
  14440758.218   -49695078.16349 -38708257.86249  14440756.6614   14440761.7394
  15331111.769   -30691452.44149 -23875590.50849  15331109.4244   15331115.3304
  18435173.609    -3272531.72549  -2524423.58649  18435171.3704   18435172.5944
  17797155.864   -10243950.86449  -7948556.10749  17797155.0704   17797160.2024
  16104969.942   -35090227.50549 -27330406.26849  16104967.3684   16104972.9964
  16846638.655   -36832727.77849 -28678190.38349  16846636.2874   16846643.0784
 95  1  5 22  4 29.9790000  0  8 28 29 18 19 27 31 14 22
  17488323.753   -15269511.86849 -11868581.16349  17488321.5204   17488329.0084
  14217923.317   -48719443.52249 -37947304.96949  14217923.0374   14217927.7354
  14417219.016   -49818782.28049 -38804650.65549  14417216.3134   14417221.6974
  15308390.193   -30810826.19249 -23968608.98549  15308392.9974   15308399.2644
  18406098.774    -3425295.17849  -2643460.01349  18406101.6604   18406108.5374
  17766569.979   -10404721.29649  -8073831.71449  17766560.8864   17766566.6954
  16109688.379   -35065378.77449 -27311043.63749  16109695.5114   16109701.8424
  16850299.458   -36813476.97349 -28663189.80049  16850299.8874   16850304.7544
 95  1  5 22  4 59.9790000  0  8 28 29 18 19 27 31 14 22
  17463879.616   -15397958.43349 -11968669.35149  17463877.9304   17463884.6954
  14205363.837   -48785438.44349 -37998729.57949  14205364.7704   14205369.2424
  14393731.829   -49942199.20349 -38900819.67249  14393731.0254   14393736.1934
  15285723.790   -30929971.63749 -24061449.56949  15285720.7334   15285726.6004
  18377048.189    -3577972.43549  -2762429.19749  18377046.7354   18377052.9974
  17735978.426   -10565439.96449  -8199066.98149  17735974.3904   17735981.8524
  16114471.338   -35040271.56249 -27291479.61549  16114473.5694   16114479.5874
  16854014.038   -36793960.77549 -28647982.39849  16854013.7534   16854019.7024
 95  1  5 22  5 29.9780000  0  8 28 29 18 19 27 31 14 22
  17439491.017   -15526078.61149 -12068503.23749  17439497.7004   17439505.8974
  14192875.134   -48851074.27049 -38049874.37649  14192874.6874   14192879.3064
  14370299.598   -50065342.63849 -38996775.56849  14370297.2584   14370302.7024
  15263089.068   -31048884.35549 -24154108.80249  15263092.1734   15263098.2824
  18348012.254    -3730559.34349  -2881328.02649  18348010.7454   18348018.9124
  17705415.820   -10726105.95349  -8324261.21149  17705403.1334   17705410.2124
  16119302.924   -35014897.40649 -27271707.56749  16119302.0304   16119308.0544
  16857773.677   -36774197.64559 -28632582.58849  16857773.6894   16857781.1164
 95  1  5 22  5 59.9780000  0  8 28 29 18 19 27 31 14 22
  17415183.707   -15653877.47959 -12168086.74259  17415179.6364   17415187.2634
  14180455.654   -48916331.63149 -38100724.26849  14180456.5634   14180461.2624
  14346913.354   -50188219.96349 -39092524.11649  14346914.3774   14346919.8484
  15240504.271   -31167581.59349 -24246600.13649  15240504.9654   15240511.1524
  18318985.126    -3883084.51249  -3000178.74949  18318985.6414   18318993.0954
  17674839.297   -10886725.60949  -8449419.31449  17674838.2384   17674845.1244
  16124179.689   -34989257.46249 -27251728.42049  16124181.2314   16124187.2654
  16861590.538   -36754180.17449 -28616984.59149  16861582.9864   16861589.3884
 95  1  5 22  6 29.9780000  0  8 28 29 18 19 27 31 14 22
  17390926.731   -15781345.58949 -12267412.50349  17390923.9544   17390931.8404
  14168110.843   -48981210.66949 -38151279.35849  14168110.5044   14168115.2224
  14323588.055   -50310808.23749 -39188047.43249  14323586.7754   14323592.0604
  15217957.346   -31286069.56749 -24338928.40549  15217957.2664   15217963.2884
  18289968.548    -4035543.24349  -3118977.67649  18289974.6574   18289983.1644
  17644298.009   -11047283.64649  -8574529.43249  17644282.9504   17644290.6414
  16129112.295   -34963352.85849 -27231543.04549  16129110.7334   16129116.9164
  16865452.546   -36733897.82349 -28601180.19349  16865442.9794   16865448.7404
 95  1  5 22  6 59.9780000  0  8 28 29 18 19 27 31 14 22
  17366732.061   -15908482.62149 -12366480.28349  17366729.7474   17366735.2914
  14155837.543   -49045709.74449 -38201538.38249  14155836.9084   14155841.5224
  14300319.035   -50433082.34049 -39283325.94449  14300318.9534   14300324.0904
  15195448.745   -31404352.28349 -24431096.74449  15195448.7324   15195454.7104
  18260986.419    -4187929.30249  -3237720.01849  18260974.6744   18260983.7244
  17613760.760   -11207770.85549  -8699584.37049  17613744.0484   17613752.1714
  16134086.938   -34937203.99349 -27211167.34549  16134086.5844   16134092.9164
  16869356.829   -36713352.49149 -28585170.88749  16869353.2054   16869358.5164
 95  1  5 22  7 29.9780000  0  8 28 29 18 19 27 31 14 22
  17342596.037   -16035300.83549 -12465299.60249  17342597.8344   17342604.8934
  14143635.454   -49109833.89649 -38251505.25049  14143634.4554   14143639.1194
  14277113.326   -50555034.25149 -39378353.39849  14277112.3554   14277117.4224
  15172967.711   -31522451.52149 -24523122.10349  15172975.2614   15172981.5794
  18231986.120    -4340260.03349  -3356419.20449  18231987.6634   18231993.7204
  17583199.555   -11368208.37249  -8824600.55049  17583213.2624   17583222.8794
  16139101.482   -34910848.86649 -27190630.91149  16139101.6984   16139107.6584
  16873305.360   -36692559.86549 -28568968.86349  16873309.3114   16873315.8364
 95  1  5 22  7 59.9780000  0  8 28 29 18 19 27 31 14 22
  17318529.856   -16161801.96549 -12563871.85349  17318525.3164   17318532.2714
  14131502.001   -49173591.64549 -38301186.61149  14131501.6124   14131506.4884
  14253967.654   -50676654.56149 -39473122.45849  14253968.6564   14253973.8014
  15150534.819   -31640370.08749 -24615006.67449  15150535.8834   15150542.1694
  18203010.867    -4492545.94749  -3475083.49649  18203006.8534   18203016.2424
  17552703.556   -11528591.47949  -8949574.33049  17552694.0584   17552701.8554
  16144148.494   -34884316.53849 -27169956.39149  16144149.9674   16144156.6994
  16877309.586   -36671527.20049 -28552579.80949  16877311.4234   16877317.4924
 95  1  5 22  8 29.9780000  0  8 28 29 18 19 27 31 14 22
  17294520.331   -16287972.85349 -12662186.79349  17294515.4474   17294523.4504
  14119440.601   -49236976.80549 -38350577.64949  14119439.8774   14119444.6064
  14230889.845   -50797941.46849 -39567631.72349  14230888.3914   14230893.6734
  15128136.267   -31758089.23649 -24706735.86849  15128134.7614   15128140.8054
  18174046.844    -4644746.82649  -3593681.55349  18174047.8034   18174052.7574
  17522190.248   -11688906.26649  -9074494.89849  17522187.4274   17522196.1794
  16149238.993   -34857586.44449 -27149127.78649  16149236.7954   16149243.6324
  16881355.686   -36650263.50849 -28536010.74549  16881358.2834   16881363.8634
 95  1  5 22  8 59.9780000  0  8 28 29 18 19 27 31 14 22
  17270569.685   -16413814.03449 -12760244.80449  17270570.5034   17270577.7744
  14107449.428   -49299983.69149 -38399673.92749  14107449.9414   14107454.5934
  14207867.410   -50918916.76849 -39661898.17249  14207867.4704   14207872.9494
  15105767.443   -31875613.28049 -24798313.02749  15105770.8164   15105776.5454
  18145099.445    -4796868.54649  -3712217.91149  18145098.6054   18145106.5794
  17491701.309   -11849165.68949  -9199372.32649  17491691.4174   17491698.2494
  16154362.423   -34830652.84049 -27128140.58949  16154362.3494   16154368.7224
  16885441.880   -36628800.32049 -28519286.20749  16885442.1094   16885449.1854
 95  1  5 22  9 29.9780000  0  8 28 29 18 19 27 31 14 22
  17246688.362   -16539318.75449 -12858040.63549  17246686.9494   17246694.4054
  14095533.596   -49362604.33949 -38448469.23949  14095533.3404   14095538.2054
  14184902.744   -51039598.50549 -39755935.87449  14184902.4304   14184907.8414
  15083445.830   -31992927.87449 -24889726.98349  15083446.8624   15083452.6434
  18116161.906    -4948914.03749  -3830694.87749  18116165.7104   18116172.7634
  17461212.350   -12009367.84849  -9324205.10749  17461205.8164   17461213.8434
  16159529.440   -34803500.08949 -27106982.62449  16159529.6774   16159535.8114
  16889571.197   -36607142.39949 -28502409.95149  16889564.1264   16889569.8984
 95  1  5 22  9 59.9780000  0  8 28 29 18 19 27 31 14 22
  17222883.065   -16664376.00149 -12955487.77949  17222888.5964   17222895.5594
  14083709.546   -49424744.28149 -38496889.98149  14083709.0684   14083713.2944
  14162012.110   -51159887.74249 -39849667.73749  14162012.5584   14162017.5694
  15061181.150   -32109927.51749 -24980895.53049  15061182.7664   15061188.5714
  18087265.748    -5100779.89949  -3949031.88849  18087266.3004   18087273.8904
  17430745.240   -12169380.48549  -9448890.21649  17430756.4744   17430764.3344
  16164761.830   -34776006.59849 -27085559.14749  16164761.2944   16164767.0994
  16893748.897   -36585189.11149 -28485303.52149  16893742.7774   16893747.1024
 95  1  5 22 10 29.9780000  0  8 28 29 18 19 27 31 14 22
  17199250.985   -16788603.65049 -13052288.49549  17199248.5344   17199256.7174
  14072049.545   -49486030.82349 -38544645.73749  14072046.5864   14072050.8744
  14139269.882   -51279409.15949 -39942801.29749  14139268.0974   14139273.2974
  15039043.371   -32226235.67549 -25071525.24749  15039049.7594   15039055.5544
  18058477.838    -5252081.68049  -4066929.32049  18058473.8234   18058479.6464
  17400424.157   -12328821.03549  -9573129.54449  17400415.5264   17400423.2354
  16170129.443   -34747782.66549 -27063566.51249  16170131.8484   16170138.3594
  16898045.339   -36562558.70549 -28467669.49449  16898048.8844   16898054.2504
 95  1  5 22 10 59.9780000  0  8 28 29 18 19 27 31 14 22
  17175602.783   -16912863.46649 -13149114.26049  17175602.6794   17175609.6084
  14060381.753   -49547339.87349 -38592419.02449  14060379.9374   14060384.5044
  14116508.906   -51399006.08949 -40035993.69649  14116509.6394   14116514.7794
  15016884.604   -32342709.94649 -25162284.40049  15016885.5044   15016891.1394
  18029618.421    -5403708.30449  -4185079.85049  18029621.0844   18029628.7344
  17370028.955   -12488540.09649  -9697585.87649  17370022.5394   17370029.4614
  16175472.624   -34719714.95249 -27041695.59149  16175472.8484   16175480.0414
  16902328.067   -36540099.52749 -28450168.84649  16902322.7884   16902327.4594
 95  1  5 22 11 29.9780000  0  8 28 29 18 19 27 31 14 22
  17151991.987   -17036963.22549 -13245815.29449  17151987.6804   17151993.2024
  14048739.626   -49608495.77449 -38640072.96549  14048742.2644   14048747.1874
  14093775.332   -51518478.49449 -40129089.06049  14093775.0154   14093779.9194
  14994733.120   -32459150.64649 -25253017.39449  14994727.3434   14994733.3804
  18000740.670    -5555470.65949  -4303336.17549  18000740.9294   18000746.9734
  17339601.113   -12648338.27849  -9822103.86149  17339614.0224   17339620.9174
  16180816.331   -34691633.13649 -27019813.68049  16180817.0094   16180823.6394
  16906604.578   -36517604.12349 -28432639.99949  16906602.6584   16906608.7814
 95  1  5 22 11 59.9780000  0  8 28 29 18 19 27 31 14 22
  17128420.943   -17160805.16249 -13342315.44649  17128421.0754   17128427.2184
  14037150.198   -49669409.26149 -38687538.01249  14037150.3704   14037155.7584
  14071085.132   -51637718.15149 -40222003.06449  14071084.0524   14071089.2134
  14972589.985   -32575476.37449 -25343660.79949  14972591.1074   14972597.0674
  17971856.056    -5707269.13649  -4421620.66149  17971852.9864   17971863.5254
  17309218.152   -12808122.44549  -9946610.91649  17309207.6334   17309214.0674
  16186177.833   -34663452.17149 -26997854.50949  16186179.4964   16186186.2784
  16910906.959   -36494979.28749 -28415010.27549  16910908.1044   16910915.3774
 95  1  5 22 12 29.9780000  0  8 28 29 18 19 27 31 14 22
  17104907.760   -17284360.17249 -13438592.00349  17104909.4364   17104913.6404
  14025614.188   -49730037.66749 -38734780.92149  14025613.3774   14025618.3164
  14048442.627   -51756702.17449 -40314717.87049  14048442.4174   14048447.2224
  14950483.649   -32691662.78449 -25434195.65249  14950481.7604   14950487.5234
  17942970.727    -5859073.67249  -4539909.80349  17942967.4224   17942974.8854
  17278812.622   -12967887.57049 -10071103.14149  17278805.1464   17278812.2734
  16191563.945   -34635148.10249 -26975799.42249  16191565.6574   16191572.2394
  16915245.858   -36472199.70349 -28397259.95549  16915242.4264   16915250.4064
 95  1  5 22 12 59.9780000  0  8 28 29 18 19 27 31 14 22
  17081459.815   -17407598.85649 -13534622.10049  17081457.8054   17081462.9424
  14014140.413   -49790336.29249 -38781766.85849  14014139.0214   14014143.4844
  14025855.941   -51875395.84749 -40407206.43149  14025855.4424   14025860.5774
  14928401.762   -32807687.04149 -25524604.13949  14928403.0204   14928408.8574
  17914087.403    -6010856.58749  -4658182.19049  17914084.1504   17914092.9154
  17248412.862   -13127616.58749 -10195567.24849  17248409.7864   17248416.9074
  16196983.205   -34606691.83049 -26953625.72749  16196981.4454   16196987.8594
  16919611.282   -36449249.61049 -28379376.80249  16919609.7064   16919616.6494
 95  1  5 22 13 29.9780000  0  8 28 29 18 19 27 31 14 22
  17058059.417   -17530530.64949 -13630413.03749  17058064.2754   17058069.6254
  14002730.723   -49850295.03949 -38828487.96449  14002729.6124   14002733.3974
  14003320.230   -51993825.61249 -40499489.34749  14003319.1874   14003324.3254
  14906348.873   -32923584.86749 -25614914.11649  14906348.6224   14906354.3014
  17885204.239    -6162615.20449  -4776435.55549  17885206.3594   17885211.7324
  17218023.385   -13287343.34149 -10320029.54649  17218014.3854   17218020.9414
  16202428.080   -34578074.46449 -26931326.50549  16202426.9664   16202433.0274
  16923999.952   -36426148.53049 -28361375.98849  16924005.9144   16924012.7654
 95  1  5 22 13 59.9780000  0  8 28 29 18 19 27 31 14 22
  17034734.221   -17653126.05249 -13725941.88949  17034735.9404   17034742.2694
  13991392.660   -49909870.07049 -38874910.07549  13991392.3444   13991396.4744
  13980840.744   -52111959.94249 -40591542.05849  13980838.8234   13980844.0074
  14884320.008   -33039348.40349 -25705119.43849  14884319.3324   14884325.0834
  17856340.995    -6314321.09849  -4894647.91849  17856337.2114   17856342.3894
  17187630.309   -13447044.74249 -10444472.14749  17187624.8694   17187630.6314
  16207910.294   -34549268.78949 -26908880.55949  16207908.3284   16207914.8324
  16928433.244   -36402874.97749 -28343240.76949  16928434.8774   16928442.5264
 95  1  5 22 14 29.9780000  0  8 28 29 18 19 27 31 14 22
  17011472.141   -17775379.58649 -13821204.35449  17011471.5944   17011477.7374
  13980130.831   -49969051.38349 -38921025.38649  13980130.6514   13980135.0314
  13958415.430   -52229801.38849 -40683366.54649  13958414.6824   13958419.6614
  14862322.573   -33154970.76049 -25795214.76149  14862317.4904   14862322.7894
  17827478.432    -6465977.89749  -5012821.95349  17827476.6484   17827485.0394
  17157235.172   -13606704.18749 -10568882.03249  17157241.3964   17157248.5894
  16213423.948   -34520283.58549 -26886294.71549  16213424.2574   16213430.4624
  16932899.805   -36379428.52649 -28324970.83949  16932896.7544   16932902.8944
 95  1  5 22 14 59.9780000  0  8 28 29 18 19 27 31 14 22
  16988270.698   -17897285.56049 -13916196.00149  16988273.2094   16988280.4434
  13968943.385   -50027841.10049 -38966835.55049  13968943.1124   13968948.2544
  13936046.942   -52347345.91749 -40774959.67849  13936046.2744   13936051.4564
  14840344.424   -33270439.73249 -25885190.55849  14840344.1364   14840349.6994
  17798628.681    -6617584.10549  -5130956.57749  17798626.1804   17798633.4984
  17126882.646   -13766296.20049 -10693239.36549  17126872.9554   17126878.6004
  16218967.899   -34491133.65249 -26863580.50549  16218971.3154   16218976.9604
  16937393.575   -36355802.41249 -28306560.92249  16937392.3624   16937399.9834
 95  1  5 22 15 29.9780000  0  8 28 29 18 19 27 31 14 22
  16965139.710   -18018834.51249 -14010909.44749  16965143.2204   16965149.9144
  13957827.869   -50086246.37349 -39012346.14249  13957828.9194   13957834.2714
  13913734.313   -52464590.66149 -40866319.20449  13913735.3974   13913740.4844
  14818406.470   -33385738.78749 -25975033.95549  14818403.6664   14818409.1434
  17769786.742    -6769132.25249  -5249045.94649  17769789.2424   17769797.8664
  17096522.098   -13925784.17349 -10817515.64549  17096523.2504   17096528.2654
  16224546.911   -34461822.25649 -26840740.48149  16224548.7584   16224555.1934
  16941928.497   -36331984.47349 -28288001.49549  16941925.3014   16941933.1314
 95  1  5 22 15 59.9770000  0  8 28 29 18 19 27 31 14 22
  16942084.243   -18140000.22749 -14105324.28149  16942086.4684   16942092.7794
  13946789.452   -50144254.88449 -39057547.57449  13946790.4494   13946795.6114
  13891489.012   -52581499.30549 -40957416.83749  13891488.3974   13891493.4274
  14796506.349   -33500815.59649 -26064704.17049  14796505.0064   14796510.5874
  17740964.287    -6920605.64549  -5367077.06249  17740961.3864   17740970.9024
  17066195.839   -14085109.28149 -10941665.02449  17066204.9324   17066210.2924
  16230158.873   -34432342.70049 -26817769.43349  16230158.7404   16230166.3114
  16946498.263   -36307959.25449 -28269280.55649  16946496.4944   16946502.4854
 95  1  5 22 16 29.9770000  0  8 28 29 18 19 27 31 14 22
  16919108.764   -18260778.07649 -14199436.87949  16919103.0774   16919110.1714
  13935829.702   -50201871.13749 -39102443.35349  13935826.7504   13935831.3954
  13869307.053   -52698063.79749 -41048246.30249  13869307.0374   13869312.0084
  14774653.990   -33615653.65649 -26154188.34949  14774652.1014   14774657.7524
  17712152.555    -7072000.63249  -5485047.11049  17712154.9004   17712161.2634
  17035921.071   -14244270.65849 -11065686.81349  17035917.9254   17035922.6504
  16235805.369   -34402687.95049 -26794661.87049  16235802.6894   16235808.8504
  16951109.701   -36283717.03249 -28250390.56749  16951110.4054   16951115.8344
 95  1  5 22 16 59.9770000  0  8 28 29 18 19 27 31 14 22
  16896197.722   -18381177.00849 -14293254.21949  16896192.2114   16896197.1824
  13924931.348   -50259118.52749 -39147051.71949  13924933.1464   13924937.1724
  13847193.287   -52814278.53949 -41138803.23549  13847192.4584   13847197.2594
  14752842.027   -33730267.84649 -26243498.08949  14752841.7044   14752847.4114
  17683357.309    -7223322.32549  -5602960.01549  17683359.9304   17683366.1894
  17005657.983   -14403285.15549 -11189594.14549  17005659.1694   17005663.1904
  16241471.216   -34372860.12349 -26771419.43849  16241478.2584   16241484.2554
  16955765.120   -36259272.13149 -28231342.61449  16955762.4644   16955769.1804
 95  1  5 22 17 29.9770000  0  8 28 29 18 19 27 31 14 22
  16873357.496   -18501170.34149 -14386755.49549  16873358.1564   16873362.9774
  13914112.841   -50315970.19449 -39191351.71849  13914113.9904   13914118.5674
  13825151.073   -52930106.05749 -41229058.43549  13825150.3614   13825155.7074
  14731080.651   -33844638.06749 -26332617.70349  14731077.6774   14731083.6904
  17654585.059    -7374538.30449  -5720790.58249  17654583.6014   17654589.8064
  16975429.721   -14562140.80249 -11313377.70349  16975428.5214   16975433.5114
  16247183.512   -34342829.15949 -26748018.70749  16247192.1504   16247199.1424
  16960450.197   -36234615.62049 -28212129.78149  16960454.4064   16960459.9084
 95  1  5 22 17 59.9770000  0  8 28 29 18 19 27 31 14 22
  16850604.194   -18620735.12949 -14479922.82949  16850606.4044   16850611.0234
  13903373.839   -50372405.49549 -39235327.29249  13903375.0984   13903379.1424
  13803188.265   -53045522.18849 -41318993.07649  13803188.0304   13803193.0004
  14709358.457   -33958759.46149 -26421543.45349  14709361.1034   14709366.9784
  17625829.256    -7525629.99949  -5838524.29849  17625831.2154   17625839.7354
  16945229.417   -14720836.07249 -11437036.29449  16945230.5734   16945235.4584
  16252943.649   -34312588.79749 -26724454.82849  16252947.1694   16252954.0294
  16965190.435   -36209735.14849 -28192742.42049  16965188.9654   16965195.9864
 95  1  5 22 18 29.9770000  0  8 28 29 18 19 27 31 14 22
  16827930.071   -18739912.83449 -14572788.53849  16827926.9434   16827932.0044
  13892706.051   -50428466.84049 -39279011.46549  13892707.0994   13892711.3424
  13781295.096   -53160566.60749 -41408638.06849  13781295.8214   13781300.7264
  14687680.595   -34072694.90949 -26510324.30149  14687680.1284   14687685.9004
  17597094.131    -7676635.18549  -5956190.58149  17597093.8634   17597102.5964
  16915056.918   -14879428.24649 -11560614.54649  16915050.6044   16915055.6944
  16258729.899   -34282191.47649 -26700768.63349  16258732.0414   16258738.5894
  16969956.995   -36184685.74749 -28173223.43549  16969956.0014   16969961.9444
 95  1  5 22 18 59.9770000  0  8 28 29 18 19 27 31 14 22
  16805322.912   -18858695.53749 -14665346.44649  16805323.1854   16805329.1274
  13882111.527   -50484145.89749 -39322397.73849  13882111.4054   13882116.1414
  13759473.329   -53275243.17949 -41497996.42149  13759473.2214   13759478.4174
  14666034.959   -34186434.18049 -26598952.27249  14666035.9384   14666042.0384
  17568372.695    -7827554.28649  -6073789.80249  17568376.1804   17568384.5734
  16884890.285   -15037897.38549 -11684096.90849  16884894.6754   16884900.2134
  16264546.933   -34251626.24149 -26676951.58749  16264548.3464   16264554.8894
  16974753.170   -36159476.55249 -28153579.93849  16974752.8854   16974758.0564
 95  1  5 22 19 29.9770000  0  8 28 29 18 19 27 31 14 22
  16782794.074   -18977080.13649 -14757594.16449  16782794.7944   16782800.8024
  13871588.688   -50539439.37449 -39365483.56549  13871589.2514   13871594.2334
  13737719.682   -53389566.67549 -41587079.65349  13737717.9504   13737723.2674
  14644430.818   -34299971.05049 -26687422.53849  14644430.4974   14644436.4354
  17539676.167    -7978390.80349  -6191324.66849  17539674.8894   17539682.1214
  16854760.720   -15196243.12949 -11807483.16049  16854761.4764   16854768.6614
  16270386.934   -34220910.49349 -26653017.26649  16270392.8224   16270399.8044
  16979580.846   -36134112.41549 -28133815.69849  16979579.5904   16979585.5494
 95  1  5 22 19 59.9770000  0  8 28 29 18 19 27 31 14 22
  16760337.463   -19095075.82749 -14849538.81749  16760341.3224   16760348.2974
  13861139.435   -50594359.04649 -39408278.11449  13861138.3054   13861143.4944
  13716027.323   -53503556.13149 -41675902.60049  13716026.8114   13716031.9184
  14622862.966   -34413317.63049 -26775744.53449  14622861.3764   14622867.3934
  17510979.523    -8129166.75649  -6308812.35049  17510981.3534   17510988.8034
  16824650.657   -15354456.53049 -11930766.23849  16824654.1504   16824662.1534
  16276263.761   -34190064.96649 -26628981.82149  16276262.6384   16276269.8374
  16984439.959   -36108600.74849 -28113936.51049  16984434.7444   16984440.7424
 95  1  5 22 20 29.9770000  0  8 28 29 18 19 27 31 14 22
  16737960.792   -19212665.21949 -14941166.87549  16737964.8834   16737971.4414
  13850763.985   -50648877.65549 -39450760.14149  13850763.8814   13850768.8174
  13694403.005   -53617201.02649 -41764457.05349  13694400.6864   13694405.9704
  14601336.075   -34526443.10149 -26863894.23349  14601334.2054   14601340.1014
  17482302.458    -8279863.33949  -6426238.19649  17482305.6694   17482313.2944
  16794580.003   -15512506.59649 -12053922.07549  16794578.3564   16794586.1884
  16282163.475   -34159065.81749 -26604826.67749  16282162.0124   16282168.5604
  16989321.288   -36082924.62349 -28093929.16449  16989320.6934   16989326.0914
 95  1  5 22 20 59.9770000  0  8 28 29 18 19 27 31 14 22
  16715667.422   -19329841.42849 -15032472.98349  16715666.6554   16715673.6144
  13840466.717   -50702991.67249 -39492926.90649  13840466.5844   13840471.3344
  13672840.898   -53730508.29849 -41852748.42649  13672839.0074   13672844.2244
  14579856.324   -34639334.60549 -26951861.62649  14579851.6504   14579857.5114
  17453643.643    -8430476.98149  -6543599.40149  17453645.8714   17453651.1634
  16764536.888   -15670378.06149 -12176938.74749  16764534.4324   16764543.7894
  16288093.378   -34127904.36049 -26580545.04549  16288092.6794   16288098.5314
  16994250.565   -36057070.11249 -28073782.82349  16994240.1584   16994246.8244
 95  1  5 22 21 29.9770000  0  8 28 29 18 19 27 31 14 22
  16693451.140   -19446621.73449 -15123470.58049  16693444.3884   16693451.4834
  13830245.090   -50756708.86149 -39534784.45349  13830244.4574   13830249.1254
  13651341.955   -53843490.35649 -41940786.38149  13651339.3444   13651344.5894
  14558410.626   -34752026.41349 -27039673.40849  14558407.2394   14558413.1484
  17424998.086    -8581018.91649  -6660904.73949  17424997.8814   17425004.3434
  16734526.861   -15828089.95049 -12299831.05749  16734524.0644   16734533.2424
  16294051.564   -34096598.27849 -26556150.72749  16294049.2424   16294055.5404
  16999200.506   -36031034.74049 -28053495.55249  16999194.9494   16999198.6104
 95  1  5 22 21 59.9770000  0  8 28 29 18 19 27 31 14 22
  16671296.911   -19562993.33849 -15214149.72149  16671299.5914   16671305.2434
  13820104.257   -50810000.12749 -39576310.11649  13820103.0534   13820107.6824
  13629907.107   -53956129.78449 -42028557.35149  13629904.6784   13629910.0094
  14537005.734   -34864511.97049 -27127324.48149  14537001.6874   14537007.8374
  17396365.160    -8731475.20649  -6778143.31349  17396367.1744   17396372.0234
  16704551.540   -15985618.77949 -12422580.75449  16704547.8564   16704556.0744
  16300040.062   -34065121.28249 -26531623.24549  16300039.6864   16300044.8284
  17004191.644   -36004805.06849 -28033056.87249  17004185.8604   17004191.4814
 95  1  5 22 22 29.9770000  0  8 28 29 18 19 27 31 14 22
  16649233.472   -19678949.34349 -15304505.00949  16649233.4594   16649239.4134
  13810044.717   -50862860.78249 -39617500.23849  13810043.9014   13810048.6014
  13608535.053   -54068415.82549 -42116052.95749  13608537.1864   13608542.4124
  14515638.612   -34976788.45749 -27214812.63949  14515636.1734   14515642.3314
  17367755.243    -8881843.97549  -6895313.73649  17367752.0254   17367758.5364
  16674603.559   -16142986.51049 -12545204.88249  16674601.5624   16674610.4994
  16306064.866   -34033448.70349 -26506943.33549  16306066.9144   16306072.5984
  17009221.558   -35978365.77749 -28012454.86549  17009217.5574   17009224.4604
 95  1  5 22 22 59.9770000  0  8 28 29 18 19 27 31 14 22
  16627254.986   -19794481.19849 -15394529.78649  16627249.0464   16627254.2294
  13800067.477   -50915286.57249 -39658351.51249  13800067.7604   13800072.1284
  13587240.540   -54180327.40049 -42203256.78049  13587241.6574   13587246.4904
  14494311.315   -35088864.29249 -27302144.45149  14494309.2224   14494314.9274
  17339157.299    -9032120.29849  -7012412.10549  17339156.6574   17339163.0534
  16644686.766   -16300195.70549 -12667705.48449  16644687.5044   16644694.6554
  16312133.356   -34001573.13849 -26482105.26949  16312132.3334   16312138.6024
  17014293.879   -35951716.60949 -27991689.30749  17014289.5744   17014293.0224
 95  1  5 22 23 29.9770000  0  8 28 29 18 19 27 31 14 22
  16605348.980   -19909580.65549 -15484217.63849  16605346.0474   16605351.1654
  13790178.049   -50967270.98349 -39698858.84249  13790175.5694   13790180.2284
  13566019.446   -54291847.95849 -42290155.89949  13566019.5704   13566024.8514
  14473015.957   -35200742.09049 -27389321.94549  14473019.1884   14473025.0954
  17310578.642    -9182303.21849  -7129437.69149  17310575.4634   17310583.1554
  16614803.617   -16457242.01649 -12790079.17949  16614802.6844   16614808.5504
  16318231.363   -33969500.19049 -26457113.38849  16318234.8324   16318241.7164
  17019403.424   -35924866.16049 -27970766.90749  17019398.1354   17019404.5384
 95  1  5 22 23 59.9770000  0  8 28 29 18 19 27 31 14 22
  16583521.839   -20024248.84949 -15573569.43249  16583525.1174   16583530.9484
  13780360.839   -51018837.06849 -39739040.21549  13780363.2644   13780367.9034
  13544874.270   -54402969.08349 -42376743.78049  13544874.1604   13544879.2804
  14451766.624   -35312429.97349 -27476351.45749  14451765.7854   14451771.6254
  17282002.846    -9332405.34249  -7246400.34249  17282013.9784   17282020.4154
  16584949.502   -16614131.10249 -12912330.34649  16584948.4434   16584953.9634
  16324369.374   -33937256.90749 -26431988.79749  16324370.7474   16324377.1804
  17024537.043   -35897850.14549 -27949715.48849  17024538.2364   17024545.9004
 95  1  5 22 24 29.9770000  0  8 28 29 18 19 27 31 14 22
  16561781.769   -20138485.12349 -15662584.66349  16561787.7314   16561793.2664
  13770624.883   -51070013.10449 -39778917.66049  13770625.4174   13770629.6084
  13523805.151   -54513680.07249 -42463012.08449  13523806.8744   13523811.6904
  14430548.581   -35423930.45049 -27563234.93749  14430548.3464   14430553.9454
  17253461.557    -9482425.51449  -7363299.11449  17253464.5944   17253471.0814
  16555122.052   -16770860.94249 -13034457.43049  16555123.9814   16555128.7164
  16330529.366   -33904869.78249 -26406752.13049  16330534.1374   16330539.8734
  17029709.180   -35870690.71049 -27928552.32649  17029707.3514   17029712.2034
 95  1  5 22 24 59.9770000  0  8 28 29 18 19 27 31 14 22
  16540137.761   -20252287.70949 -15751261.97049  16540130.5894   16540137.0114
  13760957.521   -51120809.16549 -39818498.98749  13760957.8814   13760963.4664
  13502817.111   -54623984.59549 -42548963.63649  13502816.2024   13502821.3554
  14409367.301   -35535252.97049 -27649979.74249  14409363.8284   14409369.6924
  17224930.748    -9632352.80149  -7480125.49349  17224934.0594   17224941.9054
  16525338.509   -16927395.70049 -13156432.48649  16525337.1184   16525339.8474
  16336715.896   -33872370.44049 -26381427.98249  16336718.1424   16336724.2664
  17034898.822   -35843417.09849 -27907300.18749  17034897.4414   17034904.3834
 95  1  5 22 25 29.9770000  0  8 28 29 18 19 27 31 14 22
  16518555.398   -20365636.77449 -15839585.89449  16518560.6894   16518567.8044
  13751366.048   -51171210.97849 -39857773.12349  13751366.6144   13751372.2364
  13481907.973   -54733864.59249 -42634584.40949  13481906.7654   13481911.8654
  14388218.984   -35646369.75649 -27736564.24249  14388219.2464   14388224.9524
  17196425.901    -9782175.10549  -7596870.07049  17196426.0674   17196430.8044
  16495588.310   -17083706.20149 -13278232.84149  16495591.7324   16495594.4214
  16342930.767   -33839752.86949 -26356011.74249  16342925.4734   16342931.6954
  17040114.419   -35816013.98149 -27885947.14149  17040111.7504   17040117.3924
 95  1  5 22 25 59.9770000  0  8 28 29 18 19 27 31 14 22
  16497072.569   -20478554.30649 -15927573.54549  16497073.5414   16497080.7604
  13741849.485   -51221228.98649 -39896748.19349  13741848.6964   13741853.6904
  13461073.180   -54843347.58449 -42719895.82149  13461072.7614   13461077.8344
  14367108.662   -35757293.94149 -27822998.66349  14367111.2224   14367116.7784
  17167926.383    -9931909.37649  -7713546.07349  17167928.4504   17167938.4544
  16465881.002   -17239820.72549 -13399880.42949  16465884.1634   16465886.5704
  16349151.386   -33807032.83949 -26330515.66349  16349151.1494   16349158.0874
  17045351.084   -35788491.18649 -27864500.83049  17045348.7994   17045357.6794
 95  1  5 22 26 29.9760000  0  8 28 29 18 19 27 31 14 22
  16475669.759   -20591038.05549 -16015223.19549  16475668.8354   16475675.8004
  13732406.797   -51270848.27249 -39935412.57949  13732406.7524   13732410.9914
  13440313.106   -54952448.98549 -42804909.89249  13440311.6454   13440316.5724
  14346043.929   -35868005.68349 -27909267.54349  14346043.3924   14346048.8814
  17139458.163   -10081552.25149  -7830150.82649  17139454.8704   17139461.6014
  16436215.320   -17395730.53149 -13521368.53949  16436215.1934   16436216.9524
  16355403.687   -33774202.69149 -26304933.77049  16355399.4844   16355405.4604
  17050616.053   -35760837.94349 -27842952.83649  17050611.6424   17050615.9644
 95  1  5 22 26 59.9760000  0  8 28 29 18 19 27 31 14 22
  16454347.027   -20703085.29649 -16102532.70349  16454347.3514   16454353.4884
  13723045.085   -51320045.11149 -39973747.80249  13723045.7474   13723049.0254
  13419619.925   -55061183.19349 -42889637.84449  13419620.4184   13419625.1824
  14325016.177   -35978496.76849 -27995364.47749  14325017.8874   14325023.3604
  17111002.316   -10231116.53449  -7946694.39349  17110993.3264   17110999.7264
  16406588.553   -17551444.11449 -13642703.74949  16406582.4314   16406585.4634
  16361671.523   -33741238.04949 -26279247.10049  16361671.7824   16361678.7294
  17055908.095   -35733028.27149 -27821283.04149  17055904.0164   17055909.6334
 95  1  5 22 27 29.9760000  0  8 28 29 18 19 27 31 14 22
  16433108.317   -20814690.74049 -16189497.94749  16433110.1414   16433115.0864
  13713766.773   -51368810.47349 -40011746.80549  13713766.2654   13713769.3864
  13399000.018   -55169553.42449 -42974082.17049  13398998.2674   13399002.9734
  14304037.285   -36088745.56449 -28081272.62049  14304038.4324   14304043.6384
  17082547.832   -10380609.28849  -8063182.18849  17082547.3414   17082552.8534
  16376981.511   -17706969.90549 -13763892.62049  16376987.1544   16376989.7794
  16367977.848   -33708120.99949 -26253441.67249  16367975.0914   16367979.3824
  17061234.319   -35705043.40649 -27799476.62649  17061229.7154   17061237.0934
 95  1  5 22 27 59.9760000  0  8 28 29 18 19 27 31 14 22
  16411957.554   -20925847.93949 -16276113.92449  16411956.5494   16411962.7624
  13704568.440   -51417145.24849 -40049410.27149  13704567.6704   13704571.9544
  13378444.057   -55277561.82149 -43058244.53749  13378444.6304   13378449.6714
  14283103.461   -36198750.81849 -28166990.98649  14283104.5474   14283110.3494
  17054116.589   -10530027.73449  -8179612.07649  17054112.5374   17054118.1894
  16347421.492   -17862305.80849 -13884933.53949  16347426.0124   16347430.5954
  16374298.317   -33674847.00249 -26227513.88549  16374305.8524   16374313.3024
  17066591.106   -35676881.86449 -27777532.62649  17066587.5914   17066591.8964
 95  1  5 22 28 29.9760000  0  8 28 29 18 19 27 31 14 22
  16390887.606   -21036561.45649 -16362384.17049  16390888.6194   16390894.1234
  13695448.140   -51465075.71449 -40086758.68349  13695446.0594   13695451.5414
  13357961.774   -55385208.26949 -43142124.87549  13357960.0884   13357965.4174
  14262217.509   -36308526.56949 -28252530.52449  14262214.7784   14262220.6024
  17025685.475   -10679381.66249  -8295991.68949  17025690.3814   17025698.6634
  16317898.055   -18017445.68549 -14005821.72549  16317903.8114   16317909.3274
  16380663.951   -33641428.71649 -26201473.72649  16380665.7014   16380672.0974
  17071979.133   -35648573.43649 -27755474.11549  17071973.4564   17071982.9474
 95  1  5 22 28 59.9760000  0  8 28 29 18 19 27 31 14 22
  16369909.793   -21146824.73749 -16448303.56849  16369906.0074   16369912.9554
  13686401.333   -51512605.78449 -40123795.10449  13686401.1984   13686406.9364
  13337547.656   -55492480.95949 -43225713.97449  13337547.0844   13337552.2054
  14241363.025   -36418088.44149 -28337903.39849  14241365.9264   14241371.7454
  16997289.233   -10828663.94749  -8412315.48249  16997284.7394   16997290.6434
  16288419.765   -18172390.49449 -14126557.89349  16288417.8224   16288424.9424
  16387054.478   -33607863.18349 -26175318.83249  16387054.2764   16387059.3724
  17077387.700   -35620122.06549 -27733304.25849  17077388.9924   17077392.8834
 95  1  5 22 29 29.9760000  0  8 28 29 18 19 27 31 14 22
  16349011.149   -21256621.96149 -16533859.82549  16349012.5784   16349018.6404
  13677433.315   -51559729.60649 -40160514.96149  13677434.3104   13677439.6424
  13317211.707   -55599349.35149 -43308988.03849  13317210.4574   13317215.7494
  14220557.610   -36527437.31149 -28423110.30249  14220557.3814   14220563.3694
  16968888.183   -10977846.06049  -8528561.23249  16968895.4274   16968902.0994
  16258976.863   -18327113.14349 -14247120.97849  16258976.2634   16258983.1974
  16393471.423   -33574159.54249 -26149056.29949  16393468.5604   16393472.4254
  17082829.522   -35591524.51549 -27711020.49349  17082831.0614   17082839.5964
 95  1  5 22 29 59.9760000  0  8 28 29 18 19 27 31 14 22
  16328201.984   -21365996.77349 -16619086.92749  16328198.7844   16328205.4744
  13668538.791   -51606477.34649 -40196941.77449  13668538.6934   13668543.6614
  13296947.229   -55705835.22649 -43391964.03649  13296946.8274   13296951.8864
  14199776.564   -36636638.28549 -28508201.96349  14199777.0304   14199783.0254
  16940525.610   -11126964.75849  -8644757.53549  16940518.9974   16940525.2094
  16229573.686   -18481650.01949 -14367539.30349  16229567.4074   16229575.8414
  16399899.952   -33540380.89749 -26122735.32849  16399894.9194   16399901.5764
  17088290.010   -35562844.02049 -27688671.98749  17088285.8964   17088295.5504
 95  1  5 22 30 29.9760000  0  8 28 29 18 19 27 31 14 22
  16307469.094   -21474945.31049 -16703981.84549  16307466.8324   16307473.2194
  13659716.672   -51652833.13549 -40233063.17549  13659717.8754   13659722.2684
  13276758.765   -55811930.15549 -43474635.40349  13276757.7524   13276762.7744
  14179023.904   -36745694.84049 -28593181.08549  14179024.4244   14179030.3924
  16912155.288   -11276008.44949  -8760895.43949  16912155.6454   16912163.2274
  16200199.985   -18635989.53749 -14487803.83449  16200199.2414   16200207.1384
  16406339.935   -33506530.04849 -26096358.10049  16406337.5074   16406342.6514
  17093765.091   -35534072.16749 -27666252.43349  17093762.5464   17093769.4004
 95  1  5 22 30 59.9760000  0  8 28 29 18 19 27 31 14 22
  16286818.476   -21583464.41649 -16788542.15349  16286816.8084   16286822.1214
  13650975.303   -51698779.33249 -40268865.42549  13650974.9094   13650978.6844
  13256646.142   -55917635.04949 -43557002.84449  13256643.0764   13256647.8944
  14158300.420   -36854601.13149 -28678043.11849  14158300.6224   14158306.2934
  16883806.256   -11424979.82549  -8876976.95549  16883808.3284   16883814.5124
  16170870.669   -18790120.71049 -14607906.04549  16170869.5464   16170876.6874
  16412794.130   -33472624.42549 -26069938.20949  16412789.5794   16412795.0864
  17099266.701   -35505190.21949 -27643747.01449  17099259.9114   17099267.3874
 95  1  5 22 31 29.9760000  0  8 28 29 18 19 27 31 14 22
  16266252.034   -21691527.65549 -16872747.24749  16266253.0544   16266259.1954
  13642314.459   -51744283.29349 -40304323.07549  13642315.5434   13642319.2824
  13236609.014   -56022921.84449 -43639044.49949  13236607.7704   13236612.4794
  14137611.950   -36963316.92149 -28762756.71249  14137612.7024   14137618.2334
  16855479.529   -11573857.36349  -8992985.37549  16855477.8524   16855483.7124
  16141588.768   -18944011.26549 -14727820.73949  16141586.0174   16141593.5204
  16419255.788   -33438651.12449 -26043465.54149  16419253.7544   16419259.7214
  17104783.559   -35476172.92849 -27621136.16849  17104780.0514   17104786.5214
 95  1  5 22 31 59.9760000  0  8 28 29 18 19 27 31 14 22
  16245776.982   -21799132.59549 -16956595.22049  16245775.9134   16245781.7304
  13633741.742   -51789339.24649 -40339431.62149  13633741.5694   13633745.3774
  13216651.657   -56127799.95349 -43720767.69349  13216650.0464   13216654.7814
  14116961.748   -37071824.16049 -28847307.79049  14116964.6084   14116969.9414
  16827158.971   -11722653.39149  -9108930.26649  16827161.9684   16827169.6024
  16112340.094   -19097663.69249 -14847549.90449  16112346.5754   16112353.5164
  16425733.163   -33404595.86149 -26016929.01649  16425733.4634   16425740.3504
  17110319.758   -35447013.74749 -27598414.66849  17110329.6334   17110337.3074
 95  1  5 22 32 29.9760000  0  8 28 29 18 19 27 31 14 22
  16225386.490   -21906289.58249 -17040094.14249  16225384.2564   16225390.7394
  13625246.639   -51833978.54849 -40374215.48949  13625246.3214   13625251.1054
  13196765.837   -56232294.12849 -43802191.71349  13196765.2474   13196770.4194
  14096357.803   -37180114.39549 -28931689.77849  14096357.1104   14096363.2454
  16798862.564   -11871389.99649  -9224828.85549  16798857.7754   16798865.3164
  16083157.705   -19251089.12149 -14967102.15649  16083150.9504   16083158.7664
  16432230.038   -33370471.16049 -25990338.38949  16432227.5924   16432234.4864
  17115907.121   -35417727.07949 -27575593.98249  17115904.3364   17115906.2334
 95  1  5 22 32 59.9760000  0  8 28 29 18 19 27 31 14 22
  16205076.291   -22012981.80449 -17123230.90049  16205082.0154   16205088.3154
  13616830.588   -51878201.99149 -40408675.32349  13616831.2194   13616836.0244
  13176956.598   -56336388.33149 -43883304.07649  13176956.8574   13176961.7154
  14075793.982   -37288167.95449 -29015887.33949  14075795.2754   14075801.0774
  16770568.641   -12020059.86349  -9340675.46849  16770567.8534   16770574.2634
  16054002.962   -19404274.56049 -15086467.40749  16054000.3814   16054007.7434
  16438737.834   -33336254.21149 -25963675.87049  16438739.1634   16438746.0974
  17121489.262   -35388317.90149 -27552677.71249  17121499.0034   17121508.4324
 95  1  5 22 33 29.9760000  0  8 28 29 18 19 27 31 14 22
  16184866.283   -22119209.05449 -17206005.35249  16184867.4684   16184873.6464
  13608494.684   -51922014.55349 -40442814.98349  13608494.3244   13608499.1444
  13157227.652   -56440072.75949 -43964097.12949  13157226.3304   13157231.1984
  14055277.745   -37395983.36049 -29099899.32749  14055278.8674   14055284.3934
  16742290.980   -12168658.44649  -9456466.53549  16742290.9294   16742296.1294
  16024898.296   -19557221.56249 -15205646.86849  16024896.1864   16024902.7274
  16445270.072   -33301923.86849 -25936925.00549  16445271.6984   16445278.3634
  17127114.026   -35358803.03349 -27529679.09149  17127116.6894   17127120.2864
 95  1  5 22 33 59.9760000  0  8 28 29 18 19 27 31 14 22
  16164740.943   -22225003.20149 -17288442.31549  16164735.5134   16164741.3804
  13600228.398   -51965450.84749 -40476661.44749  13600228.8354   13600233.6324
  13137568.547   -56543375.82749 -44044593.01749  13137568.2034   13137573.3334
  14034797.912   -37503604.73049 -29183760.11549  14034799.2124   14034804.7954
  16714025.134   -12317218.22849  -9572227.36249  16714020.1464   16714027.5084
  15995836.281   -19709956.68549 -15324661.20349  15995831.3454   15995837.1154
  16451817.853   -33267505.34849 -25910105.41849  16451820.9224   16451828.8324
  17132752.525   -35329222.12049 -27506629.06549  17132746.3064   17132752.4284
 95  1  5 22 34 29.9760000  0  8 28 29 18 19 27 31 14 22
  16144695.473   -22330325.72949 -17370511.79749  16144693.4124   16144699.0434
  13592040.975   -52008476.39349 -40510187.85449  13592041.5014   13592045.8914
  13117993.000   -56646254.35649 -44124758.10149  13117991.2894   13117996.1274
  14014359.662   -37611012.73849 -29267454.64849  14014360.2544   14014365.5924
  16685760.559   -12465696.59349  -9687924.73649  16685765.8374   16685772.7714
  15966809.306   -19862444.01149 -15443482.45549  15966814.0924   15966819.6674
  16458388.682   -33232977.32149 -25883200.52049  16458391.3214   16458398.8174
  17138399.329   -35299552.64449 -27483510.00549  17138391.6444   17138396.1644
 95  1  5 22 34 59.9760000  0  8 28 29 18 19 27 31 14 22
  16124734.677   -22435195.20749 -17452228.24949  16124736.6494   16124743.0384
  13583930.679   -52051104.19049 -40543404.32649  13583929.2784   13583933.8694
  13098490.734   -56748729.20449 -44204608.62449  13098490.7604   13098496.0064
  13993955.964   -37718238.67849 -29351007.30949  13993955.3374   13993961.1064
  16657529.144   -12614103.16049  -9803566.17449  16657524.9154   16657531.1154
  15937835.480   -20014703.74149 -15562126.33949  15937839.2674   15937845.0444
  16464980.553   -33198367.56549 -25856231.93149  16464976.6364   16464984.7384
  17144046.450   -35269807.22149 -27460331.74349  17144052.0074   17144058.7274
 95  1  5 22 35 29.9760000  0  8 28 29 18 19 27 31 14 22
  16104862.616   -22539590.22449 -17533574.99449  16104871.3514   16104877.2514
  13575897.759   -52093305.34849 -40576288.35449  13575898.2414   13575902.8524
  13079074.187   -56850776.14549 -44284125.72349  13079071.6594   13079076.9144
  13973589.580   -37825269.53749 -29434407.96249  13973588.2484   13973593.9454
  16629303.282   -12762413.80649  -9919132.87649  16629301.9844   16629309.1114
  15908915.246   -20166713.57149 -15680575.49049  15908912.0484   15908916.7204
  16471580.770   -33163678.54749 -25829201.57249  16471578.0094   16471586.7164
  17149726.295   -35239955.32349 -27437070.54049  17149733.0034   17149734.8594
 95  1  5 22 35 59.9760000  0  8 28 29 18 19 27 31 14 22
  16085096.979   -22643517.63649 -17614557.37249  16085094.0034   16085100.7684
  13567943.158   -52135100.08049 -40608855.68449  13567944.8054   13567949.4684
  13059731.437   -56952406.78749 -44363318.42849  13059732.0504   13059737.1884
  13953253.972   -37932124.01449 -29517671.17449  13953254.3254   13953259.9354
  16601092.924   -12910642.92749 -10034636.02749  16601094.9664   16601101.9404
  15880034.642   -20318479.76249 -15798834.80449  15880031.1944   15880035.8244
  16478189.063   -33128943.40249 -25802135.27149  16478188.9634   16478195.7204
  17155439.878   -35210003.18949 -27413731.25049  17155431.0924   17155439.5104
 95  1  5 22 36 29.9760000  0  8 28 29 18 19 27 31 14 22
  16065408.373   -22746975.81549 -17695174.11749  16065407.3684   16065413.4564
  13560066.265   -52176501.50849 -40641116.54249  13560066.3664   13560071.1554
  13040469.969   -57053622.44649 -44442187.77049  13040471.3354   13040476.5964
  13932952.672   -38038803.29149 -29600797.86349  13932953.9984   13932959.6064
  16572900.724   -13058789.41349 -10150074.78849  16572903.5744   16572910.3974
  15851201.440   -20469998.32849 -15916901.13549  15851197.7864   15851202.2924
  16484806.448   -33094171.48449 -25775040.30849  16484806.2164   16484812.3624
  17161141.548   -35179952.04549 -27390314.74349  17161150.1574   17161156.1254
 95  1  5 22 36 59.9750000  0  8 28 29 18 19 27 31 14 22
  16045812.532   -22849948.31149 -17775412.39249  16045812.2594   16045817.9594
  13552267.764   -52217498.52949 -40673062.28749  13552265.4314   13552269.9544
  13021292.395   -57154412.28849 -44520725.30049  13021291.6964   13021297.1214
  13912690.733   -38145292.50749 -29683776.45749  13912689.9384   13912695.5454
  16544732.640   -13206832.23349 -10265432.79349  16544732.1984   16544739.1774
  15822413.284   -20621233.49549 -16034746.65849  15822417.7624   15822423.1014
  16491436.810   -33059346.00849 -25747903.63949  16491432.2114   16491439.9464
  17166891.000   -35149784.24549 -27366807.43749  17166890.6914   17166895.5894
 95  1  5 22 37 29.9750000  0  8 28 29 18 19 27 31 14 22
  16026310.794   -22952448.25449 -17855282.46649  16026306.8414   16026313.0504
  13544541.112   -52258098.07849 -40704698.30549  13544539.7974   13544544.3414
  13002193.238   -57254785.16549 -44598937.92049  13002191.1734   13002196.7454
  13892458.395   -38251605.88349 -29766618.03449  13892459.0034   13892464.7364
  16516578.458   -13354791.26249 -10380725.47449  16516575.7954   16516584.3404
  15793693.029   -20772196.82749 -16152380.34549  15793691.9724   15793696.3054
  16498070.471   -33024465.99449 -25720724.45649  16498068.9714   16498077.7474
  17172652.234   -35119508.87349 -27343216.25949  17172652.2814   17172659.4654
